[[{"header":{"parameterUnit":"m.s-1","parameterCategory":1,"la1":31.0,"la2":29.5877,"lo1":-88.7671,"lo2":-86.6584,"dy":0.0162,"dx":0.0185,"nx":115,"ny":88,"refTime":"2026-05-13T00:00:00:Z","depth":0,"parameterNumber":2,"parameterNumberName":"U-component_of_WINDS"},"data":[0.0,0.0,0.0,0.0,0.0,0.0,0.0,0.0,0.0,0.0,0.0,0.0,0.0,0.0,0.0,0.0,0.0,0.0,0.0,0.0,0.0,0.0,0.0,0.0,0.0,0.0,0.0,0.0,0.0,0.0,0.0,0.0,0.0,0.0,0.0,0.0,0.0,0.0,0.0,0.0,0.0,0.0,0.0,0.0,0.0,0.0,0.0,0.0,0.0,0.0,0.0,0.0,0.0,0.0,0.0,0.0,0.0,0.0,0.0,0.0,0.0,0.0,0.0,0.0,0.0,0.0,0.0,0.0,0.0,0.0,0.0,0.0,0.0,0.0,0.0,0.0,0.0,0.0,0.0,0.0,0.0,0.0,0.0,0.0,0.0,0.0,0.0,0.0,0.0,0.0,0.0,0.0,0.0,0.0,0.0,0.0,0.0,0.0,0.0,0.0,0.0,0.0,0.0,0.0,0.0,0.0,0.0,0.0,0.0,0.0,0.0,0.0,0.0,0.0,0.0,0.0,0.0,0.0,0.0,0.0,0.0,0.0,0.0,0.0,0.0,0.0,0.0,0.0,0.0,0.0,0.0,0.0,0.0,0.0,0.0,0.0,0.0,0.0,0.0,0.0,0.0,0.0,0.0,0.0,0.0,0.0,0.0,0.0,0.0,0.0,0.0,0.0,0.0,0.0,0.0,0.0,0.0,0.0,0.0,0.0,0.0,0.0,0.0,0.0,0.0,0.0,0.0,0.0,0.0,0.0,0.0,0.0,0.0,0.0,0.0,0.0,0.0,0.0,0.0,0.0,0.0,0.0,0.0,0.0,0.0,0.0,0.0,0.0,0.0,0.0,0.0,0.0,0.0,0.0,0.0,0.0,0.0,0.0,0.0,0.0,0.0,0.0,0.0,0.0,0.0,0.0,0.0,0.0,0.0,0.0,0.0,0.0,0.0,0.0,0.0,0.0,0.0,0.0,0.0,0.0,0.0,0.0,0.0,0.0,0.0,0.0,0.0,0.0,0.0,0.0,0.0,0.0,0.0,0.0,0.0,0.0,0.0,0.0,0.0,0.0,0.0,0.0,0.0,0.0,0.0,0.0,0.0,0.0,0.0,0.0,0.0,0.0,0.0,0.0,0.0,0.0,0.0,0.0,0.0,0.0,0.0,0.0,0.0,0.0,0.0,0.0,0.0,0.0,0.0,0.0,0.0,0.0,0.0,0.0,0.0,0.0,0.0,0.0,0.0,0.0,0.0,0.0,0.0,0.0,0.0,0.0,0.0,0.0,0.0,0.0,0.0,0.0,0.0,0.0,0.0,0.0,0.0,0.0,0.0,0.0,0.0,0.0,0.0,0.0,0.0,0.0,0.0,0.0,0.0,0.0,0.0,0.0,0.0,0.0,0.0,0.0,0.0,0.0,0.0,0.0,0.0,0.0,0.0,0.0,0.0,0.0,0.0,0.0,0.0,0.0,0.0,0.0,0.0,0.0,0.0,0.0,0.0,0.0,0.0,0.0,0.0,0.0,0.0,0.0,0.0,0.0,0.0,0.0,0.0,0.0,0.0,0.0,0.0,0.0,0.0,0.0,0.0,0.0,0.0,0.0,0.0,0.0,0.0,0.0,0.0,0.0,0.0,0.0,0.0,0.0,0.0,0.0,0.0,0.0,0.0,0.0,0.0,0.0,0.0,0.0,0.0,0.0,0.0,0.0,0.0,0.0,0.0,0.0,0.0,0.0,0.0,0.0,0.0,0.0,0.0,0.0,0.0,0.0,0.0,0.0,0.0,0.0,0.0,0.0,0.0,0.0,0.0,0.0,0.0,0.0,0.0,0.0,0.0,0.0,0.0,0.0,0.0,0.0,0.0,0.0,0.0,0.0,0.0,0.0,0.0,0.0,0.0,0.0,0.0,0.0,0.0,0.0,0.0,0.0,0.0,0.0,0.0,0.0,0.0,0.0,0.0,0.0,0.0,0.0,0.0,0.0,0.0,0.0,0.0,0.0,0.0,0.0,0.0,0.0,0.0,0.0,0.0,0.0,0.0,0.0,0.0,0.0,0.0,0.0,0.0,0.0,0.0,0.0,0.0,0.0,0.0,0.0,0.0,0.0,0.0,0.0,0.0,0.0,0.0,0.0,0.0,0.0,0.0,0.0,0.0,0.0,0.0,0.0,0.0,0.0,0.0,0.0,0.0,0.0,0.0,0.0,0.0,0.0,0.0,0.0,0.0,0.0,0.0,0.0,0.0,0.0,0.0,0.0,0.0,0.0,0.0,0.0,0.0,0.0,0.0,0.0,0.0,0.0,0.0,0.0,0.0,0.0,0.0,0.0,0.0,0.0,0.0,0.0,0.0,0.0,0.0,0.0,0.0,0.0,0.0,0.0,0.0,0.0,0.0,0.0,0.0,0.0,0.0,0.0,0.0,0.0,0.0,0.0,0.0,0.0,0.0,0.0,0.0,0.0,0.0,0.0,0.0,0.0,0.0,0.0,0.0,0.0,0.0,0.0,0.0,0.0,0.0,0.0,0.0,0.0,0.0,0.0,0.0,0.0,0.0,0.0,0.0,0.0,0.0,0.0,0.0,0.0,0.0,0.0,0.0,0.0,0.0,0.0,0.0,0.0,0.0,0.0,0.0,0.0,0.0,0.0,0.0,0.0,0.0,0.0,0.0,0.0,0.0,0.0,0.0,0.0,0.0,0.0,0.0,0.0,0.0,0.0,0.0,0.0,0.0,0.0,0.0,0.0,0.0,0.0,0.0,0.0,0.0,0.0,0.0,0.0,0.0,0.0,0.0,0.0,0.0,0.0,0.0,0.0,0.0,0.0,0.0,0.0,0.0,0.0,0.0,0.0,0.0,0.0,0.0,0.0,0.0,0.0,0.0,0.0,0.0,0.0,0.0,0.0,0.0,0.0,0.0,0.0,0.0,0.0,0.0,0.0,0.0,0.0,0.0,0.0,0.0,0.0,0.0,0.0,0.0,0.0,0.0,0.0,0.0,0.0,0.0,0.0,0.0,0.0,0.0,0.0,0.0,0.0,0.0,0.0,0.0,0.0,0.0,0.0,0.0,0.0,0.0,0.0,0.0,0.0,0.0,0.0,0.0,0.0,0.0,0.0,0.0,0.0,0.0,0.0,0.0,0.0,0.0,0.0,0.0,0.0,0.0,0.0,0.0,0.0,0.0,0.0,0.0,0.0,0.0,0.0,0.0,0.0,0.0,0.0,0.0,0.0,0.0,0.0,0.0,0.0,0.0,0.0,0.0,0.0,0.0,0.0,0.0,0.0,0.0,0.0,0.0,0.0,0.0,0.0,0.0,0.0,0.0,0.0,0.0,0.0,0.0,0.0,0.0,0.0,0.0,0.0,0.0,0.0,0.0,0.0,0.0,0.0,0.0,0.0,0.0,0.0,0.0,0.0,0.0,0.0,0.0,0.0,0.0,0.0,0.0,0.0,0.0,0.0,0.0,0.0,0.0,0.0,0.0,0.0,0.0,0.0,0.0,0.0,0.0,0.0,0.0,0.0,0.0,0.0,0.0,0.0,0.0,0.0,0.0,0.0,0.0,0.0,0.0,0.0,0.0,0.0,0.0,0.0,0.0,0.0,0.0,0.0,0.0,0.0,0.0,0.0,0.0,0.0,0.0,0.0,0.0,0.0,0.0,0.0,0.0,0.0,0.0,0.0,0.0,0.0,0.0,0.0,0.0,0.0,0.0,0.0,0.0,0.0,0.0,0.0,0.0,0.0,0.0,0.0,0.0,0.0,0.0,0.0,0.0,0.0,0.0,0.0,0.0,0.0,0.0,0.0,0.0,0.0,0.0,0.0,0.0,0.0,0.0,0.0,0.0,0.0,0.0,0.0,0.0,0.0,0.0,0.0,0.0,0.0,0.0,0.0,0.0,0.0,0.0,0.0,0.0,0.0,0.0,0.0,0.0,0.0,0.0,0.0,0.0,0.0,0.0,0.0,0.0,0.0,0.0,0.0,0.0,0.0,0.0,0.0,0.0,0.0,0.0,0.0,0.0,0.0,0.0,0.0,0.0,0.0,0.0,0.0,0.0,0.0,0.0,0.0,0.0,0.0,0.0,0.0,0.0,0.0,0.0,0.0,0.0,0.0,0.0,0.0,0.0,0.0,0.0,0.0,0.0,0.0,0.0,0.0,0.0,0.0,0.0,0.0,0.0,0.0,0.0,0.0,0.0,0.0,0.0,0.0,0.0,0.0,0.0,0.0,0.0,0.0,0.0,0.0,0.0,0.0,0.0,0.0,0.0,0.0,0.0,0.0,2.5703,0.0,0.0,0.0,0.0,0.0,0.0,0.0,0.0,0.0,0.0,0.0,0.0,0.0,0.0,0.0,0.0,0.0,0.0,0.0,0.0,0.0,0.0,0.0,0.0,0.0,0.0,0.0,0.0,0.0,0.0,0.0,0.0,0.0,0.0,0.0,0.0,0.0,0.0,0.0,0.0,0.0,0.0,0.0,0.0,0.0,0.0,0.0,0.0,0.0,0.0,0.0,0.0,0.0,0.0,0.0,0.0,0.0,0.0,0.0,0.0,0.0,0.0,0.0,0.0,0.0,0.0,0.0,0.0,0.0,0.0,0.0,0.0,0.0,0.0,0.0,0.0,0.0,0.0,0.0,0.0,0.0,0.0,0.0,0.0,0.0,0.0,0.0,0.0,0.0,0.0,0.0,0.0,0.0,0.0,0.0,0.0,0.0,0.0,0.0,0.0,0.0,0.0,0.0,0.0,0.0,0.0,0.0,0.0,0.0,0.0,2.6047,2.5507,2.608,2.6172,2.5664,0.0,0.0,0.0,0.0,0.0,0.0,0.0,0.0,0.0,0.0,0.0,0.0,0.0,0.0,0.0,0.0,0.0,0.0,0.0,0.0,0.0,0.0,0.0,0.0,0.0,0.0,0.0,0.0,0.0,0.0,0.0,0.0,0.0,0.0,0.0,0.0,0.0,0.0,0.0,0.0,0.0,0.0,0.0,0.0,0.0,0.0,0.0,0.0,0.0,0.0,0.0,0.0,0.0,0.0,0.0,0.0,0.0,0.0,0.0,0.0,0.0,0.0,0.0,0.0,0.0,0.0,0.0,0.0,0.0,0.0,0.0,0.0,0.0,0.0,0.0,0.0,0.0,0.0,0.0,0.0,0.0,0.0,0.0,0.0,0.0,0.0,0.0,0.0,0.0,0.0,0.0,0.0,0.0,0.0,0.0,0.0,0.0,0.0,0.0,0.0,0.0,0.0,0.0,0.0,0.0,0.0,0.0,0.0,0.0,0.0,0.0,0.0,2.6272,2.6358,2.5664,0.0,0.0,0.0,0.0,0.0,0.0,0.0,0.0,0.0,0.0,0.0,0.0,0.0,0.0,0.0,0.0,0.0,0.0,0.0,0.0,0.0,0.0,0.0,0.0,0.0,0.0,0.0,0.0,0.0,0.0,0.0,0.0,0.0,0.0,0.0,0.0,0.0,0.0,0.0,0.0,0.0,0.0,0.0,0.0,0.0,0.0,0.0,0.0,0.0,0.0,0.0,0.0,0.0,0.0,0.0,0.0,0.0,0.0,0.0,0.0,0.0,0.0,0.0,0.0,0.0,0.0,0.0,0.0,0.0,0.0,0.0,0.0,0.0,0.0,0.0,0.0,0.0,0.0,0.0,0.0,0.0,0.0,0.0,0.0,0.0,0.0,0.0,0.0,0.0,0.0,0.0,0.0,0.0,0.0,0.0,0.0,0.0,0.0,0.0,0.0,0.0,0.0,0.0,0.0,0.0,0.0,0.0,0.0,0.0,0.0,2.5669,2.5582,2.5754,0.0,2.5703,0.0,0.0,0.0,0.0,0.0,0.0,0.0,0.0,0.0,0.0,0.0,0.0,0.0,0.0,0.0,0.0,0.0,0.0,0.0,0.0,0.0,0.0,0.0,0.0,0.0,0.0,0.0,0.0,0.0,0.0,0.0,0.0,0.0,0.0,0.0,0.0,0.0,0.0,0.0,0.0,0.0,0.0,0.0,0.0,0.0,0.0,0.0,0.0,0.0,0.0,0.0,0.0,0.0,0.0,0.0,0.0,0.0,0.0,0.0,0.0,0.0,0.0,0.0,0.0,0.0,0.0,0.0,0.0,0.0,0.0,0.0,0.0,0.0,0.0,0.0,0.0,0.0,0.0,0.0,0.0,0.0,0.0,0.0,0.0,0.0,0.0,0.0,0.0,0.0,0.0,0.0,0.0,0.0,0.0,0.0,0.0,0.0,0.0,0.0,0.0,0.0,0.0,0.0,0.0,0.0,0.0,0.0,0.0,0.0,0.0,2.6041,2.5428,2.5522,2.561,0.0,0.0,0.0,0.0,0.0,0.0,0.0,0.0,0.0,0.0,0.0,0.0,0.0,0.0,0.0,0.0,0.0,0.0,0.0,0.0,0.0,0.0,0.0,0.0,0.0,0.0,0.0,0.0,0.0,0.0,0.0,0.0,0.0,0.0,0.0,0.0,0.0,0.0,0.0,0.0,0.0,0.0,0.0,0.0,0.0,0.0,0.0,0.0,0.0,0.0,0.0,0.0,0.0,0.0,0.0,0.0,0.0,0.0,0.0,0.0,0.0,0.0,0.0,0.0,0.0,0.0,0.0,0.0,0.0,0.0,0.0,0.0,0.0,0.0,0.0,0.0,0.0,0.0,0.0,0.0,0.0,0.0,0.0,0.0,0.0,0.0,0.0,0.0,0.0,0.0,0.0,0.0,0.0,0.0,0.0,0.0,0.0,0.0,0.0,0.0,0.0,0.0,0.0,0.0,0.0,0.0,0.0,0.0,0.0,0.0,2.6103,2.611,2.5457,2.549,2.5601,2.5703,0.0,0.0,0.0,0.0,0.0,0.0,0.0,0.0,0.0,0.0,0.0,0.0,0.0,0.0,0.0,0.0,0.0,0.0,0.0,0.0,0.0,0.0,0.0,0.0,0.0,0.0,0.0,0.0,0.0,0.0,0.0,0.0,0.0,0.0,0.0,0.0,0.0,0.0,0.0,0.0,0.0,0.0,0.0,0.0,0.0,0.0,0.0,0.0,0.0,0.0,0.0,0.0,0.0,0.0,0.0,0.0,0.0,0.0,0.0,0.0,0.0,0.0,0.0,0.0,0.0,0.0,0.0,0.0,0.0,0.0,0.0,0.0,0.0,0.0,0.0,0.0,0.0,0.0,0.0,0.0,0.0,0.0,0.0,0.0,0.0,0.0,0.0,0.0,0.0,0.0,0.0,0.0,0.0,0.0,0.0,0.0,0.0,0.0,0.0,0.0,0.0,0.0,0.0,0.0,0.0,0.0,0.0,0.0,0.0,2.5563,2.5601,2.5688,2.5691,2.5703,0.0,0.0,0.0,0.0,0.0,0.0,0.0,0.0,0.0,0.0,0.0,0.0,0.0,0.0,0.0,0.0,0.0,0.0,0.0,0.0,0.0,0.0,0.0,0.0,0.0,0.0,0.0,0.0,0.0,0.0,0.0,0.0,0.0,0.0,0.0,0.0,0.0,0.0,0.0,0.0,0.0,0.0,0.0,0.0,0.0,0.0,0.0,0.0,0.0,0.0,0.0,0.0,0.0,0.0,0.0,0.0,0.0,0.0,0.0,0.0,0.0,0.0,0.0,0.0,0.0,0.0,0.0,0.0,0.0,0.0,0.0,0.0,0.0,0.0,0.0,0.0,0.0,0.0,0.0,0.0,0.0,0.0,0.0,0.0,0.0,0.0,0.0,0.0,0.0,0.0,0.0,0.0,0.0,0.0,0.0,0.0,0.0,0.0,0.0,0.0,0.0,0.0,0.0,0.0,0.0,0.0,0.0,0.0,0.0,2.5438,2.5499,2.5574,2.5687,2.5668,2.5667,0.0,0.0,0.0,0.0,0.0,0.0,0.0,0.0,0.0,0.0,0.0,0.0,0.0,0.0,0.0,0.0,0.0,0.0,0.0,0.0,0.0,0.0,0.0,0.0,0.0,0.0,0.0,0.0,0.0,0.0,0.0,0.0,0.0,0.0,0.0,0.0,0.0,0.0,0.0,0.0,0.0,0.0,0.0,0.0,0.0,0.0,0.0,0.0,0.0,0.0,0.0,0.0,0.0,0.0,0.0,0.0,0.0,0.0,0.0,0.0,0.0,0.0,0.0,0.0,0.0,0.0,0.0,0.0,0.0,0.0,0.0,0.0,0.0,0.0,0.0,0.0,0.0,0.0,0.0,0.0,0.0,0.0,0.0,0.0,0.0,0.0,0.0,0.0,0.0,0.0,0.0,0.0,0.0,0.0,0.0,0.0,0.0,0.0,0.0,0.0,0.0,0.0,0.0,0.0,0.0,0.0,0.0,0.0,0.0,2.5429,0.0,2.5605,0.0,2.5667,2.5658,0.0,0.0,0.0,0.0,0.0,0.0,0.0,0.0,0.0,0.0,0.0,0.0,0.0,0.0,0.0,0.0,0.0,0.0,0.0,0.0,0.0,0.0,0.0,0.0,0.0,0.0,0.0,0.0,0.0,0.0,0.0,0.0,0.0,0.0,0.0,0.0,0.0,0.0,0.0,0.0,0.0,0.0,0.0,0.0,0.0,0.0,0.0,0.0,0.0,0.0,0.0,0.0,0.0,0.0,0.0,0.0,0.0,0.0,0.0,0.0,0.0,0.0,0.0,0.0,0.0,0.0,0.0,0.0,0.0,0.0,0.0,0.0,0.0,0.0,0.0,0.0,0.0,0.0,0.0,0.0,0.0,0.0,0.0,0.0,0.0,0.0,0.0,0.0,0.0,0.0,0.0,0.0,0.0,0.0,0.0,0.0,0.0,0.0,0.0,0.0,0.0,0.0,0.0,0.0,0.0,0.0,0.0,0.0,2.5421,2.5489,2.5613,2.5703,2.5703,2.5703,2.5703,0.0,0.0,0.0,0.0,0.0,0.0,0.0,0.0,0.0,0.0,0.0,0.0,0.0,0.0,0.0,0.0,0.0,0.0,0.0,0.0,0.0,0.0,0.0,0.0,0.0,0.0,0.0,0.0,0.0,0.0,0.0,0.0,0.0,0.0,0.0,0.0,0.0,0.0,0.0,0.0,0.0,0.0,0.0,0.0,0.0,0.0,0.0,0.0,0.0,0.0,0.0,0.0,0.0,0.0,0.0,0.0,0.0,0.0,0.0,0.0,0.0,0.0,0.0,0.0,0.0,0.0,0.0,0.0,0.0,0.0,0.0,0.0,0.0,0.0,0.0,0.0,0.0,0.0,0.0,0.0,0.0,0.0,0.0,0.0,0.0,0.0,0.0,0.0,0.0,0.0,0.0,0.0,0.0,0.0,0.0,0.0,0.0,0.0,0.0,0.0,0.0,0.0,0.0,0.0,0.0,0.0,0.0,0.0,0.0,2.5489,2.5613,2.5703,2.5703,2.5703,2.5703,0.0,0.0,0.0,0.0,0.0,0.0,0.0,0.0,0.0,0.0,0.0,0.0,0.0,0.0,0.0,0.0,0.0,0.0,0.0,0.0,0.0,0.0,0.0,0.0,0.0,0.0,0.0,0.0,0.0,0.0,0.0,0.0,0.0,0.0,0.0,0.0,0.0,0.0,0.0,0.0,0.0,0.0,0.0,0.0,0.0,0.0,0.0,0.0,0.0,0.0,0.0,0.0,0.0,0.0,0.0,0.0,0.0,0.0,0.0,0.0,0.0,0.0,0.0,0.0,0.0,0.0,0.0,0.0,0.0,0.0,0.0,0.0,0.0,0.0,0.0,0.0,0.0,0.0,0.0,0.0,0.0,0.0,0.0,0.0,0.0,0.0,0.0,0.0,0.0,0.0,0.0,0.0,0.0,0.0,0.0,0.0,0.0,0.0,0.0,0.0,0.0,0.0,0.0,0.0,0.0,0.0,0.0,0.0,0.0,2.5525,2.5603,2.5664,2.5703,2.5703,2.5703,2.5703,0.0,0.0,0.0,0.0,0.0,0.0,0.0,0.0,0.0,0.0,0.0,0.0,0.0,0.0,0.0,0.0,0.0,0.0,0.0,0.0,0.0,0.0,0.0,0.0,0.0,0.0,0.0,0.0,0.0,0.0,0.0,0.0,0.0,0.0,0.0,0.0,0.0,0.0,0.0,0.0,0.0,0.0,0.0,0.0,0.0,0.0,0.0,0.0,0.0,0.0,0.0,0.0,0.0,0.0,0.0,0.0,0.0,0.0,0.0,0.0,0.0,0.0,0.0,0.0,0.0,0.0,0.0,0.0,0.0,0.0,0.0,0.0,0.0,0.0,0.0,0.0,0.0,0.0,0.0,0.0,0.0,0.0,0.0,0.0,0.0,0.0,0.0,0.0,0.0,0.0,0.0,0.0,0.0,0.0,0.0,0.0,0.0,0.0,0.0,0.0,0.0,0.0,0.0,0.0,0.0,0.0,0.0,0.0,2.5582,2.5613,2.5625,2.5703,2.5703,2.5703,0.0,0.0,0.0,0.0,0.0,0.0,0.0,0.0,0.0,0.0,0.0,0.0,0.0,0.0,0.0,0.0,0.0,0.0,0.0,0.0,0.0,0.0,0.0,0.0,0.0,0.0,0.0,0.0,0.0,0.0,0.0,0.0,0.0,0.0,0.0,0.0,0.0,0.0,0.0,0.0,0.0,0.0,0.0,0.0,0.0,0.0,0.0,0.0,0.0,0.0,0.0,0.0,0.0,0.0,0.0,0.0,0.0,0.0,0.0,0.0,0.0,0.0,0.0,0.0,0.0,0.0,0.0,0.0,0.0,0.0,0.0,0.0,0.0,0.0,0.0,0.0,0.0,0.0,0.0,0.0,0.0,0.0,0.0,0.0,0.0,0.0,0.0,0.0,0.0,0.0,0.0,0.0,0.0,0.0,0.0,0.0,0.0,0.0,0.0,0.0,0.0,0.0,0.0,0.0,0.0,0.0,0.0,0.0,0.0,2.6391,2.5846,2.5562,2.5703,2.5703,2.5703,0.0,0.0,0.0,0.0,0.0,0.0,0.0,0.0,0.0,0.0,0.0,0.0,0.0,0.0,0.0,0.0,0.0,0.0,0.0,0.0,0.0,0.0,0.0,0.0,0.0,0.0,0.0,0.0,0.0,0.0,0.0,0.0,0.0,0.0,0.0,0.0,0.0,0.0,0.0,0.0,0.0,0.0,0.0,0.0,0.0,0.0,0.0,0.0,0.0,0.0,0.0,0.0,0.0,0.0,0.0,0.0,0.0,0.0,0.0,0.0,0.0,0.0,0.0,0.0,0.0,0.0,0.0,0.0,0.0,0.0,0.0,0.0,0.0,0.0,0.0,0.0,0.0,0.0,0.0,0.0,0.0,0.0,0.0,0.0,0.0,0.0,0.0,0.0,0.0,0.0,0.0,0.0,0.0,0.0,0.0,0.0,0.0,0.0,0.0,0.0,0.0,0.0,0.0,0.0,0.0,0.0,0.0,0.0,2.5784,2.6776,2.5919,2.558,2.5703,2.6055,2.625,0.0,0.0,0.0,0.0,0.0,0.0,0.0,0.0,0.0,0.0,0.0,0.0,0.0,0.0,0.0,0.0,0.0,0.0,0.0,0.0,0.0,0.0,0.0,0.0,0.0,0.0,0.0,0.0,0.0,0.0,0.0,0.0,0.0,0.0,0.0,0.0,0.0,0.0,0.0,0.0,0.0,0.0,0.0,0.0,0.0,0.0,0.0,0.0,0.0,0.0,0.0,0.0,0.0,0.0,0.0,0.0,0.0,0.0,0.0,0.0,0.0,0.0,0.0,0.0,0.0,0.0,0.0,0.0,0.0,0.0,0.0,0.0,0.0,0.0,0.0,0.0,0.0,0.0,0.0,0.0,0.0,0.0,0.0,0.0,0.0,0.0,0.0,0.0,0.0,0.0,0.0,0.0,0.0,0.0,0.0,0.0,0.0,0.0,0.0,0.0,0.0,0.0,0.0,0.0,0.0,0.0,0.0,0.0,2.6053,2.7046,2.6236,2.5827,2.5973,2.6557,2.6912,0.0,0.0,0.0,0.0,0.0,0.0,0.0,0.0,0.0,0.0,0.0,0.0,0.0,0.0,0.0,0.0,0.0,0.0,0.0,0.0,0.0,0.0,0.0,0.0,0.0,0.0,0.0,0.0,0.0,0.0,0.0,0.0,0.0,0.0,0.0,0.0,0.0,0.0,0.0,0.0,0.0,0.0,0.0,0.0,0.0,0.0,0.0,0.0,0.0,0.0,0.0,0.0,0.0,0.0,0.0,0.0,0.0,0.0,0.0,0.0,0.0,0.0,0.0,0.0,0.0,0.0,0.0,0.0,0.0,0.0,0.0,0.0,0.0,0.0,0.0,0.0,0.0,0.0,0.0,0.0,0.0,0.0,0.0,0.0,0.0,0.0,0.0,0.0,0.0,0.0,0.0,0.0,0.0,0.0,0.0,0.0,0.0,0.0,0.0,0.0,0.0,0.0,0.0,0.0,0.0,0.0,0.0,0.0,2.7785,2.8741,2.7951,2.7578,2.7661,2.6528,2.6257,0.0,0.0,0.0,0.0,0.0,0.0,0.0,0.0,0.0,0.0,0.0,0.0,0.0,0.0,0.0,0.0,0.0,0.0,0.0,0.0,0.0,0.0,0.0,0.0,0.0,0.0,0.0,0.0,0.0,0.0,0.0,0.0,0.0,0.0,0.0,0.0,0.0,0.0,0.0,0.0,0.0,0.0,0.0,0.0,0.0,0.0,0.0,0.0,3.0379,0.0,0.0,0.0,0.0,0.0,0.0,0.0,0.0,0.0,0.0,0.0,0.0,0.0,0.0,0.0,0.0,0.0,0.0,0.0,0.0,0.0,0.0,0.0,0.0,0.0,0.0,0.0,0.0,0.0,0.0,0.0,0.0,0.0,0.0,0.0,0.0,0.0,0.0,0.0,0.0,0.0,0.0,0.0,0.0,0.0,0.0,0.0,0.0,0.0,0.0,0.0,0.0,0.0,0.0,0.0,0.0,0.0,0.0,0.0,2.7967,2.9209,2.8099,2.7733,2.8137,2.7259,2.7005,0.0,0.0,0.0,0.0,0.0,0.0,0.0,0.0,0.0,0.0,0.0,0.0,0.0,0.0,0.0,0.0,0.0,0.0,0.0,0.0,0.0,0.0,0.0,0.0,0.0,0.0,0.0,0.0,0.0,0.0,0.0,0.0,0.0,0.0,0.0,0.0,0.0,0.0,0.0,0.0,0.0,0.0,0.0,0.0,0.0,0.0,0.0,0.0,0.0,0.0,0.0,0.0,0.0,0.0,0.0,0.0,0.0,0.0,0.0,0.0,0.0,0.0,0.0,0.0,0.0,0.0,0.0,0.0,0.0,0.0,0.0,0.0,0.0,0.0,0.0,0.0,0.0,0.0,0.0,0.0,0.0,0.0,0.0,0.0,0.0,0.0,0.0,0.0,0.0,0.0,0.0,0.0,0.0,0.0,0.0,0.0,0.0,0.0,0.0,0.0,0.0,0.0,0.0,0.0,0.0,0.0,0.0,2.7351,2.7802,2.934,2.8124,2.7773,2.8538,2.8384,2.828,2.827,0.0,0.0,0.0,0.0,0.0,0.0,0.0,0.0,0.0,0.0,0.0,0.0,0.0,0.0,0.0,0.0,0.0,0.0,0.0,0.0,0.0,0.0,0.0,0.0,0.0,0.0,0.0,0.0,0.0,0.0,0.0,0.0,0.0,0.0,0.0,0.0,0.0,0.0,3.0859,3.0704,0.0,0.0,0.0,0.0,0.0,0.0,0.0,0.0,2.9209,0.0,0.0,0.0,0.0,0.0,0.0,0.0,0.0,0.0,0.0,0.0,0.0,0.0,0.0,0.0,0.0,0.0,0.0,0.0,0.0,0.0,0.0,0.0,0.0,0.0,0.0,0.0,0.0,0.0,0.0,0.0,0.0,0.0,0.0,0.0,0.0,0.0,0.0,0.0,0.0,0.0,0.0,0.0,0.0,0.0,0.0,0.0,0.0,0.0,0.0,0.0,0.0,0.0,0.0,0.0,0.0,2.8852,2.8775,2.922,3.0342,3.0118,3.0068,3.0205,2.9564,2.9098,2.8951,0.0,0.0,0.0,0.0,0.0,0.0,0.0,0.0,0.0,0.0,0.0,0.0,0.0,0.0,0.0,0.0,0.0,0.0,0.0,0.0,0.0,0.0,0.0,0.0,0.0,0.0,0.0,0.0,0.0,0.0,0.0,0.0,0.0,0.0,0.0,0.0,0.0,0.0,0.0,3.062,3.0583,0.0,0.0,0.0,0.0,0.0,0.0,0.0,0.0,2.9132,0.0,0.0,0.0,0.0,0.0,0.0,0.0,0.0,0.0,0.0,0.0,0.0,0.0,0.0,0.0,0.0,0.0,0.0,0.0,0.0,0.0,0.0,0.0,0.0,0.0,0.0,0.0,0.0,0.0,0.0,0.0,0.0,0.0,0.0,0.0,0.0,0.0,0.0,0.0,0.0,0.0,0.0,0.0,0.0,0.0,0.0,0.0,0.0,0.0,0.0,0.0,0.0,0.0,0.0,0.0,2.8418,2.8771,2.9473,3.0552,3.0203,3.0185,3.0592,3.0221,2.9725,0.0,0.0,0.0,0.0,0.0,0.0,0.0,0.0,0.0,0.0,0.0,0.0,0.0,0.0,0.0,0.0,0.0,0.0,0.0,0.0,0.0,0.0,0.0,0.0,0.0,0.0,0.0,0.0,0.0,0.0,0.0,0.0,0.0,0.0,0.0,0.0,0.0,0.0,0.0,0.0,3.0625,3.0567,3.0513,0.0,0.0,0.0,0.0,0.0,0.0,2.9121,2.9121,0.0,0.0,0.0,0.0,0.0,0.0,0.0,0.0,0.0,0.0,0.0,0.0,0.0,0.0,0.0,0.0,0.0,0.0,0.0,0.0,0.0,0.0,0.0,0.0,0.0,0.0,0.0,0.0,0.0,0.0,0.0,0.0,0.0,0.0,0.0,0.0,0.0,0.0,0.0,0.0,0.0,0.0,0.0,0.0,0.0,0.0,0.0,0.0,0.0,0.0,0.0,0.0,0.0,0.0,0.0,2.7918,2.853,2.9411,3.0518,2.997,2.9949,3.0594,3.0607,3.0121,0.0,0.0,0.0,0.0,0.0,0.0,0.0,0.0,0.0,0.0,0.0,0.0,0.0,0.0,0.0,0.0,0.0,0.0,0.0,0.0,0.0,0.0,0.0,0.0,0.0,0.0,0.0,0.0,0.0,0.0,0.0,0.0,0.0,0.0,0.0,0.0,0.0,0.0,0.0,0.0,0.0,3.0799,3.055,3.0502,0.0,0.0,0.0,0.0,2.8582,2.8929,0.0,0.0,0.0,0.0,0.0,0.0,0.0,0.0,0.0,0.0,0.0,0.0,0.0,0.0,0.0,0.0,0.0,0.0,0.0,0.0,0.0,0.0,0.0,0.0,0.0,0.0,0.0,0.0,0.0,0.0,0.0,0.0,0.0,0.0,0.0,0.0,0.0,0.0,0.0,0.0,0.0,0.0,0.0,0.0,0.0,0.0,0.0,0.0,0.0,0.0,0.0,0.0,0.0,0.0,0.0,0.0,2.789,2.8687,2.9571,3.0518,3.049,3.0537,3.0663,3.0645,3.016,0.0,0.0,0.0,0.0,0.0,0.0,0.0,0.0,0.0,0.0,0.0,0.0,0.0,0.0,0.0,0.0,0.0,0.0,0.0,0.0,0.0,0.0,0.0,0.0,0.0,0.0,0.0,0.0,0.0,0.0,0.0,0.0,0.0,0.0,0.0,0.0,0.0,0.0,0.0,0.0,0.0,3.1475,3.0697,3.055,3.0467,0.0,0.0,3.0352,3.0148,3.0186,0.0,0.0,0.0,0.0,0.0,0.0,0.0,0.0,0.0,0.0,0.0,0.0,0.0,0.0,0.0,0.0,0.0,0.0,0.0,0.0,0.0,0.0,0.0,0.0,0.0,0.0,0.0,0.0,0.0,0.0,0.0,0.0,0.0,0.0,0.0,0.0,0.0,0.0,0.0,0.0,0.0,0.0,0.0,0.0,0.0,0.0,0.0,0.0,0.0,0.0,0.0,0.0,0.0,0.0,0.0,2.7378,2.7928,2.9027,2.9947,3.0595,3.0607,3.065,3.0703,3.0625,3.0139,0.0,0.0,0.0,0.0,0.0,0.0,0.0,0.0,0.0,0.0,0.0,0.0,0.0,0.0,0.0,0.0,0.0,0.0,0.0,0.0,0.0,0.0,0.0,0.0,0.0,0.0,0.0,0.0,0.0,0.0,0.0,0.0,0.0,0.0,0.0,0.0,0.0,0.0,0.0,0.0,0.0,0.0,3.0645,3.0576,0.0,0.0,0.0,3.0225,2.9737,0.0,0.0,0.0,0.0,0.0,0.0,0.0,0.0,0.0,0.0,0.0,0.0,0.0,0.0,0.0,0.0,0.0,0.0,0.0,0.0,0.0,0.0,0.0,0.0,0.0,0.0,0.0,0.0,0.0,0.0,0.0,0.0,0.0,0.0,0.0,0.0,0.0,0.0,0.0,0.0,0.0,0.0,0.0,0.0,0.0,0.0,0.0,0.0,0.0,0.0,0.0,0.0,0.0,0.0,0.0,0.0,0.0,2.8236,2.9653,3.0688,3.1222,3.1041,3.0962,3.1055,3.0742,0.0,0.0,0.0,0.0,0.0,0.0,0.0,0.0,0.0,0.0,0.0,0.0,0.0,0.0,0.0,0.0,0.0,0.0,0.0,0.0,0.0,0.0,0.0,0.0,0.0,0.0,0.0,2.3631,0.0,0.0,0.0,0.0,0.0,0.0,0.0,0.0,0.0,0.0,0.0,0.0,0.0,0.0,3.122,3.1198,3.1018,3.0891,0.0,0.0,3.0198,2.9506,3.0006,3.0044,0.0,0.0,0.0,0.0,0.0,0.0,0.0,0.0,0.0,0.0,0.0,0.0,0.0,0.0,0.0,0.0,0.0,0.0,0.0,0.0,0.0,0.0,0.0,0.0,0.0,0.0,0.0,0.0,0.0,0.0,0.0,0.0,0.0,0.0,0.0,0.0,0.0,0.0,0.0,0.0,0.0,0.0,0.0,0.0,0.0,0.0,0.0,0.0,0.0,0.0,0.0,0.0,0.0,0.0,0.0,2.9044,3.0725,3.2018,3.2926,3.2221,3.1902,3.207,3.1133,2.9842,0.0,0.0,0.0,0.0,0.0,0.0,0.0,0.0,0.0,0.0,0.0,0.0,0.0,0.0,0.0,0.0,0.0,0.0,0.0,0.0,0.0,0.0,0.0,0.0,0.0,0.0,0.0,0.0,0.0,0.0,0.0,0.0,0.0,0.0,0.0,0.0,0.0,0.0,0.0,0.0,0.0,3.2844,3.2817,3.2184,3.1686,0.0,3.0929,3.0379,3.034,3.0429,2.9944,2.8245,0.0,0.0,0.0,0.0,0.0,0.0,0.0,0.0,0.0,0.0,0.0,0.0,0.0,0.0,0.0,0.0,0.0,0.0,0.0,0.0,0.0,0.0,0.0,0.0,0.0,0.0,0.0,0.0,0.0,0.0,0.0,0.0,0.0,0.0,0.0,0.0,0.0,0.0,0.0,0.0,0.0,0.0,0.0,0.0,0.0,0.0,0.0,0.0,0.0,0.0,0.0,0.0,0.0,2.8582,2.989,3.1133,3.2223,3.3121,3.2375,3.2052,3.2187,3.1174,2.9799,0.0,0.0,0.0,0.0,0.0,0.0,0.0,0.0,0.0,0.0,0.0,0.0,0.0,0.0,0.0,0.0,0.0,0.0,0.0,0.0,0.0,0.0,0.0,0.0,0.0,0.0,0.0,0.0,2.4899,2.5178,2.6072,0.0,0.0,0.0,0.0,0.0,0.0,0.0,0.0,0.0,0.0,3.2263,3.2921,3.2736,0.0,0.0,3.2186,3.1775,3.134,3.1263,3.0905,2.974,2.979,0.0,0.0,0.0,0.0,0.0,0.0,0.0,0.0,0.0,0.0,0.0,0.0,0.0,0.0,0.0,0.0,0.0,0.0,0.0,0.0,0.0,0.0,0.0,0.0,0.0,0.0,0.0,0.0,0.0,0.0,0.0,0.0,0.0,0.0,0.0,0.0,0.0,0.0,0.0,0.0,0.0,0.0,0.0,0.0,0.0,0.0,0.0,0.0,0.0,0.0,0.0,0.0,2.9083,3.0763,3.1941,3.3003,3.3931,3.3195,3.2718,3.2547,3.1534,3.0094,0.0,0.0,0.0,0.0,0.0,0.0,0.0,0.0,0.0,0.0,0.0,0.0,0.0,0.0,0.0,0.0,0.0,0.0,0.0,0.0,0.0,0.0,0.0,0.0,0.0,0.0,0.0,0.0,2.537,2.5592,2.6256,0.0,0.0,0.0,0.0,0.0,0.0,0.0,0.0,0.0,0.0,3.2478,3.3478,3.3467,3.3365,3.3365,3.3109,3.2737,3.2225,3.2193,3.1911,3.11,0.0,0.0,0.0,0.0,0.0,0.0,0.0,0.0,0.0,0.0,0.0,0.0,0.0,0.0,0.0,0.0,0.0,0.0,0.0,0.0,0.0,0.0,0.0,0.0,0.0,0.0,0.0,2.0625,0.0,0.0,2.0664,0.0,0.0,0.0,0.0,0.0,0.0,0.0,0.0,0.0,0.0,0.0,0.0,0.0,0.0,0.0,0.0,0.0,0.0,0.0,0.0,0.0,0.0,2.9929,3.166,3.3327,3.4665,3.5546,3.4925,3.4125,3.3372,3.2413,3.0694,2.817,0.0,0.0,0.0,0.0,0.0,0.0,0.0,0.0,0.0,0.0,0.0,0.0,0.0,0.0,0.0,0.0,0.0,0.0,0.0,0.0,0.0,0.0,0.0,0.0,0.0,0.0,2.5444,2.5405,2.5446,0.0,0.0,0.0,0.0,0.0,0.0,0.0,0.0,0.0,0.0,3.3086,3.4068,3.4903,3.4532,3.416,3.4199,3.3468,3.2929,3.2891,3.3024,3.2849,0.0,0.0,0.0,0.0,0.0,0.0,0.0,0.0,0.0,0.0,0.0,0.0,0.0,0.0,0.0,0.0,0.0,0.0,0.0,0.0,0.0,0.0,0.0,0.0,0.0,0.0,0.0,2.1484,2.1445,0.0,0.0,0.0,0.0,0.0,0.0,0.0,0.0,0.0,0.0,0.0,2.4271,2.5215,0.0,0.0,0.0,0.0,0.0,0.0,0.0,0.0,0.0,0.0,0.0,0.0,3.0198,3.2429,3.3763,3.4842,3.5645,3.5032,3.4256,3.341,3.2415,3.0681,2.8104,0.0,0.0,0.0,0.0,0.0,0.0,0.0,0.0,0.0,0.0,0.0,0.0,0.0,0.0,0.0,0.0,0.0,0.0,0.0,0.0,0.0,0.0,0.0,0.0,0.0,2.6246,0.0,0.0,0.0,0.0,0.0,0.0,0.0,0.0,0.0,0.0,0.0,3.1429,3.3081,3.3414,3.4006,3.5182,3.5199,3.5045,0.0,0.0,0.0,0.0,0.0,0.0,0.0,0.0,0.0,0.0,0.0,0.0,0.0,0.0,3.3515,3.1737,3.0963,3.0944,3.2155,0.0,0.0,0.0,0.0,0.0,0.0,0.0,0.0,0.0,0.0,0.0,0.0,0.0,0.0,2.207,0.0,2.2031,0.0,0.0,0.0,0.0,0.0,0.0,0.0,0.0,2.4716,2.4684,2.4652,2.5309,2.5265,0.0,2.5389,2.5852,0.0,0.0,0.0,0.0,0.0,0.0,0.0,0.0,3.0968,3.2852,3.4263,3.519,3.5645,3.5335,3.4716,3.3841,3.2329,3.0402,2.8027,2.719,2.6234,0.0,0.0,0.0,0.0,0.0,0.0,0.0,0.0,0.0,0.0,0.0,0.0,0.0,0.0,0.0,0.0,0.0,0.0,0.0,0.0,0.0,0.0,0.0,2.6179,0.0,0.0,0.0,0.0,0.0,0.0,0.0,0.0,0.0,3.0959,3.1053,3.1747,3.3696,3.4127,3.4767,3.6041,0.0,0.0,0.0,0.0,0.0,0.0,0.0,3.4429,3.4241,3.3645,3.3269,3.3401,3.3946,3.4323,3.4074,0.0,0.0,3.2542,3.1618,3.1745,3.3504,3.3938,3.4315,3.5296,3.6071,3.6308,0.0,0.0,0.0,0.0,0.0,0.0,0.0,0.0,2.2031,2.2461,0.0,2.2344,0.0,0.0,0.0,0.0,0.0,2.5168,0.0,0.0,2.5451,2.5466,2.539,2.5505,2.5553,2.5527,2.5654,2.6112,2.6798,2.6051,0.0,0.0,0.0,0.0,0.0,0.0,3.2109,3.2955,3.4737,3.5709,3.5723,3.5882,3.5537,3.4586,3.2116,2.9902,2.8044,2.718,2.597,2.4379,2.5143,0.0,0.0,0.0,0.0,0.0,0.0,0.0,0.0,0.0,0.0,0.0,0.0,0.0,0.0,0.0,0.0,0.0,0.0,0.0,0.0,2.5351,0.0,0.0,0.0,0.0,0.0,0.0,0.0,0.0,0.0,0.0,3.0649,3.1311,3.2418,3.4093,0.0,0.0,0.0,0.0,3.7969,3.7969,3.7969,3.7738,3.7031,3.6929,3.6634,3.5843,0.0,0.0,3.4074,3.4759,3.5115,3.4066,3.5183,3.627,3.6174,3.4661,3.4275,3.6459,3.6133,3.6087,3.7492,3.8109,3.8339,2.1531,0.0,0.0,0.0,0.0,2.1797,2.2578,2.3672,2.3711,2.3828,2.4023,2.3789,0.0,0.0,0.0,0.0,0.0,0.0,2.5466,2.5451,2.5418,2.5428,2.539,2.5505,2.5543,2.5584,2.5673,2.6105,2.6808,2.6592,2.6518,2.6715,0.0,0.0,0.0,0.0,3.2125,3.354,3.4937,3.5631,3.5723,3.5843,3.5185,3.3685,3.2271,3.0683,2.8813,2.8027,2.7133,2.6047,2.5746,0.0,0.0,0.0,0.0,0.0,0.0,0.0,0.0,0.0,0.0,0.0,0.0,0.0,0.0,0.0,0.0,0.0,0.0,0.0,2.5313,2.5313,2.5572,0.0,0.0,0.0,0.0,0.0,0.0,0.0,0.0,0.0,3.1465,3.1801,3.2612,0.0,0.0,3.6174,3.6842,3.7555,3.8007,3.8007,3.8007,0.0,3.7892,3.6837,3.6174,3.6691,3.6136,3.5465,3.5078,3.5107,3.5186,3.5032,3.5547,3.6005,3.6003,3.5942,3.6124,3.7135,3.7082,3.7247,3.8206,3.8633,3.8836,2.232,2.1425,2.1128,2.1562,2.2383,2.2383,2.3164,2.4414,2.4414,2.4609,2.4883,2.4531,2.4121,2.3602,2.3602,0.0,0.0,0.0,2.5428,2.5351,2.5351,2.539,2.5399,2.5451,2.5558,2.5611,2.6016,2.6585,2.7323,2.7644,2.7723,2.7558,0.0,0.0,2.9564,3.1074,3.247,3.3789,3.4985,3.5649,3.5708,3.5868,3.5222,3.3751,3.2861,3.1542,2.9698,2.8863,2.8065,2.7267,2.6488,2.6103,0.0,0.0,0.0,0.0,0.0,0.0,0.0,0.0,0.0,0.0,0.0,2.5632,2.5591,0.0,0.0,0.0,2.5713,2.5861,2.5823,2.614,0.0,0.0,0.0,0.0,0.0,0.0,0.0,3.0588,3.0721,3.103,3.187,3.2538,3.3643,3.544,3.6384,3.7203,3.8101,0.0,3.9008,3.8969,3.9008,3.8931,3.8738,3.7537,3.6598,3.6562,3.6021,3.5507,3.5378,3.5299,3.5408,3.5758,3.6121,3.6465,3.6804,3.7206,3.7442,3.75,3.7507,3.7764,3.8542,3.8689,3.8946,2.3054,2.3052,2.2296,2.25,2.3281,2.3242,2.3711,2.4492,2.4492,2.4961,2.5625,2.4844,2.4479,2.4466,2.4447,0.0,2.539,2.539,2.5351,2.5313,2.5313,2.5351,2.5399,2.5499,2.5538,2.5618,2.6529,2.7366,2.8112,2.8907,2.9155,2.8879,2.8955,2.9596,3.0866,3.2058,3.3048,3.387,3.5023,3.5636,3.5714,3.5875,3.5535,3.4536,3.3645,3.2362,3.0583,2.9583,2.8786,2.8104,2.7267,2.6837,2.6832,0.0,0.0,0.0,0.0,0.0,0.0,0.0,0.0,0.0,0.0,0.0,0.0,0.0,0.0,0.0,2.6207,0.0,2.6728,2.7441,0.0,0.0,0.0,2.7926,2.8774,2.9194,2.9539,2.9917,0.0,0.0,3.2112,3.3505,3.5182,3.6971,3.7887,3.8854,4.02,4.0354,4.0508,4.0392,4.0469,4.0239,3.9608,3.8749,3.7622,3.6125,3.5699,3.5699,3.5416,3.5595,3.5921,3.6408,3.6861,3.7408,3.8162,3.842,3.8499,3.7764,3.7624,3.7845,3.8652,3.8872,3.9129,2.4764,2.4736,2.3975,2.3772,2.4062,2.4062,2.4609,2.5352,2.5391,2.5508,2.5664,2.5469,2.5332,2.5234,2.5232,2.5264,2.5351,2.5313,2.5313,2.5313,2.5313,2.5351,2.5399,2.546,2.5563,2.5642,2.656,2.7366,2.8112,2.8907,2.9358,2.9515,3.0086,3.0452,3.0628,3.2355,3.3658,3.4472,3.5178,3.5596,3.5693,3.5913,3.5546,3.4601,3.3671,3.2646,3.1492,2.994,2.9017,2.8824,2.7505,2.6734,2.6734,2.5221,0.0,0.0,0.0,0.0,0.0,0.0,0.0,0.0,0.0,2.6326,2.5589,0.0,2.5608,0.0,2.6809,2.7382,2.7572,2.778,0.0,0.0,2.8639,2.8738,2.9406,2.9945,3.0383,3.0559,3.1426,3.2241,3.284,3.4315,3.5764,3.7021,3.7894,3.8654,3.9492,4.0123,4.0508,4.0508,4.0508,4.0469,4.0277,3.9644,3.8452,3.6727,3.6972,3.7151,3.644,3.6916,3.7454,3.7586,3.8038,3.8343,3.8335,3.8651,3.8822,3.8523,3.8395,3.8652,3.946,3.9595,4.0031,2.5351,2.5351,2.4947,2.4788,2.4849,2.4524,2.4883,2.5703,2.5703,2.5703,2.5703,2.5703,2.5611,2.5522,2.5498,2.5428,2.5313,2.5313,2.5313,2.5313,2.5313,2.5534,2.5967,2.6033,2.6325,2.6797,2.7656,2.8305,2.8662,2.9458,2.9956,3.0243,3.1016,3.1484,3.1644,3.2821,3.3827,3.4675,3.5299,3.5631,3.5723,3.5882,3.5547,3.457,3.3667,3.2733,3.1826,3.0429,2.9698,2.966,2.8148,2.7421,2.7727,2.5951,2.5275,0.0,0.0,0.0,0.0,0.0,0.0,0.0,0.0,0.0,0.0,0.0,2.6271,2.696,2.7676,2.8191,2.8418,2.8779,2.919,2.9625,2.9391,2.9471,3.0167,3.0665,3.1029,3.1317,3.219,3.3024,3.3692,3.4987,3.6395,3.754,3.8439,3.9169,3.9723,4.0239,4.0508,4.0508,4.0508,4.0369,4.0138,3.9677,3.8922,3.7637,3.7665,3.7819,3.7363,3.7655,3.8093,3.8493,3.8591,3.866,3.8826,3.8861,3.8884,3.878,3.8982,3.9386,3.979,3.99,4.0377,2.5428,2.5428,2.5466,2.5543,2.5543,2.4849,2.5,2.5703,2.5703,2.5781,2.5859,2.5859,2.5845,2.5834,2.5807,2.5774,2.562,2.5649,2.5649,2.561,2.5649,2.6072,2.6841,2.6949,2.7401,2.82,2.9062,2.9472,2.9447,3.0258,3.0825,3.1127,3.1939,3.2558,3.3075,3.3446,3.4018,3.4774,3.5369,3.5709,3.5723,3.5882,3.5586,3.4726,3.373,3.2818,3.2006,3.0991,3.0425,3.0467,2.9021,2.8483,2.9132,2.7131,2.6273,0.0,2.6405,0.0,0.0,0.0,0.0,0.0,0.0,0.0,0.0,2.7336,2.7248,2.7972,2.8549,2.9021,2.9236,3.0044,3.0583,3.0571,3.0243,3.0318,3.0998,3.137,3.166,3.2025,3.3104,3.3972,3.446,3.5564,3.6878,3.814,3.9088,3.9784,4.0354,4.0469,4.0508,4.0508,4.0508,4.0315,3.9777,3.9546,3.92,3.8392,3.8344,3.8267,3.8193,3.8293,3.8577,3.9192,3.8976,3.8773,3.9551,3.9229,3.8934,3.9001,3.9559,4.0047,4.012,4.0272,4.0683,2.5466,2.5466,2.5543,2.5582,2.5591,2.5476,2.5547,2.5703,2.5703,2.6094,2.6758,2.6758,2.7093,2.7607,2.7623,2.7516,2.7428,2.739,2.739,2.739,2.739,2.7505,2.7659,2.7747,2.7864,2.8079,2.8932,2.9675,3.0271,3.1121,3.1799,3.2281,3.3097,3.3393,3.3377,0.0,0.0,0.0,3.558,3.5709,3.5723,3.5882,3.5898,3.5703,3.4146,0.0,3.2964,3.1426,3.0574,3.0556,2.9636,0.0,0.0,0.0,0.0,0.0,0.0,0.0,0.0,0.0,0.0,0.0,2.8076,2.7595,2.7945,2.8041,2.8245,2.8592,2.9186,2.9688,3.0124,3.0941,3.1453,3.148,3.1613,3.1807,3.1972,3.2191,3.2397,3.2491,3.324,3.411,3.484,3.5899,3.708,3.8256,3.9326,4.0076,4.0431,4.0508,4.0508,4.0508,4.0508,4.0431,4.0315,4.0239,3.9931,3.9339,3.9623,3.97,3.9246,3.9569,3.9992,4.0239,3.9776,3.946,3.9941,3.9799,3.9737,3.9962,4.0449,4.0891,4.0891,4.1401,4.2132,2.555,0.0,2.6063,2.6256,0.0,2.6766,2.6992,2.6953,2.6523,2.6836,2.7656,2.7656,2.7835,2.8106,2.8097,2.8022,2.789,2.789,2.789,2.789,2.789,2.8082,2.8506,2.8544,2.8828,2.9255,3.0101,3.0715,3.1174,3.1956,3.2613,3.3189,3.3604,3.3954,3.4282,3.5331,3.5752,3.5493,3.5622,3.5709,3.5723,3.5882,3.5781,3.5312,3.441,0.0,0.0,0.0,0.0,0.0,0.0,0.0,0.0,0.0,0.0,2.9407,2.955,2.9521,2.9341,2.9323,2.9471,2.9713,2.9763,2.9394,2.8492,2.8799,2.9136,2.9375,2.9991,3.0525,3.0982,3.1773,3.2274,3.2314,3.2226,3.235,3.2676,3.2686,3.2742,3.322,3.3917,3.4724,3.5532,3.6581,3.7692,3.8786,3.9622,4.02,4.0431,4.0508,4.0508,4.0508,4.0508,4.0508,4.0508,4.0508,4.0392,4.0031,4.0239,4.0315,3.9954,4.02,4.0508,4.0476,4.0309,4.0268,4.039,4.0476,4.0551,4.0708,4.1204,4.1662,4.1699,4.2022,4.2533,2.5974,2.5909,2.6776,2.7171,2.728,2.7988,2.8398,2.8476,0.0,0.0,0.0,2.8555,2.8537,2.8534,2.854,2.8461,2.8352,2.8352,2.8352,2.8352,2.8313,2.8698,2.9313,2.9402,2.9852,3.0737,3.1453,3.1941,3.2263,3.2839,3.3455,3.4056,3.4127,3.4547,3.5373,3.6443,3.6622,3.5968,3.6098,3.6145,3.6151,3.6194,3.5859,3.5078,3.4766,3.4258,3.3594,3.3328,3.2934,3.2265,3.1568,3.1169,3.1091,3.0379,3.0255,3.0878,3.109,3.1055,3.0871,3.0979,3.0979,3.0852,3.1506,3.1124,2.9379,2.9823,3.0284,3.0456,3.0966,3.1463,3.1852,3.262,3.3121,3.3134,3.2901,3.3012,3.3508,3.3191,3.3151,3.3733,3.4468,3.532,3.6156,3.7264,3.8386,3.9383,3.9891,4.0239,4.0431,4.0508,4.0508,4.0508,4.0508,4.0508,4.0508,4.0508,4.0546,4.0716,4.0754,4.0793,4.0931,4.0969,4.0969,4.1123,4.1051,4.1047,4.1127,4.1212,4.1323,4.136,4.1952,4.2506,4.2506,4.2647,4.2938,2.7461,2.6867,2.7726,2.8118,2.8157,2.8242,2.875,2.9336,2.8516,2.8633,2.9414,2.9414,2.9747,3.0263,3.024,3.0148,3.0044,3.0044,3.0033,3.0044,3.0044,3.0121,3.0237,3.0237,3.0698,3.1506,3.1646,3.2454,3.3737,3.3942,3.4452,3.5144,3.5273,3.5643,3.6488,3.7377,3.7777,3.7661,3.7858,3.792,3.7916,3.7407,3.707,3.6875,3.5469,3.4648,3.4531,3.3789,3.3319,3.3203,3.3085,3.3006,3.2969,3.2226,3.1867,3.1984,3.1992,3.1913,3.1742,3.2401,3.2748,3.2557,3.266,3.2211,3.1111,3.1714,3.2225,3.2241,3.2298,3.2476,3.275,3.3493,3.4007,3.4031,3.4403,3.4656,3.4513,3.4167,3.392,3.3923,3.4504,3.5385,3.6352,3.7514,3.8674,3.9458,4.0062,4.0469,4.0623,4.0508,4.0508,4.0508,4.0508,4.0508,4.0585,4.0508,4.0908,4.1501,4.1617,4.1848,4.2431,4.2508,4.2492,4.2662,4.2193,4.2002,4.2117,4.2202,4.2253,4.2464,4.2926,4.3238,4.3314,4.3823,4.4152,2.8086,2.7812,2.8633,2.8984,2.9062,2.9531,2.9922,3.0273,2.9883,2.9922,3.0273,3.0312,3.0413,3.0613,3.0598,3.0544,3.0379,3.0379,3.0379,3.0379,3.0379,3.066,3.1083,3.1095,3.1518,3.2352,3.2825,3.3441,3.4173,3.4686,3.5109,3.5532,3.5916,3.6339,3.6776,3.8007,3.87,3.87,3.846,3.8295,3.8305,3.811,3.7773,3.7305,3.6484,3.5859,3.543,3.5,3.4609,3.4141,3.4101,3.3906,3.3437,3.3047,3.2851,3.2851,3.2851,3.2767,3.2596,3.2878,3.2994,3.2929,3.334,3.3403,3.29,3.2684,3.26,3.2622,3.2978,3.3363,3.3622,3.4391,3.4891,3.4892,3.5045,3.504,3.4889,3.4473,3.4386,3.4857,3.5409,3.6178,3.7317,3.8377,3.924,3.9797,4.0272,4.0816,4.17,4.147,4.1008,4.0662,4.1239,4.1623,4.1354,4.1623,4.2024,4.2495,4.2502,4.2662,4.3052,4.3129,4.3038,4.2852,4.2731,4.2712,4.2725,4.2828,4.3,4.3115,4.3336,4.3605,4.4048,4.4781,4.5148,2.875,2.8672,2.9531,2.9883,2.9961,3.0625,3.0898,3.0898,3.0898,3.0898,3.0898,3.0859,3.0765,3.0613,3.0598,3.0506,3.0417,3.0379,3.0494,3.0698,3.0686,3.116,3.1891,3.1954,3.2377,3.3173,3.3889,3.4301,3.4558,3.5199,3.5622,3.5839,3.6594,3.7108,3.7315,3.8815,3.9546,3.9546,3.9099,3.889,3.885,3.8891,3.8555,3.7969,3.7461,3.6992,3.6328,3.6094,3.5703,3.5039,3.5,3.4687,3.4023,3.3789,3.3672,3.3711,3.3699,3.3712,3.375,3.3594,3.3478,3.3478,3.4095,3.4507,3.4416,3.3743,3.3272,3.331,3.3853,3.4259,3.4493,3.5059,3.5507,3.5507,3.5339,3.5172,3.5091,3.4851,3.4936,3.5803,3.6373,3.7229,3.8263,3.9186,3.9896,4.0426,4.0805,4.1668,4.2739,4.2585,4.2047,4.1623,4.2239,4.2739,4.2239,4.2585,4.3063,4.3265,4.3387,4.3547,4.3667,4.3726,4.3614,4.3445,4.3468,4.3491,4.3287,4.331,4.3419,4.3458,4.3642,4.4121,4.5148,4.5736,4.614,3.0156,2.9648,3.0391,3.0781,3.0781,3.0859,3.0898,3.0937,3.0937,3.0898,3.1016,3.0781,3.0726,3.0574,3.0549,3.0467,3.0417,3.0379,3.0852,3.1506,3.1583,3.2045,3.2737,3.2788,3.325,3.402,3.4198,3.4687,3.5353,3.5507,3.5892,3.6622,3.7469,3.8238,3.9046,3.9892,4.0392,4.0392,4.0523,4.0552,4.054,4.0059,3.9726,3.9648,3.8125,3.7266,3.7109,3.6406,3.5976,3.5898,3.5859,3.582,3.5664,3.5,3.4609,3.4609,3.4591,3.4802,3.5353,3.5339,3.5185,3.5262,3.5262,3.5315,3.5353,3.5262,3.521,3.5158,3.5235,3.5287,3.5391,3.5507,3.5584,3.5622,3.5622,3.5378,3.535,3.572,3.6065,3.5886,3.7272,3.8275,3.8606,3.9467,4.0501,4.1492,4.2155,4.2783,4.3316,4.3624,4.3662,4.3047,4.3124,4.3124,4.3008,4.3008,4.3564,4.4042,4.4196,4.4449,4.4855,4.5163,4.5281,4.4554,4.4608,4.4334,4.4177,4.4004,4.3569,4.3938,4.4342,4.5039,4.6397,4.6912,4.6948,3.0703,3.0391,3.0742,3.0898,3.0898,3.0898,3.1211,3.1641,3.168,3.1887,3.2298,3.2207,3.1601,3.0636,3.0513,3.0467,3.0417,3.0929,3.1352,3.1737,3.216,3.2852,3.3583,3.3686,3.4135,3.4891,3.4995,3.538,3.6188,3.6727,3.7151,3.7546,3.8339,3.8954,3.9354,4.0085,4.0508,4.0508,4.0716,4.081,4.0774,4.0723,4.043,3.9883,3.9219,3.832,3.7383,3.6953,3.6523,3.6055,3.6016,3.6016,3.6016,3.5664,3.5469,3.5469,3.5366,3.5416,3.5699,3.5584,3.5507,3.5507,3.5507,3.5507,3.5507,3.5507,3.5507,3.5507,3.5507,3.5507,3.5545,3.5944,3.6213,3.629,3.6661,3.693,3.6839,3.6955,3.7239,3.7809,3.8191,3.8774,3.9567,4.05,4.1492,4.236,4.2958,4.3457,4.4316,4.447,4.4393,4.4547,4.4586,4.4316,4.4008,4.4278,4.4641,4.4949,4.5064,4.5295,4.5432,4.5586,4.5475,4.5137,4.4838,4.4674,4.4618,4.4531,4.4305,4.4745,4.5516,4.636,4.6985,4.7463,4.7719,3.0898,3.0937,3.1109,3.1203,3.1203,3.1426,3.1909,3.2461,3.2495,3.2759,3.3288,3.3219,3.2467,3.1349,3.0968,3.0698,3.0533,3.1314,3.1852,3.2083,3.2891,3.3737,3.4507,3.4558,3.4866,3.5468,3.5699,3.6238,3.7046,3.7637,3.8099,3.843,3.8992,3.9415,3.9662,4.0239,4.0508,4.0508,4.0677,4.0784,4.0813,4.1035,4.0859,4.0312,4.0039,3.9297,3.8086,3.7773,3.7266,3.6406,3.6367,3.625,3.6016,3.6016,3.6016,3.5976,3.5818,3.5714,3.5713,3.5584,3.5507,3.5507,3.5507,3.5507,3.5507,3.5507,3.5507,3.5507,3.5699,3.5853,3.5905,3.6381,3.6766,3.7007,3.7647,3.7993,3.7939,3.7983,3.8367,3.9115,3.9088,3.9452,4.0674,4.1809,4.281,4.3321,4.3649,4.409,4.5201,4.5047,4.4893,4.547,4.5547,4.5316,4.4816,4.5047,4.5547,4.5586,4.5509,4.5473,4.5496,4.5476,4.5321,4.49,4.4749,4.4806,4.491,4.4949,4.5296,4.603,4.6691,4.7169,4.7463,4.794,4.8196,3.0898,3.1055,3.1661,3.1981,3.202,3.271,3.3111,3.3276,3.3176,3.3248,3.339,3.3186,3.2981,3.2788,3.2057,3.121,3.066,3.1429,3.2237,3.2891,3.3737,3.4584,3.543,3.5468,3.5468,3.5661,3.6252,3.7046,3.7909,3.8024,3.8424,3.92,3.9339,3.9685,4.0277,4.0431,4.0508,4.0508,4.0639,4.0733,4.0813,4.0955,4.1055,4.0976,4.0351,3.9883,3.9609,3.8984,3.8125,3.7266,3.7187,3.6836,3.6133,3.6016,3.6016,3.5976,3.5802,3.5727,3.5714,3.5661,3.5584,3.5584,3.5699,3.5584,3.5738,3.5661,3.5661,3.557,3.6213,3.6535,3.6766,3.6958,3.7238,3.7847,3.8024,3.8139,3.8101,3.8823,3.9185,3.9469,3.9961,4.0636,4.1617,4.3166,4.3866,4.4278,4.4876,4.5432,4.547,4.5509,4.5509,4.5547,4.5624,4.5586,4.5547,4.5509,4.5547,4.5547,4.5512,4.5515,4.5293,4.5092,4.4926,4.4912,4.5115,4.5282,4.5281,4.5642,4.6213,4.6764,4.7059,4.7426,4.7867,4.8122,4.8306,3.2502,3.2473,3.2723,3.2799,3.2812,3.3106,3.3499,3.4029,3.4015,3.4303,3.4712,3.4672,3.4326,3.3724,3.3455,3.2801,3.2122,3.2891,3.3468,3.3814,3.4622,3.5199,3.5468,3.5507,3.5815,3.6276,3.6559,3.743,3.8785,3.9323,3.9723,3.9969,4.0085,4.0239,4.0431,4.0508,4.0508,4.0508,4.0639,4.0714,4.0757,4.0925,4.1016,4.1055,4.0859,4.0469,3.9922,3.957,3.9023,3.8164,3.7617,3.7148,3.6836,3.6289,3.6016,3.5976,3.5813,3.5955,3.6433,3.6353,3.6531,3.7046,3.7084,3.7046,3.7007,3.6622,3.6507,3.693,3.6752,3.7112,3.8113,3.8368,3.8454,3.8785,3.9285,3.9515,3.9646,3.9892,4.0085,4.02,4.0777,4.147,4.2085,4.3272,4.4273,4.4376,4.503,4.5547,4.5586,4.5586,4.5701,4.5701,4.6086,4.6432,4.6432,4.5893,4.5586,4.5509,4.5491,4.5724,4.5642,4.5619,4.5531,4.5619,4.578,4.6071,4.62,4.6762,4.7352,4.7498,4.7756,4.7793,4.8233,4.8306,4.8306,3.3354,3.3307,3.3519,3.3594,3.3594,3.3838,3.4274,3.4814,3.4835,3.5123,3.5534,3.5584,3.5199,3.4699,3.4634,3.4326,3.3814,3.4083,3.4199,3.4314,3.5353,3.5892,3.5968,3.6199,3.6584,3.7123,3.742,3.8291,3.9569,4.0239,4.0469,4.0469,4.0508,4.0508,4.0508,4.0508,4.0508,4.0508,4.0585,4.0677,4.0714,4.0818,4.0952,4.1016,4.1094,4.0898,4.0351,4.0312,3.9922,3.9062,3.8437,3.8008,3.7695,3.7187,3.668,3.6484,3.6523,3.6672,3.696,3.7123,3.7416,3.7916,3.8007,3.8007,3.7969,3.7469,3.7469,3.7738,3.7868,3.8127,3.8999,3.9508,3.9685,3.9723,4.0162,4.0469,4.0508,4.0469,4.0623,4.1008,4.197,4.2547,4.2761,4.391,4.4603,4.4722,4.5453,4.597,4.6009,4.6278,4.6394,4.6432,4.6932,4.724,4.7278,4.6932,4.6719,4.6642,4.6317,4.6337,4.6221,4.6215,4.6173,4.6335,4.6557,4.6906,4.7353,4.794,4.8196,4.8306,4.8196,4.8122,4.8306,4.8306,4.8379,3.3341,3.3455,3.3978,3.4312,3.4389,3.5032,3.5468,3.5468,3.5443,3.5495,3.5584,3.5584,3.5545,3.543,3.557,3.5532,3.5315,3.4853,3.4545,3.4622,3.6007,3.6699,3.6776,3.7392,3.7829,3.8046,3.8845,3.9653,4.0354,4.0469,4.0508,4.0508,4.0508,4.0508,4.0508,4.0508,4.0508,4.0508,4.0508,4.0585,4.0677,4.0752,4.0878,4.1043,4.1016,4.1016,4.1094,4.1133,4.0742,4.0,3.9805,3.9453,3.8633,3.8398,3.8164,3.7539,3.793,3.7851,3.7356,3.7819,3.8131,3.8308,3.8131,3.8277,3.8315,3.8123,3.8084,3.8354,3.8715,3.9283,3.9422,3.9985,4.0392,4.0469,4.0469,4.0469,4.0508,4.0508,4.0854,4.1777,4.3085,4.4179,4.4449,4.5026,4.5603,4.5873,4.6376,4.6896,4.6934,4.7337,4.7894,4.7971,4.8009,4.8125,4.8125,4.8086,4.8123,4.8064,4.7643,4.7376,4.7049,4.6917,4.6691,4.6799,4.7093,4.7426,4.772,4.8233,4.8233,4.8306,4.8306,4.8453,4.8638,4.8675,4.8601,3.5008,3.4863,3.511,3.5185,3.5147,3.5378,3.5507,3.5545,3.5507,3.5507,3.5622,3.6098,3.6021,3.5892,3.6622,3.6892,3.6392,3.6584,3.6507,3.6199,3.7084,3.7584,3.7661,3.7892,3.833,3.896,3.9715,4.0215,4.0431,4.0508,4.0508,4.0508,4.0508,4.0508,4.0508,4.0508,4.0508,4.0508,4.0508,4.0777,4.1316,4.0985,4.1001,4.1567,4.125,4.1016,4.1055,4.1172,4.1055,4.0781,4.0195,3.9492,3.8828,3.8594,3.8476,3.8242,3.8266,3.8587,3.8789,3.8883,3.9185,3.9569,3.97,3.97,3.9623,3.92,3.9161,3.9469,3.9538,3.9461,4.0023,4.0331,4.0562,4.0508,4.0508,4.0546,4.07,4.1085,4.1777,4.2624,4.3662,4.4449,4.5175,4.5984,4.666,4.7122,4.7527,4.7722,4.778,4.8029,4.8086,4.8125,4.8471,4.9009,4.9009,4.9067,4.9181,4.8894,4.8433,4.8094,4.7806,4.7582,4.739,4.7349,4.7644,4.7939,4.8233,4.8416,4.8489,4.8489,4.8563,4.8785,4.9081,4.9191,4.9191,3.5738,3.5545,3.5545,3.5545,3.5507,3.5507,3.5685,3.593,3.5968,3.6122,3.6496,3.6972,3.6906,3.6724,3.757,3.77,3.7315,3.8084,3.82,3.7777,3.8161,3.8469,3.8546,3.8815,3.9176,3.9715,4.0254,4.0508,4.0508,4.0508,4.0508,4.0508,4.0816,4.0816,4.0662,4.1162,4.1354,4.1085,4.1316,4.1739,4.2024,4.1508,4.137,4.1822,4.1276,4.0937,4.1016,4.1094,4.1133,4.1133,4.0664,4.0117,3.9609,3.9609,3.9414,3.9141,3.9255,3.9431,3.9622,3.9727,3.9954,4.0431,4.0508,4.0469,4.0392,3.9969,4.0046,4.0292,4.0062,4.0077,4.0793,4.0985,4.1101,4.1463,4.12,4.1162,4.1431,4.22,4.2854,4.3662,4.4586,4.5411,4.61,4.6814,4.7489,4.8028,4.8394,4.8606,4.8664,4.8914,4.8952,4.9086,4.951,4.9856,4.9894,5.0026,5.0265,4.9733,4.9084,4.8718,4.8394,4.819,4.8011,4.7937,4.8086,4.8453,4.8746,4.8893,4.8967,4.8893,4.9077,4.9595,5.0039,5.0039,5.0037,3.5776,3.5647,3.5647,3.5776,3.5776,3.5776,3.6199,3.6699,3.6776,3.7175,3.7795,3.7987,3.7983,3.7963,3.8223,3.8315,3.8238,3.8969,3.9315,3.9238,3.9354,3.9354,3.9431,3.9931,4.0292,4.0562,4.0639,4.0716,4.0931,4.0947,4.0639,4.0931,4.153,4.153,4.1239,4.2316,4.2547,4.2047,4.2585,4.2986,4.3079,4.2332,4.2024,4.2194,4.1407,4.1042,4.1328,4.1406,4.1367,4.1289,4.1211,4.1094,4.1172,4.1211,4.0664,4.0,4.0587,4.0318,4.0015,4.0207,4.0508,4.0469,4.0508,4.0508,4.0469,4.0392,4.0431,4.07,4.0639,4.0947,4.1671,4.1886,4.2233,4.288,4.2354,4.2261,4.3047,4.3739,4.4162,4.4662,4.5855,4.6971,4.7045,4.7797,4.8163,4.8548,4.9048,4.9375,4.9567,4.9875,5.0471,5.0548,5.0356,5.0356,5.0317,5.0117,5.0275,5.0057,4.9494,4.9181,4.8846,4.8641,4.8416,4.8343,4.86,4.893,4.9187,4.937,4.9738,5.0031,5.0328,5.0738,5.0848,5.0885,5.0842,3.7416,3.7353,3.7353,3.7353,3.7353,3.7353,3.743,3.7661,3.7661,3.7815,3.8137,3.8705,3.8623,3.8178,3.93,3.9546,3.9277,3.9815,4.0162,4.0177,4.02,4.02,4.02,4.0392,4.0831,4.1347,4.1424,4.1793,4.2393,4.2271,4.231,4.2431,4.2585,4.2646,4.2585,4.2893,4.297,4.2816,4.297,4.3431,4.3794,4.3162,4.3124,4.353,4.2387,4.2039,4.2548,4.2802,4.2617,4.207,4.1484,4.1523,4.1992,4.1601,4.1172,4.0937,4.0799,4.0769,4.053,4.0469,4.0508,4.0508,4.0585,4.0508,4.0508,4.0508,4.0816,4.1239,4.1485,4.1825,4.2518,4.2794,4.3184,4.3684,4.3398,4.3244,4.3893,4.4162,4.4739,4.6009,4.6663,4.7489,4.8335,4.8854,4.9259,4.976,5.0067,5.0279,5.0279,5.0356,5.0702,5.0702,5.0625,5.0625,5.0586,5.0342,5.0199,5.0134,4.9806,4.9529,4.9176,4.8826,4.8526,4.8306,4.9114,4.9554,4.9774,4.9958,5.0472,5.1059,5.1059,5.121,5.1584,5.1695,5.1687,3.807,3.8007,3.8007,3.8007,3.8007,3.8007,3.82,3.8507,3.8546,3.8777,3.9084,3.9561,3.9508,3.9208,4.0085,4.0239,3.9931,4.0662,4.1008,4.1123,4.1431,4.12,4.0793,4.0793,4.1347,4.1786,4.2171,4.2618,4.2992,4.3085,4.3102,4.3124,4.3453,4.347,4.3085,4.3855,4.3932,4.3739,4.3932,4.4393,4.4757,4.4025,4.3855,4.403,4.3118,4.2733,4.3188,4.3461,4.3359,4.293,4.2539,4.2461,4.2812,4.2515,4.2164,4.2065,4.1636,4.13,4.1138,4.0831,4.07,4.0954,4.1046,4.1277,4.1546,4.1585,4.1893,4.2239,4.2332,4.2771,4.3481,4.3893,4.4512,4.5204,4.4956,4.4897,4.5355,4.547,4.6009,4.7048,4.7778,4.8202,4.9336,4.9644,5.0144,5.051,5.0548,5.0625,5.0625,5.0702,5.0779,5.0933,5.1164,5.1279,5.151,5.1387,5.136,5.1156,5.061,5.026,4.9785,4.937,4.926,4.9258,4.9774,5.0178,5.0508,5.0875,5.1426,5.1793,5.1683,5.183,5.2238,5.2316,5.2344,3.83,3.8238,3.8238,3.8238,3.8315,3.8315,3.8815,3.9315,3.9431,3.9777,4.0254,4.0431,4.0315,4.0508,4.0392,4.0508,4.0662,4.1354,4.1739,4.2085,4.2393,4.22,4.1239,4.1655,4.2056,4.2364,4.2919,4.3294,4.359,4.3534,4.3436,4.3722,4.4222,4.4068,4.397,4.4816,4.5047,4.4701,4.5009,4.5278,4.5334,4.4795,4.4547,4.4453,4.4003,4.3464,4.3573,4.3739,4.3945,4.3945,4.3784,4.3633,4.3716,4.3698,4.3463,4.3266,4.2565,4.2133,4.2017,4.1424,4.1162,4.18,4.1953,4.2239,4.2701,4.2816,4.2931,4.3201,4.3239,4.3717,4.4619,4.5372,4.6086,4.6683,4.6896,4.6972,4.7106,4.7086,4.7355,4.8125,4.8933,4.9317,4.9721,5.0144,5.0664,5.0664,5.0856,5.1105,5.1241,5.1471,5.1471,5.1433,5.1702,5.2049,5.2318,5.2567,5.2585,5.2528,5.1818,5.1269,5.0713,5.0391,5.0318,5.0431,5.0655,5.1022,5.1499,5.194,5.238,5.2564,5.2527,5.2784,5.3115,5.2894,5.2815,3.9969,3.9985,3.9969,3.9969,3.9969,3.9969,4.0046,4.02,4.0215,4.0315,4.0469,4.0508,4.0546,4.0546,4.07,4.0854,4.1508,4.1854,4.2124,4.2816,4.297,4.297,4.2563,4.2826,4.3134,4.358,4.3893,4.4393,4.4799,4.4876,4.5047,4.5009,4.5009,4.524,4.5124,4.524,4.5547,4.5355,4.5509,4.5586,4.5586,4.5411,4.524,4.5201,4.5064,4.4739,4.447,4.4939,4.5359,4.5152,4.4422,4.4059,4.4318,4.3928,4.3618,4.344,4.3217,4.2909,4.2826,4.2618,4.2585,4.2722,4.2799,4.2893,4.3008,4.3201,4.347,4.3855,4.4102,4.4795,4.6044,4.7062,4.7507,4.7722,4.7857,4.8126,4.8567,4.824,4.8279,4.8894,4.9317,4.9625,5.0279,5.0471,5.0779,5.0818,5.1164,5.1567,5.1875,5.2144,5.2164,5.2125,5.2549,5.2933,5.3087,5.3356,5.3549,5.3491,5.2909,5.2479,5.1927,5.1397,5.1293,5.129,5.1353,5.1793,5.2234,5.2564,5.2894,5.3115,5.3225,5.3225,5.3225,5.3225,5.3225,4.0508,4.0508,4.0508,4.0508,4.0508,4.0508,4.0508,4.0508,4.0508,4.0754,4.1024,4.1101,4.1331,4.17,4.1739,4.2047,4.2415,4.2854,4.347,4.4124,4.4316,4.4316,4.4278,4.4234,4.4388,4.4449,4.4739,4.5201,4.5509,4.5586,4.5509,4.5586,4.5586,4.5509,4.5586,4.5624,4.5586,4.5547,4.5586,4.5586,4.5586,4.5586,4.5586,4.5586,4.5586,4.5393,4.5124,4.5488,4.5773,4.5655,4.5086,4.4799,4.518,4.4853,4.4491,4.4388,4.3876,4.3739,4.364,4.3316,4.3222,4.3645,4.3662,4.3932,4.4124,4.4278,4.4432,4.4893,4.5355,4.6103,4.7296,4.774,4.8202,4.8644,4.8702,4.9087,4.9663,4.924,4.9048,4.974,5.0048,5.024,5.0587,5.0952,5.126,5.1453,5.2125,5.2528,5.2508,5.2759,5.2895,5.301,5.351,5.3818,5.3895,5.4126,5.4395,5.4268,5.3888,5.364,5.3372,5.2828,5.227,5.2264,5.2327,5.238,5.2821,5.3115,5.3225,5.3225,5.3225,5.3225,5.3225,5.3225,5.3225,4.0508,4.0508,4.0508,4.0508,4.0508,4.0508,4.0623,4.0739,4.07,4.1254,4.1886,4.2017,4.2332,4.2893,4.2953,4.3107,4.3453,4.4085,4.4778,4.524,4.5316,4.5316,4.5334,4.5295,4.5103,4.4641,4.5163,4.5547,4.5586,4.5586,4.5586,4.5624,4.5817,4.5932,4.5855,4.5817,4.5893,4.5932,4.5701,4.5586,4.5586,4.5586,4.5586,4.5586,4.5586,4.5586,4.5509,4.568,4.5834,4.5932,4.5988,4.6065,4.6142,4.5873,4.5796,4.568,4.491,4.4586,4.4432,4.403,4.3915,4.4474,4.4491,4.4932,4.547,4.5701,4.5817,4.624,4.674,4.7509,4.8221,4.8644,4.8971,4.9394,4.9606,4.9952,5.0356,5.0087,5.0279,5.0394,5.051,5.0625,5.1029,5.1414,5.178,5.2204,5.2915,5.3374,5.3392,5.3546,5.3759,5.3972,5.4434,5.4626,5.4703,5.4703,5.4972,5.4771,5.4519,5.4478,5.4377,5.3874,5.3268,5.3274,5.3339,5.3289,5.3125,5.3235,5.323,5.3188,5.3225,5.3225,5.3225,5.3225,5.3225,4.0508,4.0508,4.0508,4.0508,4.0508,4.0508,4.0969,4.1546,4.1585,4.2101,4.281,4.2909,4.297,4.3184,4.3111,4.3475,4.4201,4.4893,4.5355,4.5586,4.5586,4.5586,4.5586,4.5586,4.547,4.547,4.5642,4.5719,4.5663,4.5586,4.5817,4.5817,4.6355,4.6663,4.6663,4.6701,4.6663,4.6586,4.6163,4.5855,4.5855,4.5855,4.5855,4.5855,4.5893,4.5817,4.574,4.5701,4.597,4.6624,4.674,4.7086,4.7201,4.6432,4.5911,4.5796,4.5719,4.5565,4.547,4.5355,4.524,4.5355,4.547,4.5817,4.6432,4.674,4.6932,4.7625,4.8297,4.899,4.9144,4.9625,5.0164,5.0433,5.0394,5.051,5.0779,5.101,5.1125,5.1087,5.101,5.1048,5.1645,5.2145,5.2589,5.3089,5.3762,5.4164,5.4259,5.4643,5.5049,5.5241,5.5434,5.5472,5.5511,5.5434,5.5434,5.5164,5.4931,5.4884,5.476,5.4511,5.4291,5.4543,5.4131,5.3606,5.3487,5.3359,5.3272,5.3225,5.3225,5.3225,5.3225,5.3225,5.3225,4.1162,4.12,4.1662,4.1854,4.1854,4.1854,4.2085,4.2431,4.2508,4.2948,4.3541,4.3717,4.3987,4.4278,4.4414,4.4645,4.5009,4.5355,4.5586,4.5586,4.5586,4.5586,4.5624,4.5624,4.5932,4.6124,4.6257,4.6257,4.6278,4.6299,4.6453,4.6932,4.7355,4.7509,4.7509,4.7509,4.7548,4.7394,4.7086,4.6817,4.6855,4.6855,4.6855,4.6855,4.6855,4.6894,4.6894,4.6894,4.7086,4.7432,4.7509,4.774,4.7778,4.7509,4.6873,4.6891,4.6852,4.6852,4.6908,4.6908,4.6891,4.6894,4.6873,4.7066,4.7394,4.7586,4.7932,4.8625,4.9028,4.9624,5.0029,5.0452,5.0625,5.0702,5.0702,5.0933,5.1279,5.1702,5.1856,5.1895,5.2202,5.2356,5.253,5.2992,5.3397,5.4013,5.4608,5.4857,5.5028,5.5318,5.5703,5.5703,5.5703,5.578,5.5857,5.5895,5.6071,5.578,5.5605,5.5552,5.5607,5.5552,5.5836,5.6215,5.5433,5.4168,5.3524,5.3267,5.3225,5.3225,5.3225,5.3225,5.3225,5.3225,5.3225,4.2085,4.2124,4.2816,4.3085,4.3085,4.3085,4.3162,4.3316,4.3355,4.3794,4.4504,4.4581,4.491,4.5393,4.5547,4.5547,4.5586,4.5586,4.5586,4.5586,4.5586,4.5624,4.5855,4.597,4.6317,4.7086,4.7124,4.7142,4.7124,4.7126,4.7511,4.7837,4.8125,4.8355,4.8394,4.8355,4.8355,4.8317,4.8163,4.8125,4.8086,4.8086,4.8106,4.8106,4.8125,4.8009,4.7894,4.7894,4.8086,4.8279,4.8394,4.8471,4.8625,4.8625,4.8605,4.8564,4.8351,4.8102,4.8064,4.7969,4.7835,4.7798,4.8009,4.8125,4.8432,4.8625,4.8971,4.951,4.9721,4.9952,5.0452,5.0664,5.0818,5.0971,5.1048,5.1241,5.1972,5.251,5.2972,5.3164,5.351,5.3587,5.3608,5.3685,5.4051,5.459,5.5164,5.5241,5.5395,5.5472,5.5703,5.5703,5.5742,5.5895,5.6011,5.6242,5.6533,5.6785,5.6648,5.6637,5.675,5.6816,5.7041,5.699,5.5973,5.4724,5.3998,5.3371,5.3445,5.3445,5.3298,5.3225,5.3225,5.3298,5.3335,4.2953,4.297,4.3085,4.3085,4.3162,4.3201,4.3547,4.4124,4.4162,4.4662,4.5334,4.5411,4.5488,4.5663,4.5663,4.5624,4.5701,4.5817,4.5893,4.5932,4.5893,4.624,4.6663,4.674,4.7201,4.7855,4.7972,4.7933,4.8068,4.8049,4.8049,4.8375,4.8971,4.924,4.924,4.924,4.924,4.9125,4.8548,4.8202,4.824,4.8279,4.8298,4.8241,4.8298,4.8355,4.8432,4.8471,4.8625,4.9202,4.924,4.9625,5.0202,5.0394,5.0394,4.9952,4.9125,4.8106,4.8279,4.8395,4.8395,4.8472,4.8337,4.8567,4.9125,4.9779,5.0164,5.0471,5.0529,5.0606,5.0779,5.0779,5.1087,5.149,5.1798,5.2221,5.2874,5.328,5.3741,5.4241,5.4511,5.4511,5.4472,5.457,5.4685,5.5224,5.5647,5.5665,5.578,5.5857,5.5972,5.6011,5.6395,5.6549,5.6703,5.6819,5.7049,5.7555,5.7555,5.7572,5.7781,5.7774,5.7408,5.7129,5.622,5.5579,5.504,5.4496,5.4002,5.3849,5.3885,5.3592,5.3225,5.3371,5.3702,4.4239,4.3816,4.4316,4.4509,4.4509,4.4509,4.4701,4.497,4.5047,4.524,4.5547,4.5586,4.5855,4.6222,4.6355,4.6624,4.6932,4.6932,4.7009,4.6932,4.6971,4.7201,4.7509,4.7625,4.8009,4.8663,4.8894,4.924,4.924,4.9106,4.901,4.9548,4.9894,5.0125,5.0048,5.0125,5.0125,5.0048,4.9779,4.9586,4.9586,4.9548,4.9548,4.9567,4.9548,4.951,4.9471,4.9586,4.9702,5.0125,5.0125,5.024,5.0587,5.0664,5.0664,5.0587,5.0048,4.9663,4.9606,4.9548,4.9471,4.9548,4.9529,4.9817,5.0164,5.0471,5.0741,5.0664,5.1145,5.1337,5.153,5.1857,5.2222,5.251,5.2623,5.3182,5.3682,5.4049,5.4511,5.5011,5.5434,5.5318,5.5241,5.5301,5.5263,5.5378,5.5665,5.5703,5.5972,5.628,5.6395,5.6549,5.7011,5.7473,5.7627,5.7742,5.778,5.811,5.811,5.8219,5.8654,5.8623,5.8192,5.8084,5.7866,5.7109,5.6232,5.5502,5.492,5.473,5.4583,5.4363,5.4179,5.4564,5.489,4.5201,4.4701,4.5316,4.5586,4.5586,4.5586,4.5547,4.5586,4.5547,4.5701,4.5988,4.618,4.6624,4.7049,4.7222,4.7452,4.8009,4.8086,4.8086,4.8086,4.8125,4.8163,4.8355,4.8509,4.8894,4.9702,4.9721,4.999,5.0202,5.0144,5.0029,5.0702,5.051,5.0625,5.0664,5.0625,5.0587,5.0548,5.0548,5.051,5.0548,5.0587,5.0587,5.0625,5.0664,5.0702,5.0702,5.0625,5.0625,5.0625,5.0587,5.0625,5.0702,5.0702,5.0702,5.0664,5.0433,5.0625,5.0664,5.0664,5.0702,5.0741,5.101,5.101,5.1356,5.1318,5.1318,5.151,5.1896,5.2184,5.2338,5.28,5.3107,5.3318,5.3528,5.4066,5.4587,5.4934,5.5088,5.528,5.5665,5.5895,5.5857,5.5994,5.5955,5.5703,5.5742,5.5818,5.628,5.678,5.7088,5.7319,5.7588,5.8165,5.8511,5.8627,5.8665,5.8742,5.8742,5.8859,5.93,5.9201,5.882,5.8877,5.8874,5.8174,5.7007,5.636,5.5794,5.539,5.5133,5.5317,5.5434,5.5705,5.5992,4.5547,4.5509,4.5547,4.5586,4.5586,4.5586,4.5624,4.5701,4.5701,4.6163,4.6855,4.7468,4.7776,4.8009,4.8049,4.8126,4.8202,4.8125,4.8317,4.8317,4.8163,4.874,4.9086,4.9433,4.9702,5.0356,5.0414,5.0491,5.0664,5.0548,5.0548,5.0702,5.0702,5.0702,5.0702,5.0702,5.0702,5.0702,5.0702,5.0702,5.0702,5.0702,5.0702,5.0702,5.0702,5.0702,5.0702,5.0702,5.0702,5.0702,5.0702,5.0856,5.0894,5.0933,5.0971,5.1106,5.1106,5.1376,5.1626,5.126,5.0818,5.0933,5.1395,5.2087,5.251,5.2856,5.2972,5.2779,5.2935,5.3089,5.3126,5.3297,5.4087,5.4472,5.4934,5.5357,5.5742,5.5818,5.5934,5.5742,5.6011,5.6472,5.6703,5.6857,5.6763,5.6571,5.6511,5.6588,5.7088,5.7588,5.7973,5.8204,5.828,5.8704,5.9319,5.9473,5.955,5.9704,5.9781,5.9786,5.9912,5.9653,5.9065,5.8877,5.8673,5.8208,5.7904,5.7295,5.6712,5.5956,5.5721,5.6124,5.6345,5.65,5.6862,4.5586,4.5586,4.5586,4.5586,4.5624,4.6163,4.6394,4.6471,4.6932,4.7278,4.7663,4.8007,4.8412,4.876,4.8933,4.9221,4.9625,4.9702,4.9625,4.9702,4.9779,4.9894,5.0164,5.0202,5.0394,5.0625,5.0702,5.0702,5.0664,5.0702,5.0702,5.0702,5.0779,5.0702,5.0702,5.0741,5.0779,5.0779,5.0741,5.0702,5.0702,5.0702,5.0702,5.0702,5.0702,5.0702,5.0702,5.0702,5.0702,5.0741,5.0779,5.1048,5.1433,5.1587,5.1799,5.205,5.205,5.2281,5.2435,5.203,5.1682,5.2202,5.2549,5.2895,5.3356,5.328,5.3203,5.328,5.38,5.409,5.407,5.4895,5.5878,5.6109,5.6379,5.6703,5.6857,5.6896,5.6934,5.6857,5.7126,5.7588,5.7703,5.778,5.761,5.7478,5.7379,5.7434,5.7896,5.8434,5.8819,5.9127,5.9242,5.9435,6.0012,6.0242,6.0435,6.0512,6.0627,6.038,6.0122,5.9313,5.8789,5.864,5.8591,5.8424,5.8221,5.8073,5.758,5.6919,5.6904,5.7189,5.7299,5.7226,5.7524,4.6009,4.6009,4.624,4.6201,4.6086,4.6663,4.7048,4.7355,4.7817,4.8279,4.8489,4.8759,4.9163,4.9663,4.9817,5.0029,5.0433,5.0548,5.0625,5.0587,5.0548,5.0702,5.0702,5.0664,5.0587,5.0702,5.0702,5.0702,5.0702,5.0702,5.0914,5.1029,5.1048,5.101,5.0741,5.0971,5.1164,5.1395,5.1433,5.1433,5.1491,5.153,5.126,5.1222,5.1145,5.1125,5.1164,5.1202,5.1356,5.151,5.1664,5.1818,5.2164,5.251,5.2838,5.3051,5.3224,5.3301,5.332,5.2933,5.27,5.3356,5.351,5.3703,5.3857,5.3933,5.4203,5.4203,5.4762,5.5224,5.5301,5.6361,5.7054,5.7247,5.7412,5.7758,5.7758,5.7796,5.7934,5.7973,5.8204,5.8242,5.8781,5.8819,5.855,5.8418,5.8357,5.8396,5.8665,5.9204,5.9742,6.0012,6.0204,6.0473,6.0742,6.0704,6.0666,6.0627,6.0671,6.0398,6.0009,5.9356,5.9022,5.8984,5.8913,5.8716,5.8635,5.8564,5.8344,5.7941,5.7859,5.7794,5.774,5.7675,5.8067,4.6894,4.6971,4.7663,4.7548,4.6971,4.6894,4.7394,4.8086,4.8279,4.872,4.9413,5.0067,5.0433,5.0548,5.0433,5.0548,5.0625,5.0702,5.0741,5.0856,5.0933,5.0818,5.0933,5.1048,5.1241,5.0818,5.1029,5.1145,5.0952,5.1125,5.1414,5.1722,5.1856,5.1625,5.0894,5.151,5.2279,5.2972,5.2933,5.2856,5.2838,5.2781,5.2396,5.205,5.1876,5.1914,5.1895,5.1895,5.2164,5.2549,5.2664,5.2856,5.3126,5.3203,5.3356,5.3472,5.3433,5.378,5.4297,5.3601,5.3853,5.4395,5.4587,5.4895,5.5395,5.5626,5.5665,5.5742,5.6319,5.6763,5.7208,5.7632,5.8077,5.8325,5.8527,5.8773,5.8835,5.8873,5.9011,5.9088,5.8742,5.8665,5.9435,5.9858,5.9488,5.9335,5.9273,5.9373,5.955,5.9819,6.0358,6.0473,6.0627,6.0935,6.105,6.0973,6.0896,6.0858,6.0902,6.0939,6.0722,6.035,5.999,5.9613,5.9734,6.0039,5.9591,5.9103,5.9204,5.925,5.8342,5.8023,5.8051,5.8281,5.8782,4.772,4.774,4.8009,4.8279,4.8509,4.8548,4.8702,4.9009,4.9548,4.9971,5.026,5.0625,5.0702,5.0702,5.0702,5.0702,5.0741,5.0702,5.0818,5.151,5.151,5.1933,5.2125,5.2164,5.2241,5.2338,5.2338,5.2242,5.2416,5.2184,5.2396,5.2743,5.2818,5.2644,5.251,5.2702,5.2972,5.3126,5.3164,5.3164,5.3223,5.3223,5.3107,5.28,5.2761,5.2741,5.2759,5.2779,5.301,5.3356,5.3433,5.3587,5.3933,5.4049,5.428,5.4626,5.4818,5.4934,5.5412,5.5335,5.5566,5.5665,5.5818,5.6203,5.6549,5.7165,5.7319,5.7357,5.7572,5.7841,5.7995,5.8627,5.905,5.9242,5.9488,5.995,6.0127,6.0127,6.0165,6.0204,6.0012,5.9858,6.0281,6.0358,6.0104,6.0142,6.0142,6.0219,6.0396,6.0396,6.0666,6.0666,6.0819,6.1166,6.1396,6.155,6.1882,6.2074,6.2074,6.2041,6.1759,6.1382,6.1248,6.098,6.1272,6.1424,6.0887,6.0525,6.0754,6.0564,5.9689,5.9202,5.9405,5.959,5.9752,4.8566,4.8586,4.8894,4.9317,4.974,4.9548,4.9548,4.9894,5.0433,5.0702,5.0664,5.0664,5.0702,5.0702,5.0702,5.0971,5.1048,5.1125,5.1587,5.2279,5.2356,5.2664,5.2972,5.3241,5.2972,5.3203,5.3223,5.3128,5.3012,5.3126,5.3338,5.3608,5.3933,5.4066,5.401,5.3895,5.3857,5.4087,5.428,5.4241,5.4223,5.4126,5.401,5.3759,5.3643,5.3643,5.3643,5.3703,5.378,5.3933,5.4126,5.428,5.4741,5.5011,5.5203,5.5588,5.6028,5.6066,5.6319,5.6912,5.695,5.6797,5.7242,5.7396,5.7511,5.7857,5.805,5.8204,5.8556,5.871,5.8842,5.9488,5.9873,6.0065,6.0181,6.0627,6.0666,6.0627,6.0627,6.0742,6.0781,6.0781,6.0781,6.0781,6.0589,6.0819,6.1012,6.1127,6.1243,6.1243,6.132,6.1435,6.1589,6.2012,6.232,6.2435,6.2805,6.3214,6.3176,6.3036,6.2771,6.2372,6.2395,6.2361,6.2442,6.2404,6.2173,6.2012,6.2012,6.1716,6.112,6.0867,6.0916,6.0911,6.092,4.9452,4.9586,5.0356,5.0625,5.051,4.9817,4.9933,5.0625,5.0702,5.0702,5.0702,5.0702,5.0779,5.0779,5.0779,5.1241,5.1856,5.1933,5.251,5.301,5.3241,5.3395,5.351,5.3549,5.3741,5.3549,5.3549,5.3839,5.3395,5.3703,5.4049,5.4472,5.5011,5.5164,5.5088,5.4895,5.4857,5.5088,5.5203,5.5164,5.5126,5.5318,5.4972,5.4682,5.4528,5.4489,5.4511,5.4511,5.4895,5.5203,5.5511,5.5626,5.5703,5.5742,5.5742,5.6049,5.6713,5.6928,5.7165,5.7873,5.8219,5.8081,5.8373,5.8396,5.8434,5.8627,5.8896,5.905,5.9303,5.9419,5.965,6.0127,6.0589,6.0666,6.0666,6.0781,6.0781,6.0742,6.0742,6.0781,6.0781,6.0781,6.0781,6.0781,6.105,6.1281,6.1589,6.2142,6.2219,6.2166,6.2281,6.2666,6.282,6.3089,6.3281,6.3358,6.3743,6.4152,6.4037,6.3858,6.3578,6.354,6.3679,6.3702,6.3489,6.3437,6.3494,6.3299,6.3032,6.2742,6.2749,6.2427,6.247,6.2107,6.2032,5.0317,5.0356,5.0587,5.0702,5.0664,5.0394,5.0471,5.0702,5.0702,5.0702,5.0702,5.0702,5.1048,5.1548,5.1587,5.2087,5.2549,5.2972,5.3433,5.3818,5.4126,5.4511,5.4741,5.4818,5.4895,5.4895,5.4895,5.478,5.4934,5.4895,5.4895,5.5434,5.5665,5.5742,5.5703,5.5472,5.5665,5.5742,5.5895,5.5818,5.5818,5.5857,5.5626,5.5549,5.5511,5.5511,5.5472,5.5472,5.5703,5.5742,5.5742,5.5895,5.6626,5.6665,5.6763,5.7478,5.7796,5.7943,5.8081,5.8719,5.9158,5.9311,5.9604,5.9588,5.955,5.9588,5.9858,5.9935,5.9973,6.0111,6.0188,6.0512,6.0781,6.0781,6.0781,6.0781,6.0781,6.0781,6.0819,6.105,6.1012,6.1127,6.1089,6.1127,6.142,6.1689,6.2127,6.2796,6.3142,6.3089,6.3281,6.3666,6.3782,6.3974,6.4128,6.4243,6.4666,6.5013,6.482,6.482,6.4872,6.491,6.5089,6.4974,6.4666,6.4795,6.5064,6.478,6.4249,6.478,6.4792,6.4342,6.3904,6.3528,6.3242,5.0702,5.0702,5.0702,5.0702,5.0702,5.0702,5.0702,5.0702,5.0702,5.0818,5.1164,5.1222,5.1625,5.2336,5.2451,5.2874,5.3664,5.3741,5.4164,5.478,5.4895,5.5203,5.5549,5.5703,5.5588,5.5703,5.5703,5.5472,5.5742,5.5703,5.5665,5.5703,5.5934,5.6203,5.6319,5.6588,5.678,5.6665,5.6533,5.6302,5.6302,5.6494,5.6686,5.6626,5.6648,5.6648,5.6665,5.6626,5.6665,5.6703,5.6742,5.6934,5.7511,5.755,5.7588,5.8226,5.8566,5.8696,5.8889,5.9565,5.9873,6.0104,6.0473,6.0396,6.0358,6.0358,6.0512,6.0627,6.0704,6.0742,6.0781,6.0781,6.0781,6.0781,6.0781,6.0781,6.0781,6.0781,6.1012,6.1281,6.1473,6.1651,6.1689,6.1689,6.192,6.2459,6.3012,6.3603,6.3911,6.3911,6.4243,6.4666,6.4705,6.4743,6.4897,6.5013,6.5243,6.5474,6.5513,6.5551,6.5897,6.582,6.5551,6.5628,6.5743,6.5756,6.5641,6.5718,6.5538,6.5897,6.5897,6.5346,6.4948,6.4868,6.4641,5.0702,5.0702,5.0702,5.0779,5.0779,5.0856,5.0894,5.0894,5.1048,5.1279,5.1818,5.1953,5.2492,5.3182,5.3315,5.3797,5.4357,5.4587,5.4857,5.5665,5.5511,5.5626,5.5626,5.5703,5.5703,5.5703,5.5742,5.5818,5.5857,5.5972,5.6109,5.5934,5.6681,5.7104,5.7203,5.7627,5.778,5.7726,5.7533,5.7319,5.7341,5.7747,5.8286,5.8149,5.811,5.8132,5.8165,5.8204,5.8303,5.828,5.8242,5.8127,5.8357,5.8627,5.8665,5.8819,5.9335,5.9527,5.9758,6.0219,6.0512,6.0666,6.0781,6.0742,6.0704,6.0666,6.0781,6.0781,6.0781,6.0781,6.0781,6.0781,6.0781,6.0935,6.105,6.1166,6.1257,6.1435,6.1858,6.2089,6.2204,6.2382,6.2536,6.2574,6.2743,6.3344,6.3806,6.4334,6.468,6.4743,6.4974,6.5436,6.5359,6.5282,6.5436,6.5551,6.5667,6.5859,6.5897,6.5897,6.5897,6.5897,6.5897,6.5897,6.5897,6.5897,6.5859,6.5897,6.5897,6.5897,6.5897,6.5897,6.5795,6.5654,6.5409,5.0702,5.0702,5.0702,5.101,5.1587,5.1625,5.201,5.2587,5.2587,5.2318,5.2087,5.2646,5.3377,5.4087,5.4203,5.4626,5.5164,5.5241,5.5511,5.5626,5.5703,5.5703,5.5703,5.5703,5.5703,5.5703,5.578,5.6088,5.6472,5.6665,5.7033,5.755,5.795,5.7973,5.8011,5.8434,5.855,5.8611,5.8765,5.8473,5.8258,5.8127,5.828,5.8373,5.8434,5.8511,5.8489,5.8412,5.8335,5.8258,5.828,5.8588,5.9165,5.9781,6.0127,6.0242,6.0242,6.0319,6.0435,6.0627,6.0742,6.0781,6.0781,6.0781,6.0781,6.0781,6.0819,6.0819,6.0858,6.0858,6.0935,6.0935,6.0973,6.1204,6.1411,6.1603,6.1796,6.218,6.2666,6.2858,6.2974,6.3166,6.3383,6.3575,6.3705,6.3974,6.4257,6.4718,6.5257,6.5474,6.5397,6.5705,6.5743,6.5743,6.5897,6.5897,6.5897,6.5897,6.5897,6.5897,6.5897,6.5897,6.5897,6.5897,6.5897,6.5897,6.5897,6.5897,6.5897,6.5897,6.5897,6.5897,6.5897,6.5795,6.5526,5.0702,5.0741,5.1087,5.1471,5.1933,5.2318,5.2779,5.3241,5.3626,5.351,5.3126,5.3608,5.4262,5.4934,5.5011,5.5147,5.5665,5.5665,5.5665,5.5665,5.5703,5.5703,5.5703,5.5742,5.5703,5.5703,5.6186,5.6609,5.7104,5.7489,5.7912,5.8396,5.8588,5.8858,5.8896,5.9127,5.9319,5.9496,5.9858,5.9719,5.9311,5.9335,5.9396,5.9412,5.9373,5.9335,5.9412,5.9412,5.9412,5.9435,5.9511,5.9627,6.0089,6.0435,6.0666,6.0704,6.0704,6.0781,6.0781,6.0819,6.0858,6.0858,6.0858,6.0858,6.1473,6.1512,6.1512,6.1512,6.1535,6.1535,6.2098,6.2213,6.2213,6.2367,6.2435,6.2565,6.2642,6.282,6.3358,6.382,6.3974,6.4205,6.4474,6.4782,6.4936,6.4936,6.518,6.5103,6.5628,6.5897,6.5897,6.5897,6.5897,6.5897,6.5897,6.5897,6.5897,6.5897,6.5897,6.5897,6.5897,6.5897,6.5897,6.5897,6.5897,6.5897,6.5897,6.5897,6.5897,6.5897,6.5897,6.5897,6.5897,6.5897,6.5667,5.0702,5.0818,5.1548,5.1972,5.2202,5.301,5.3472,5.3703,5.4318,5.4626,5.4549,5.4608,5.5109,5.5472,5.5703,5.5703,5.5703,5.5703,5.5703,5.5703,5.5703,5.5703,5.578,5.5857,5.6109,5.6456,5.69,5.7242,5.762,5.812,5.8566,5.8719,5.9142,5.9681,5.9896,6.0242,6.055,6.0473,6.0589,6.0704,6.0742,6.0781,6.0627,6.0666,6.0781,6.0781,6.0781,6.0781,6.0781,6.0704,6.0512,6.055,6.055,6.0704,6.0742,6.0781,6.0781,6.0781,6.0819,6.1012,6.105,6.105,6.1012,6.1396,6.2089,6.2243,6.2243,6.2397,6.2421,6.2483,6.2983,6.3253,6.3214,6.3291,6.332,6.3589,6.3628,6.3666,6.4166,6.4705,6.4897,6.5166,6.5397,6.5743,6.582,6.5859,6.5897,6.5897,6.5897,6.5897,6.5897,6.5897,6.5897,6.5897,6.5897,6.5897,6.5897,6.5897,6.5897,6.5897,6.5897,6.5897,6.5897,6.5897,6.5897,6.5974,6.5897,6.5897,6.5897,6.5936,6.5897,6.5897,6.5897,6.5859,6.582,5.0702,5.0779,5.1548,5.2318,5.301,5.3857,5.4626,5.5164,5.5318,5.5472,5.5395,5.5434,5.5588,5.5703,5.5703,5.5703,5.5703,5.5703,5.5703,5.5703,5.5857,5.578,5.6011,5.6588,5.7148,5.7555,5.7901,5.838,5.8527,5.9004,5.9642,6.0165,6.0242,6.0512,6.055,6.0781,6.0781,6.0781,6.0781,6.0781,6.0781,6.0781,6.0781,6.0781,6.0781,6.0781,6.0781,6.0781,6.0781,6.0781,6.0781,6.0781,6.0781,6.0781,6.0781,6.0781,6.0781,6.0896,6.1012,6.1396,6.155,6.1897,6.205,6.2589,6.3012,6.3089,6.3281,6.382,6.3743,6.332,6.3614,6.3565,6.3603,6.3757,6.3911,6.4564,6.4974,6.5051,6.532,6.5474,6.5513,6.5628,6.5667,6.5859,6.5859,6.5897,6.5897,6.5897,6.5897,6.5897,6.5897,6.5897,6.5897,6.5897,6.5897,6.5897,6.5897,6.5897,6.6013,6.6244,6.6244,6.5897,6.5936,6.6397,6.6244,6.6167,6.609,6.632,6.6051,6.6128,6.5936,6.5897,6.5897,6.5897,6.5897]},{"header":{"parameterUnit":"m.s-1","parameterCategory":1,"la1":31.0,"la2":29.5877,"lo1":-88.7671,"lo2":-86.6584,"dy":0.0162,"dx":0.0185,"nx":115,"ny":88,"refTime":"2026-05-13T00:00:00:Z","depth":0,"parameterNumber":3,"parameterNumberName":"V-component_of_WINDS"},"data":[0.0,0.0,0.0,0.0,0.0,0.0,0.0,0.0,0.0,0.0,0.0,0.0,0.0,0.0,0.0,0.0,0.0,0.0,0.0,0.0,0.0,0.0,0.0,0.0,0.0,0.0,0.0,0.0,0.0,0.0,0.0,0.0,0.0,0.0,0.0,0.0,0.0,0.0,0.0,0.0,0.0,0.0,0.0,0.0,0.0,0.0,0.0,0.0,0.0,0.0,0.0,0.0,0.0,0.0,0.0,0.0,0.0,0.0,0.0,0.0,0.0,0.0,0.0,0.0,0.0,0.0,0.0,0.0,0.0,0.0,0.0,0.0,0.0,0.0,0.0,0.0,0.0,0.0,0.0,0.0,0.0,0.0,0.0,0.0,0.0,0.0,0.0,0.0,0.0,0.0,0.0,0.0,0.0,0.0,0.0,0.0,0.0,0.0,0.0,0.0,0.0,0.0,0.0,0.0,0.0,0.0,0.0,0.0,0.0,0.0,0.0,0.0,0.0,0.0,0.0,0.0,0.0,0.0,0.0,0.0,0.0,0.0,0.0,0.0,0.0,0.0,0.0,0.0,0.0,0.0,0.0,0.0,0.0,0.0,0.0,0.0,0.0,0.0,0.0,0.0,0.0,0.0,0.0,0.0,0.0,0.0,0.0,0.0,0.0,0.0,0.0,0.0,0.0,0.0,0.0,0.0,0.0,0.0,0.0,0.0,0.0,0.0,0.0,0.0,0.0,0.0,0.0,0.0,0.0,0.0,0.0,0.0,0.0,0.0,0.0,0.0,0.0,0.0,0.0,0.0,0.0,0.0,0.0,0.0,0.0,0.0,0.0,0.0,0.0,0.0,0.0,0.0,0.0,0.0,0.0,0.0,0.0,0.0,0.0,0.0,0.0,0.0,0.0,0.0,0.0,0.0,0.0,0.0,0.0,0.0,0.0,0.0,0.0,0.0,0.0,0.0,0.0,0.0,0.0,0.0,0.0,0.0,0.0,0.0,0.0,0.0,0.0,0.0,0.0,0.0,0.0,0.0,0.0,0.0,0.0,0.0,0.0,0.0,0.0,0.0,0.0,0.0,0.0,0.0,0.0,0.0,0.0,0.0,0.0,0.0,0.0,0.0,0.0,0.0,0.0,0.0,0.0,0.0,0.0,0.0,0.0,0.0,0.0,0.0,0.0,0.0,0.0,0.0,0.0,0.0,0.0,0.0,0.0,0.0,0.0,0.0,0.0,0.0,0.0,0.0,0.0,0.0,0.0,0.0,0.0,0.0,0.0,0.0,0.0,0.0,0.0,0.0,0.0,0.0,0.0,0.0,0.0,0.0,0.0,0.0,0.0,0.0,0.0,0.0,0.0,0.0,0.0,0.0,0.0,0.0,0.0,0.0,0.0,0.0,0.0,0.0,0.0,0.0,0.0,0.0,0.0,0.0,0.0,0.0,0.0,0.0,0.0,0.0,0.0,0.0,0.0,0.0,0.0,0.0,0.0,0.0,0.0,0.0,0.0,0.0,0.0,0.0,0.0,0.0,0.0,0.0,0.0,0.0,0.0,0.0,0.0,0.0,0.0,0.0,0.0,0.0,0.0,0.0,0.0,0.0,0.0,0.0,0.0,0.0,0.0,0.0,0.0,0.0,0.0,0.0,0.0,0.0,0.0,0.0,0.0,0.0,0.0,0.0,0.0,0.0,0.0,0.0,0.0,0.0,0.0,0.0,0.0,0.0,0.0,0.0,0.0,0.0,0.0,0.0,0.0,0.0,0.0,0.0,0.0,0.0,0.0,0.0,0.0,0.0,0.0,0.0,0.0,0.0,0.0,0.0,0.0,0.0,0.0,0.0,0.0,0.0,0.0,0.0,0.0,0.0,0.0,0.0,0.0,0.0,0.0,0.0,0.0,0.0,0.0,0.0,0.0,0.0,0.0,0.0,0.0,0.0,0.0,0.0,0.0,0.0,0.0,0.0,0.0,0.0,0.0,0.0,0.0,0.0,0.0,0.0,0.0,0.0,0.0,0.0,0.0,0.0,0.0,0.0,0.0,0.0,0.0,0.0,0.0,0.0,0.0,0.0,0.0,0.0,0.0,0.0,0.0,0.0,0.0,0.0,0.0,0.0,0.0,0.0,0.0,0.0,0.0,0.0,0.0,0.0,0.0,0.0,0.0,0.0,0.0,0.0,0.0,0.0,0.0,0.0,0.0,0.0,0.0,0.0,0.0,0.0,0.0,0.0,0.0,0.0,0.0,0.0,0.0,0.0,0.0,0.0,0.0,0.0,0.0,0.0,0.0,0.0,0.0,0.0,0.0,0.0,0.0,0.0,0.0,0.0,0.0,0.0,0.0,0.0,0.0,0.0,0.0,0.0,0.0,0.0,0.0,0.0,0.0,0.0,0.0,0.0,0.0,0.0,0.0,0.0,0.0,0.0,0.0,0.0,0.0,0.0,0.0,0.0,0.0,0.0,0.0,0.0,0.0,0.0,0.0,0.0,0.0,0.0,0.0,0.0,0.0,0.0,0.0,0.0,0.0,0.0,0.0,0.0,0.0,0.0,0.0,0.0,0.0,0.0,0.0,0.0,0.0,0.0,0.0,0.0,0.0,0.0,0.0,0.0,0.0,0.0,0.0,0.0,0.0,0.0,0.0,0.0,0.0,0.0,0.0,0.0,0.0,0.0,0.0,0.0,0.0,0.0,0.0,0.0,0.0,0.0,0.0,0.0,0.0,0.0,0.0,0.0,0.0,0.0,0.0,0.0,0.0,0.0,0.0,0.0,0.0,0.0,0.0,0.0,0.0,0.0,0.0,0.0,0.0,0.0,0.0,0.0,0.0,0.0,0.0,0.0,0.0,0.0,0.0,0.0,0.0,0.0,0.0,0.0,0.0,0.0,0.0,0.0,0.0,0.0,0.0,0.0,0.0,0.0,0.0,0.0,0.0,0.0,0.0,0.0,0.0,0.0,0.0,0.0,0.0,0.0,0.0,0.0,0.0,0.0,0.0,0.0,0.0,0.0,0.0,0.0,0.0,0.0,0.0,0.0,0.0,0.0,0.0,0.0,0.0,0.0,0.0,0.0,0.0,0.0,0.0,0.0,0.0,0.0,0.0,0.0,0.0,0.0,0.0,0.0,0.0,0.0,0.0,0.0,0.0,0.0,0.0,0.0,0.0,0.0,0.0,0.0,0.0,0.0,0.0,0.0,0.0,0.0,0.0,0.0,0.0,0.0,0.0,0.0,0.0,0.0,0.0,0.0,0.0,0.0,0.0,0.0,0.0,0.0,0.0,0.0,0.0,0.0,0.0,0.0,0.0,0.0,0.0,0.0,0.0,0.0,0.0,0.0,0.0,0.0,0.0,0.0,0.0,0.0,0.0,0.0,0.0,0.0,0.0,0.0,0.0,0.0,0.0,0.0,0.0,0.0,0.0,0.0,0.0,0.0,0.0,0.0,0.0,0.0,0.0,0.0,0.0,0.0,0.0,0.0,0.0,0.0,0.0,0.0,0.0,0.0,0.0,0.0,0.0,0.0,0.0,0.0,0.0,0.0,0.0,0.0,0.0,0.0,0.0,0.0,0.0,0.0,0.0,0.0,0.0,0.0,0.0,0.0,0.0,0.0,0.0,0.0,0.0,0.0,0.0,0.0,0.0,0.0,0.0,0.0,0.0,0.0,0.0,0.0,0.0,0.0,0.0,0.0,0.0,0.0,0.0,0.0,0.0,0.0,0.0,0.0,0.0,0.0,0.0,0.0,0.0,0.0,0.0,0.0,0.0,0.0,0.0,0.0,0.0,0.0,0.0,0.0,0.0,0.0,0.0,0.0,0.0,0.0,0.0,0.0,0.0,0.0,0.0,0.0,0.0,0.0,0.0,0.0,0.0,0.0,0.0,0.0,0.0,0.0,0.0,0.0,0.0,0.0,0.0,0.0,0.0,0.0,0.0,0.0,0.0,0.0,0.0,0.0,0.0,0.0,0.0,0.0,0.0,0.0,0.0,0.0,0.0,0.0,0.0,0.0,0.0,0.0,0.0,0.0,0.0,0.0,0.0,0.0,0.0,0.0,0.0,0.0,0.0,0.0,0.0,0.0,0.0,0.0,0.0,0.0,0.0,0.0,0.0,0.0,0.0,0.0,0.0,0.0,0.0,0.0,0.0,0.0,0.0,0.0,0.0,0.0,0.0,0.0,0.0,0.0,0.0,0.0,0.0,0.0,0.0,0.0,0.0,0.0,0.0,0.0,0.0,0.0,0.0,0.0,0.0,0.0,0.0,0.0,0.0,0.0,0.0,0.0,0.0,0.0,0.0,0.0,0.0,0.0,0.0,0.0,0.0,0.0,0.0,0.0,0.0,0.0,0.0,0.0,0.0,0.0,0.0,0.0,0.0,0.0,0.0,0.0,0.0,0.0,0.0,0.0,0.0,0.0,0.0,0.0,0.0,0.0,0.0,0.0,0.0,0.0,0.0,0.0,0.0,0.0,0.0,0.0,0.0,0.0,0.0,0.0,0.0,0.0,0.0,0.0,0.0,0.0,0.0,0.0,0.0,0.0,0.0,0.0,0.0,0.0,0.0,0.0,0.0,0.0,0.0,0.0,0.0,0.0,0.0,0.0,0.0,0.0,0.0,0.0,0.0,0.0,0.0,0.0,0.0,0.0,0.0,0.0,0.0,0.0,0.0,0.0,0.0,0.0,0.0,0.0,0.0,0.0,0.0,0.0,0.0,0.0,0.0,0.0,0.0,0.0,0.0,0.0,0.0,0.0,0.0,0.0,0.0,0.0,0.0,0.3835,0.2456,0.0854,0.0,0.0,0.0,0.0,0.0,0.0,0.0,0.0,0.0,0.0,0.0,0.0,0.0,0.0,0.0,0.0,0.0,0.0,0.0,0.0,0.0,0.0,0.0,0.0,0.0,0.0,0.0,0.0,0.0,0.0,0.0,0.0,0.0,0.0,0.0,0.0,0.0,0.0,0.0,0.0,0.0,0.0,0.0,0.0,0.0,0.0,0.0,0.0,0.0,0.0,0.0,0.0,0.0,0.0,0.0,0.0,0.0,0.0,0.0,0.0,0.0,0.0,0.0,0.0,0.0,0.0,0.0,0.0,0.0,0.0,0.0,0.0,0.0,0.0,0.0,0.0,0.0,0.0,0.0,0.0,0.0,0.0,0.0,0.0,0.0,0.0,0.0,0.0,0.0,0.0,0.0,0.0,0.0,0.0,0.0,0.0,0.0,0.0,0.0,0.0,0.0,0.0,0.0,0.0,0.0,0.0,0.0,0.0,0.0,0.0,0.0,0.0,0.0,0.0,0.2241,0.069,0.0,0.0,0.0,0.0,0.0,0.0,0.0,0.0,0.0,0.0,0.0,0.0,0.0,0.0,0.0,0.0,0.0,0.0,0.0,0.0,0.0,0.0,0.0,0.0,0.0,0.0,0.0,0.0,0.0,0.0,0.0,0.0,0.0,0.0,0.0,0.0,0.0,0.0,0.0,0.0,0.0,0.0,0.0,0.0,0.0,0.0,0.0,0.0,0.0,0.0,0.0,0.0,0.0,0.0,0.0,0.0,0.0,0.0,0.0,0.0,0.0,0.0,0.0,0.0,0.0,0.0,0.0,0.0,0.0,0.0,0.0,0.0,0.0,0.0,0.0,0.0,0.0,0.0,0.0,0.0,0.0,0.0,0.0,0.0,0.0,0.0,0.0,0.0,0.0,0.0,0.0,0.0,0.0,0.0,0.0,0.0,0.0,0.0,0.0,0.0,0.0,0.0,0.0,0.0,0.0,0.0,0.0,0.0,0.0,0.0,0.0,0.4468,0.4511,0.4194,0.0,0.0,0.0,0.0,0.0,0.0,0.0,0.0,0.0,0.0,0.0,0.0,0.0,0.0,0.0,0.0,0.0,0.0,0.0,0.0,0.0,0.0,0.0,0.0,0.0,0.0,0.0,0.0,0.0,0.0,0.0,0.0,0.0,0.0,0.0,0.0,0.0,0.0,0.0,0.0,0.0,0.0,0.0,0.0,0.0,0.0,0.0,0.0,0.0,0.0,0.0,0.0,0.0,0.0,0.0,0.0,0.0,0.0,0.0,0.0,0.0,0.0,0.0,0.0,0.0,0.0,0.0,0.0,0.0,0.0,0.0,0.0,0.0,0.0,0.0,0.0,0.0,0.0,0.0,0.0,0.0,0.0,0.0,0.0,0.0,0.0,0.0,0.0,0.0,0.0,0.0,0.0,0.0,0.0,0.0,0.0,0.0,0.0,0.0,0.0,0.0,0.0,0.0,0.0,0.0,0.0,0.0,0.0,0.0,0.0,0.0,0.0,0.3602,0.4484,0.3644,0.2184,0.0,0.0,0.0,0.0,0.0,0.0,0.0,0.0,0.0,0.0,0.0,0.0,0.0,0.0,0.0,0.0,0.0,0.0,0.0,0.0,0.0,0.0,0.0,0.0,0.0,0.0,0.0,0.0,0.0,0.0,0.0,0.0,0.0,0.0,0.0,0.0,0.0,0.0,0.0,0.0,0.0,0.0,0.0,0.0,0.0,0.0,0.0,0.0,0.0,0.0,0.0,0.0,0.0,0.0,0.0,0.0,0.0,0.0,0.0,0.0,0.0,0.0,0.0,0.0,0.0,0.0,0.0,0.0,0.0,0.0,0.0,0.0,0.0,0.0,0.0,0.0,0.0,0.0,0.0,0.0,0.0,0.0,0.0,0.0,0.0,0.0,0.0,0.0,0.0,0.0,0.0,0.0,0.0,0.0,0.0,0.0,0.0,0.0,0.0,0.0,0.0,0.0,0.0,0.0,0.0,0.0,0.0,0.0,0.0,0.0,0.3437,0.338,0.4317,0.2623,0.1118,0.0,0.0,0.0,0.0,0.0,0.0,0.0,0.0,0.0,0.0,0.0,0.0,0.0,0.0,0.0,0.0,0.0,0.0,0.0,0.0,0.0,0.0,0.0,0.0,0.0,0.0,0.0,0.0,0.0,0.0,0.0,0.0,0.0,0.0,0.0,0.0,0.0,0.0,0.0,0.0,0.0,0.0,0.0,0.0,0.0,0.0,0.0,0.0,0.0,0.0,0.0,0.0,0.0,0.0,0.0,0.0,0.0,0.0,0.0,0.0,0.0,0.0,0.0,0.0,0.0,0.0,0.0,0.0,0.0,0.0,0.0,0.0,0.0,0.0,0.0,0.0,0.0,0.0,0.0,0.0,0.0,0.0,0.0,0.0,0.0,0.0,0.0,0.0,0.0,0.0,0.0,0.0,0.0,0.0,0.0,0.0,0.0,0.0,0.0,0.0,0.0,0.0,0.0,0.0,0.0,0.0,0.0,0.0,0.0,0.0,0.4392,0.4399,0.4356,0.1628,0.0056,0.0,0.0,0.0,0.0,0.0,0.0,0.0,0.0,0.0,0.0,0.0,0.0,0.0,0.0,0.0,0.0,0.0,0.0,0.0,0.0,0.0,0.0,0.0,0.0,0.0,0.0,0.0,0.0,0.0,0.0,0.0,0.0,0.0,0.0,0.0,0.0,0.0,0.0,0.0,0.0,0.0,0.0,0.0,0.0,0.0,0.0,0.0,0.0,0.0,0.0,0.0,0.0,0.0,0.0,0.0,0.0,0.0,0.0,0.0,0.0,0.0,0.0,0.0,0.0,0.0,0.0,0.0,0.0,0.0,0.0,0.0,0.0,0.0,0.0,0.0,0.0,0.0,0.0,0.0,0.0,0.0,0.0,0.0,0.0,0.0,0.0,0.0,0.0,0.0,0.0,0.0,0.0,0.0,0.0,0.0,0.0,0.0,0.0,0.0,0.0,0.0,0.0,0.0,0.0,0.0,0.0,0.0,0.0,0.0,0.4428,0.3527,0.2575,0.1684,0.2415,0.1964,0.0,0.0,0.0,0.0,0.0,0.0,0.0,0.0,0.0,0.0,0.0,0.0,0.0,0.0,0.0,0.0,0.0,0.0,0.0,0.0,0.0,0.0,0.0,0.0,0.0,0.0,0.0,0.0,0.0,0.0,0.0,0.0,0.0,0.0,0.0,0.0,0.0,0.0,0.0,0.0,0.0,0.0,0.0,0.0,0.0,0.0,0.0,0.0,0.0,0.0,0.0,0.0,0.0,0.0,0.0,0.0,0.0,0.0,0.0,0.0,0.0,0.0,0.0,0.0,0.0,0.0,0.0,0.0,0.0,0.0,0.0,0.0,0.0,0.0,0.0,0.0,0.0,0.0,0.0,0.0,0.0,0.0,0.0,0.0,0.0,0.0,0.0,0.0,0.0,0.0,0.0,0.0,0.0,0.0,0.0,0.0,0.0,0.0,0.0,0.0,0.0,0.0,0.0,0.0,0.0,0.0,0.0,0.0,0.0,0.3744,0.0,0.1006,0.0,0.1964,0.2076,0.0,0.0,0.0,0.0,0.0,0.0,0.0,0.0,0.0,0.0,0.0,0.0,0.0,0.0,0.0,0.0,0.0,0.0,0.0,0.0,0.0,0.0,0.0,0.0,0.0,0.0,0.0,0.0,0.0,0.0,0.0,0.0,0.0,0.0,0.0,0.0,0.0,0.0,0.0,0.0,0.0,0.0,0.0,0.0,0.0,0.0,0.0,0.0,0.0,0.0,0.0,0.0,0.0,0.0,0.0,0.0,0.0,0.0,0.0,0.0,0.0,0.0,0.0,0.0,0.0,0.0,0.0,0.0,0.0,0.0,0.0,0.0,0.0,0.0,0.0,0.0,0.0,0.0,0.0,0.0,0.0,0.0,0.0,0.0,0.0,0.0,0.0,0.0,0.0,0.0,0.0,0.0,0.0,0.0,0.0,0.0,0.0,0.0,0.0,0.0,0.0,0.0,0.0,0.0,0.0,0.0,0.0,0.0,0.3799,0.223,0.0783,0.0,0.0,0.0,0.0,0.0,0.0,0.0,0.0,0.0,0.0,0.0,0.0,0.0,0.0,0.0,0.0,0.0,0.0,0.0,0.0,0.0,0.0,0.0,0.0,0.0,0.0,0.0,0.0,0.0,0.0,0.0,0.0,0.0,0.0,0.0,0.0,0.0,0.0,0.0,0.0,0.0,0.0,0.0,0.0,0.0,0.0,0.0,0.0,0.0,0.0,0.0,0.0,0.0,0.0,0.0,0.0,0.0,0.0,0.0,0.0,0.0,0.0,0.0,0.0,0.0,0.0,0.0,0.0,0.0,0.0,0.0,0.0,0.0,0.0,0.0,0.0,0.0,0.0,0.0,0.0,0.0,0.0,0.0,0.0,0.0,0.0,0.0,0.0,0.0,0.0,0.0,0.0,0.0,0.0,0.0,0.0,0.0,0.0,0.0,0.0,0.0,0.0,0.0,0.0,0.0,0.0,0.0,0.0,0.0,0.0,0.0,0.0,0.0,0.223,0.0783,0.0,0.0,0.0,0.0,0.0,0.0,0.0,0.0,0.0,0.0,0.0,0.0,0.0,0.0,0.0,0.0,0.0,0.0,0.0,0.0,0.0,0.0,0.0,0.0,0.0,0.0,0.0,0.0,0.0,0.0,0.0,0.0,0.0,0.0,0.0,0.0,0.0,0.0,0.0,0.0,0.0,0.0,0.0,0.0,0.0,0.0,0.0,0.0,0.0,0.0,0.0,0.0,0.0,0.0,0.0,0.0,0.0,0.0,0.0,0.0,0.0,0.0,0.0,0.0,0.0,0.0,0.0,0.0,0.0,0.0,0.0,0.0,0.0,0.0,0.0,0.0,0.0,0.0,0.0,0.0,0.0,0.0,0.0,0.0,0.0,0.0,0.0,0.0,0.0,0.0,0.0,0.0,0.0,0.0,0.0,0.0,0.0,0.0,0.0,0.0,0.0,0.0,0.0,0.0,0.0,0.0,0.0,0.0,0.0,0.0,0.0,0.0,0.0,0.3021,0.1062,0.0,0.0,0.0,0.0,0.0,0.0,0.0,0.0,0.0,0.0,0.0,0.0,0.0,0.0,0.0,0.0,0.0,0.0,0.0,0.0,0.0,0.0,0.0,0.0,0.0,0.0,0.0,0.0,0.0,0.0,0.0,0.0,0.0,0.0,0.0,0.0,0.0,0.0,0.0,0.0,0.0,0.0,0.0,0.0,0.0,0.0,0.0,0.0,0.0,0.0,0.0,0.0,0.0,0.0,0.0,0.0,0.0,0.0,0.0,0.0,0.0,0.0,0.0,0.0,0.0,0.0,0.0,0.0,0.0,0.0,0.0,0.0,0.0,0.0,0.0,0.0,0.0,0.0,0.0,0.0,0.0,0.0,0.0,0.0,0.0,0.0,0.0,0.0,0.0,0.0,0.0,0.0,0.0,0.0,0.0,0.0,0.0,0.0,0.0,0.0,0.0,0.0,0.0,0.0,0.0,0.0,0.0,0.0,0.0,0.0,0.0,0.0,0.0,0.4511,0.1623,0.0,0.0,0.0,0.0,0.0,0.0,0.0,0.0,0.0,0.0,0.0,0.0,0.0,0.0,0.0,0.0,0.0,0.0,0.0,0.0,0.0,0.0,0.0,0.0,0.0,0.0,0.0,0.0,0.0,0.0,0.0,0.0,0.0,0.0,0.0,0.0,0.0,0.0,0.0,0.0,0.0,0.0,0.0,0.0,0.0,0.0,0.0,0.0,0.0,0.0,0.0,0.0,0.0,0.0,0.0,0.0,0.0,0.0,0.0,0.0,0.0,0.0,0.0,0.0,0.0,0.0,0.0,0.0,0.0,0.0,0.0,0.0,0.0,0.0,0.0,0.0,0.0,0.0,0.0,0.0,0.0,0.0,0.0,0.0,0.0,0.0,0.0,0.0,0.0,0.0,0.0,0.0,0.0,0.0,0.0,0.0,0.0,0.0,0.0,0.0,0.0,0.0,0.0,0.0,0.0,0.0,0.0,0.0,0.0,0.0,0.0,0.0,0.0,0.4416,0.2603,0.1116,0.0,0.0,0.0,0.0,0.0,0.0,0.0,0.0,0.0,0.0,0.0,0.0,0.0,0.0,0.0,0.0,0.0,0.0,0.0,0.0,0.0,0.0,0.0,0.0,0.0,0.0,0.0,0.0,0.0,0.0,0.0,0.0,0.0,0.0,0.0,0.0,0.0,0.0,0.0,0.0,0.0,0.0,0.0,0.0,0.0,0.0,0.0,0.0,0.0,0.0,0.0,0.0,0.0,0.0,0.0,0.0,0.0,0.0,0.0,0.0,0.0,0.0,0.0,0.0,0.0,0.0,0.0,0.0,0.0,0.0,0.0,0.0,0.0,0.0,0.0,0.0,0.0,0.0,0.0,0.0,0.0,0.0,0.0,0.0,0.0,0.0,0.0,0.0,0.0,0.0,0.0,0.0,0.0,0.0,0.0,0.0,0.0,0.0,0.0,0.0,0.0,0.0,0.0,0.0,0.0,0.0,0.0,0.0,0.0,0.0,0.0,0.4488,0.4481,0.301,0.1509,0.0,0.0,0.0,0.0,0.0,0.0,0.0,0.0,0.0,0.0,0.0,0.0,0.0,0.0,0.0,0.0,0.0,0.0,0.0,0.0,0.0,0.0,0.0,0.0,0.0,0.0,0.0,0.0,0.0,0.0,0.0,0.0,0.0,0.0,0.0,0.0,0.0,0.0,0.0,0.0,0.0,0.0,0.0,0.0,0.0,0.0,0.0,0.0,0.0,0.0,0.0,0.0,0.0,0.0,0.0,0.0,0.0,0.0,0.0,0.0,0.0,0.0,0.0,0.0,0.0,0.0,0.0,0.0,0.0,0.0,0.0,0.0,0.0,0.0,0.0,0.0,0.0,0.0,0.0,0.0,0.0,0.0,0.0,0.0,0.0,0.0,0.0,0.0,0.0,0.0,0.0,0.0,0.0,0.0,0.0,0.0,0.0,0.0,0.0,0.0,0.0,0.0,0.0,0.0,0.0,0.0,0.0,0.0,0.0,0.0,0.0,0.4535,0.4526,0.2989,0.1297,-0.0453,-0.0522,-0.0294,0.0,0.0,0.0,0.0,0.0,0.0,0.0,0.0,0.0,0.0,0.0,0.0,0.0,0.0,0.0,0.0,0.0,0.0,0.0,0.0,0.0,0.0,0.0,0.0,0.0,0.0,0.0,0.0,0.0,0.0,0.0,0.0,0.0,0.0,0.0,0.0,0.0,0.0,0.0,0.0,0.0,0.0,0.0,0.0,0.0,0.0,0.0,0.0,0.0,0.0,0.0,0.0,0.0,0.0,0.0,0.0,0.0,0.0,0.0,0.0,0.0,0.0,0.0,0.0,0.0,0.0,0.0,0.0,0.0,0.0,0.0,0.0,0.0,0.0,0.0,0.0,0.0,0.0,0.0,0.0,0.0,0.0,0.0,0.0,0.0,0.0,0.0,0.0,0.0,0.0,0.0,0.0,0.0,0.0,0.0,0.0,0.0,0.0,0.0,0.0,0.0,0.0,0.0,0.0,0.0,0.0,0.0,0.0,0.4837,0.481,0.3123,0.012,-0.4134,-0.3787,-0.2413,0.0,0.0,0.0,0.0,0.0,0.0,0.0,0.0,0.0,0.0,0.0,0.0,0.0,0.0,0.0,0.0,0.0,0.0,0.0,0.0,0.0,0.0,0.0,0.0,0.0,0.0,0.0,0.0,0.0,0.0,0.0,0.0,0.0,0.0,0.0,0.0,0.0,0.0,0.0,0.0,0.0,0.0,0.0,0.0,0.0,0.0,0.0,0.0,0.5425,0.0,0.0,0.0,0.0,0.0,0.0,0.0,0.0,0.0,0.0,0.0,0.0,0.0,0.0,0.0,0.0,0.0,0.0,0.0,0.0,0.0,0.0,0.0,0.0,0.0,0.0,0.0,0.0,0.0,0.0,0.0,0.0,0.0,0.0,0.0,0.0,0.0,0.0,0.0,0.0,0.0,0.0,0.0,0.0,0.0,0.0,0.0,0.0,0.0,0.0,0.0,0.0,0.0,0.0,0.0,0.0,0.0,0.0,0.0,0.4931,0.5085,0.3202,-0.0242,-0.5088,-0.5114,-0.4036,0.0,0.0,0.0,0.0,0.0,0.0,0.0,0.0,0.0,0.0,0.0,0.0,0.0,0.0,0.0,0.0,0.0,0.0,0.0,0.0,0.0,0.0,0.0,0.0,0.0,0.0,0.0,0.0,0.0,0.0,0.0,0.0,0.0,0.0,0.0,0.0,0.0,0.0,0.0,0.0,0.0,0.0,0.0,0.0,0.0,0.0,0.0,0.0,0.0,0.0,0.0,0.0,0.0,0.0,0.0,0.0,0.0,0.0,0.0,0.0,0.0,0.0,0.0,0.0,0.0,0.0,0.0,0.0,0.0,0.0,0.0,0.0,0.0,0.0,0.0,0.0,0.0,0.0,0.0,0.0,0.0,0.0,0.0,0.0,0.0,0.0,0.0,0.0,0.0,0.0,0.0,0.0,0.0,0.0,0.0,0.0,0.0,0.0,0.0,0.0,0.0,0.0,0.0,0.0,0.0,0.0,0.0,0.4823,0.4965,0.524,0.3329,-0.0061,-0.484,-0.5261,-0.5178,-0.4541,0.0,0.0,0.0,0.0,0.0,0.0,0.0,0.0,0.0,0.0,0.0,0.0,0.0,0.0,0.0,0.0,0.0,0.0,0.0,0.0,0.0,0.0,0.0,0.0,0.0,0.0,0.0,0.0,0.0,0.0,0.0,0.0,0.0,0.0,0.0,0.0,0.0,0.0,0.0,0.3092,0.0,0.0,0.0,0.0,0.0,0.0,0.0,0.0,0.5085,0.0,0.0,0.0,0.0,0.0,0.0,0.0,0.0,0.0,0.0,0.0,0.0,0.0,0.0,0.0,0.0,0.0,0.0,0.0,0.0,0.0,0.0,0.0,0.0,0.0,0.0,0.0,0.0,0.0,0.0,0.0,0.0,0.0,0.0,0.0,0.0,0.0,0.0,0.0,0.0,0.0,0.0,0.0,0.0,0.0,0.0,0.0,0.0,0.0,0.0,0.0,0.0,0.0,0.0,0.0,0.0,0.5087,0.5074,0.5021,0.4942,0.3431,0.0787,-0.2975,-0.4616,-0.5262,-0.4975,0.0,0.0,0.0,0.0,0.0,0.0,0.0,0.0,0.0,0.0,0.0,0.0,0.0,0.0,0.0,0.0,0.0,0.0,0.0,0.0,0.0,0.0,0.0,0.0,0.0,0.0,0.0,0.0,0.0,0.0,0.0,0.0,0.0,0.0,0.0,0.0,0.0,0.0,0.0,0.3151,0.5393,0.0,0.0,0.0,0.0,0.0,0.0,0.0,0.0,0.5071,0.0,0.0,0.0,0.0,0.0,0.0,0.0,0.0,0.0,0.0,0.0,0.0,0.0,0.0,0.0,0.0,0.0,0.0,0.0,0.0,0.0,0.0,0.0,0.0,0.0,0.0,0.0,0.0,0.0,0.0,0.0,0.0,0.0,0.0,0.0,0.0,0.0,0.0,0.0,0.0,0.0,0.0,0.0,0.0,0.0,0.0,0.0,0.0,0.0,0.0,0.0,0.0,0.0,0.0,0.0,0.5075,0.5527,0.5596,0.5113,0.3374,0.079,-0.2609,-0.4449,-0.5308,0.0,0.0,0.0,0.0,0.0,0.0,0.0,0.0,0.0,0.0,0.0,0.0,0.0,0.0,0.0,0.0,0.0,0.0,0.0,0.0,0.0,0.0,0.0,0.0,0.0,0.0,0.0,0.0,0.0,0.0,0.0,0.0,0.0,0.0,0.0,0.0,0.0,0.0,0.0,0.0,0.1538,0.328,0.5106,0.0,0.0,0.0,0.0,0.0,0.0,0.5135,0.5135,0.0,0.0,0.0,0.0,0.0,0.0,0.0,0.0,0.0,0.0,0.0,0.0,0.0,0.0,0.0,0.0,0.0,0.0,0.0,0.0,0.0,0.0,0.0,0.0,0.0,0.0,0.0,0.0,0.0,0.0,0.0,0.0,0.0,0.0,0.0,0.0,0.0,0.0,0.0,0.0,0.0,0.0,0.0,0.0,0.0,0.0,0.0,0.0,0.0,0.0,0.0,0.0,0.0,0.0,0.0,0.4985,0.574,0.5917,0.5312,0.3348,0.085,-0.2072,-0.4233,-0.5311,0.0,0.0,0.0,0.0,0.0,0.0,0.0,0.0,0.0,0.0,0.0,0.0,0.0,0.0,0.0,0.0,0.0,0.0,0.0,0.0,0.0,0.0,0.0,0.0,0.0,0.0,0.0,0.0,0.0,0.0,0.0,0.0,0.0,0.0,0.0,0.0,0.0,0.0,0.0,0.0,0.0,0.1143,0.4361,0.5173,0.0,0.0,0.0,0.0,0.504,0.5101,0.0,0.0,0.0,0.0,0.0,0.0,0.0,0.0,0.0,0.0,0.0,0.0,0.0,0.0,0.0,0.0,0.0,0.0,0.0,0.0,0.0,0.0,0.0,0.0,0.0,0.0,0.0,0.0,0.0,0.0,0.0,0.0,0.0,0.0,0.0,0.0,0.0,0.0,0.0,0.0,0.0,0.0,0.0,0.0,0.0,0.0,0.0,0.0,0.0,0.0,0.0,0.0,0.0,0.0,0.0,0.0,0.4918,0.5123,0.5281,0.5312,0.3609,0.1734,-0.0268,-0.3627,-0.5318,0.0,0.0,0.0,0.0,0.0,0.0,0.0,0.0,0.0,0.0,0.0,0.0,0.0,0.0,0.0,0.0,0.0,0.0,0.0,0.0,0.0,0.0,0.0,0.0,0.0,0.0,0.0,0.0,0.0,0.0,0.0,0.0,0.0,0.0,0.0,0.0,0.0,0.0,0.0,0.0,0.0,0.0755,0.2753,0.4361,0.5372,0.0,0.0,0.5352,0.5384,0.5391,0.0,0.0,0.0,0.0,0.0,0.0,0.0,0.0,0.0,0.0,0.0,0.0,0.0,0.0,0.0,0.0,0.0,0.0,0.0,0.0,0.0,0.0,0.0,0.0,0.0,0.0,0.0,0.0,0.0,0.0,0.0,0.0,0.0,0.0,0.0,0.0,0.0,0.0,0.0,0.0,0.0,0.0,0.0,0.0,0.0,0.0,0.0,0.0,0.0,0.0,0.0,0.0,0.0,0.0,0.0,0.5322,0.4925,0.5642,0.5821,0.5326,0.3623,0.1808,0.0067,-0.1538,-0.3234,0.0,0.0,0.0,0.0,0.0,0.0,0.0,0.0,0.0,0.0,0.0,0.0,0.0,0.0,0.0,0.0,0.0,0.0,0.0,0.0,0.0,0.0,0.0,0.0,0.0,0.0,0.0,0.0,0.0,0.0,0.0,0.0,0.0,0.0,0.0,0.0,0.0,0.0,0.0,0.0,0.0,0.0,0.107,0.3551,0.0,0.0,0.0,0.5397,0.5243,0.0,0.0,0.0,0.0,0.0,0.0,0.0,0.0,0.0,0.0,0.0,0.0,0.0,0.0,0.0,0.0,0.0,0.0,0.0,0.0,0.0,0.0,0.0,0.0,0.0,0.0,0.0,0.0,0.0,0.0,0.0,0.0,0.0,0.0,0.0,0.0,0.0,0.0,0.0,0.0,0.0,0.0,0.0,0.0,0.0,0.0,0.0,0.0,0.0,0.0,0.0,0.0,0.0,0.0,0.0,0.0,0.0,0.4979,0.5898,0.6104,0.5365,0.3605,0.1826,0.0,0.0,0.0,0.0,0.0,0.0,0.0,0.0,0.0,0.0,0.0,0.0,0.0,0.0,0.0,0.0,0.0,0.0,0.0,0.0,0.0,0.0,0.0,0.0,0.0,0.0,0.0,0.0,0.0,0.0258,0.0,0.0,0.0,0.0,0.0,0.0,0.0,0.0,0.0,0.0,0.0,0.0,0.0,0.0,0.1363,0.0885,0.3466,0.5447,0.0,0.0,0.5325,0.5203,0.5291,0.5298,0.0,0.0,0.0,0.0,0.0,0.0,0.0,0.0,0.0,0.0,0.0,0.0,0.0,0.0,0.0,0.0,0.0,0.0,0.0,0.0,0.0,0.0,0.0,0.0,0.0,0.0,0.0,0.0,0.0,0.0,0.0,0.0,0.0,0.0,0.0,0.0,0.0,0.0,0.0,0.0,0.0,0.0,0.0,0.0,0.0,0.0,0.0,0.0,0.0,0.0,0.0,0.0,0.0,0.0,0.0,0.5121,0.5487,0.5574,0.5362,0.36,0.1812,0.0,0.0,-0.1564,0.0,0.0,0.0,0.0,0.0,0.0,0.0,0.0,0.0,0.0,0.0,0.0,0.0,0.0,0.0,0.0,0.0,0.0,0.0,0.0,0.0,0.0,0.0,0.0,0.0,0.0,0.0,0.0,0.0,0.0,0.0,0.0,0.0,0.0,0.0,0.0,0.0,0.0,0.0,0.0,0.0,0.5129,0.316,0.4523,0.5658,0.0,0.5454,0.5425,0.5418,0.5365,0.5415,0.5363,0.0,0.0,0.0,0.0,0.0,0.0,0.0,0.0,0.0,0.0,0.0,0.0,0.0,0.0,0.0,0.0,0.0,0.0,0.0,0.0,0.0,0.0,0.0,0.0,0.0,0.0,0.0,0.0,0.0,0.0,0.0,0.0,0.0,0.0,0.0,0.0,0.0,0.0,0.0,0.0,0.0,0.0,0.0,0.0,0.0,0.0,0.0,0.0,0.0,0.0,0.0,0.0,0.0,0.504,0.527,0.542,0.5537,0.5617,0.4838,0.2945,0.007,-0.218,-0.3791,0.0,0.0,0.0,0.0,0.0,0.0,0.0,0.0,0.0,0.0,0.0,0.0,0.0,0.0,0.0,0.0,0.0,0.0,0.0,0.0,0.0,0.0,0.0,0.0,0.0,0.0,0.0,0.0,0.4334,0.4553,0.4656,0.0,0.0,0.0,0.0,0.0,0.0,0.0,0.0,0.0,0.0,0.598,0.5141,0.5552,0.0,0.0,0.5748,0.5603,0.5597,0.5583,0.5589,0.5445,0.5387,0.0,0.0,0.0,0.0,0.0,0.0,0.0,0.0,0.0,0.0,0.0,0.0,0.0,0.0,0.0,0.0,0.0,0.0,0.0,0.0,0.0,0.0,0.0,0.0,0.0,0.0,0.0,0.0,0.0,0.0,0.0,0.0,0.0,0.0,0.0,0.0,0.0,0.0,0.0,0.0,0.0,0.0,0.0,0.0,0.0,0.0,0.0,0.0,0.0,0.0,0.0,0.0,0.5128,0.5494,0.556,0.5375,0.4995,0.5406,0.3367,-0.1421,-0.4082,-0.5239,0.0,0.0,0.0,0.0,0.0,0.0,0.0,0.0,0.0,0.0,0.0,0.0,0.0,0.0,0.0,0.0,0.0,0.0,0.0,0.0,0.0,0.0,0.0,0.0,0.0,0.0,0.0,0.0,0.4588,0.4455,0.4276,0.0,0.0,0.0,0.0,0.0,0.0,0.0,0.0,0.0,0.0,0.6313,0.628,0.6127,0.6033,0.6033,0.5913,0.5772,0.5755,0.5243,0.4769,0.4648,0.0,0.0,0.0,0.0,0.0,0.0,0.0,0.0,0.0,0.0,0.0,0.0,0.0,0.0,0.0,0.0,0.0,0.0,0.0,0.0,0.0,0.0,0.0,0.0,0.0,0.0,0.0,0.0,0.0,0.0,0.0,0.0,0.0,0.0,0.0,0.0,0.0,0.0,0.0,0.0,0.0,0.0,0.0,0.0,0.0,0.0,0.0,0.0,0.0,0.0,0.0,0.0,0.0,0.5277,0.5583,0.5801,0.5103,0.3344,0.522,0.2536,-0.4764,-0.5351,-0.5205,-0.4904,0.0,0.0,0.0,0.0,0.0,0.0,0.0,0.0,0.0,0.0,0.0,0.0,0.0,0.0,0.0,0.0,0.0,0.0,0.0,0.0,0.0,0.0,0.0,0.0,0.0,0.0,0.5234,0.4823,0.4144,0.0,0.0,0.0,0.0,0.0,0.0,0.0,0.0,0.0,0.0,0.8096,0.6314,0.6311,0.6167,0.6023,0.603,0.5901,0.5806,0.58,0.4128,0.2802,0.0,0.0,0.0,0.0,0.0,0.0,0.0,0.0,0.0,0.0,0.0,0.0,0.0,0.0,0.0,0.0,0.0,0.0,0.0,0.0,0.0,0.0,0.0,0.0,0.0,0.0,0.0,0.0,0.0,0.0,0.0,0.0,0.0,0.0,0.0,0.0,0.0,0.0,0.0,0.0,0.298,0.2984,0.0,0.0,0.0,0.0,0.0,0.0,0.0,0.0,0.0,0.0,0.0,0.0,0.5325,0.5718,0.5802,0.4974,0.3119,0.245,0.0299,-0.3511,-0.3622,-0.3971,-0.4829,0.0,0.0,0.0,0.0,0.0,0.0,0.0,0.0,0.0,0.0,0.0,0.0,0.0,0.0,0.0,0.0,0.0,0.0,0.0,0.0,0.0,0.0,0.0,0.0,0.0,0.4569,0.0,0.0,0.0,0.0,0.0,0.0,0.0,0.0,0.0,0.0,0.0,0.8275,1.131,0.9739,0.7773,0.6521,0.6207,0.6179,0.0,0.0,0.0,0.0,0.0,0.0,0.0,0.0,0.0,0.0,0.0,0.0,0.0,0.0,0.7815,0.6818,0.6511,0.6789,0.7794,0.0,0.0,0.0,0.0,0.0,0.0,0.0,0.0,0.0,0.0,0.0,0.0,0.0,0.0,0.0,0.0,0.0,0.0,0.0,0.0,0.0,0.0,0.0,0.0,0.0,0.4247,0.3965,0.3081,0.4009,0.3214,0.0,0.0277,0.0621,0.0,0.0,0.0,0.0,0.0,0.0,0.0,0.0,0.546,0.5793,0.5888,0.5024,0.3119,0.108,-0.0833,-0.2663,-0.3327,-0.4002,-0.4816,-0.4611,-0.3337,0.0,0.0,0.0,0.0,0.0,0.0,0.0,0.0,0.0,0.0,0.0,0.0,0.0,0.0,0.0,0.0,0.0,0.0,0.0,0.0,0.0,0.0,0.0,0.4498,0.0,0.0,0.0,0.0,0.0,0.0,0.0,0.0,0.0,0.8368,0.8321,0.9178,1.1685,0.9947,0.7947,0.6599,0.0,0.0,0.0,0.0,0.0,0.0,0.0,0.4533,0.2545,0.4504,0.6542,0.7252,0.7681,0.7609,0.67,0.0,0.0,0.7513,0.7518,0.7988,0.9134,0.9173,0.9275,1.0121,0.9665,0.9984,0.0,0.0,0.0,0.0,0.0,0.0,0.0,0.0,0.0,0.0,0.0,0.0,0.0,0.0,0.0,0.0,0.0,0.4381,0.0,0.0,0.386,0.449,0.4477,0.4497,0.3705,0.2233,0.0728,0.1769,0.5027,0.477,0.0,0.0,0.0,0.0,0.0,0.0,0.5734,0.5885,0.6125,0.5257,0.3125,0.1096,-0.0853,-0.2646,-0.4442,-0.5205,-0.4945,-0.467,-0.3823,-0.2347,-0.0823,0.0,0.0,0.0,0.0,0.0,0.0,0.0,0.0,0.0,0.0,0.0,0.0,0.0,0.0,0.0,0.0,0.0,0.0,0.0,0.0,0.447,0.0,0.0,0.0,0.0,0.0,0.0,0.0,0.0,0.0,0.0,0.9959,0.9275,0.9526,1.1242,0.0,0.0,0.0,0.0,0.6695,0.6695,0.6695,0.6654,0.6613,0.4698,0.385,0.5918,0.0,0.0,0.8812,0.7626,0.6667,0.7319,0.788,0.8207,0.8102,0.8722,0.9425,1.0025,1.0875,1.1551,1.1642,1.2659,1.3671,-0.1742,0.0,0.0,0.0,0.0,0.0,0.0,0.0,0.0,0.0,0.0,0.0,0.0,0.0,0.0,0.0,0.0,0.0,0.4262,0.386,0.4311,0.4484,0.4477,0.4497,0.4274,0.3766,0.1233,0.1197,0.347,0.4629,0.5035,0.4831,0.0,0.0,0.0,0.0,0.6682,0.6976,0.6554,0.5246,0.3125,0.1095,-0.0845,-0.2651,-0.4464,-0.5272,-0.5081,-0.4816,-0.448,-0.3835,-0.1349,0.0,0.0,0.0,0.0,0.0,0.0,0.0,0.0,0.0,0.0,0.0,0.0,0.0,0.0,0.0,0.0,0.0,0.0,0.0,0.4463,0.4463,0.4567,0.0,0.0,0.0,0.0,0.0,0.0,0.0,0.0,0.0,1.2315,1.1418,1.0991,0.0,0.0,0.695,0.6995,0.6791,0.6702,0.6702,0.6702,0.0,0.6681,0.5095,0.4442,0.6058,0.6291,0.6493,0.7057,0.7863,0.8043,0.6889,0.8043,0.9144,0.9311,1.0137,1.1303,1.2245,1.2768,1.3007,1.3342,1.3776,1.4135,-0.3137,-0.1592,-0.0461,0.0,0.0,0.0,0.0,0.0,0.0,0.0,0.0,0.0,0.1687,0.4481,0.4481,0.0,0.0,0.0,0.4484,0.447,0.447,0.4477,0.4421,0.386,0.3934,0.4343,0.142,0.0928,0.2751,0.4502,0.5389,0.5419,0.0,0.0,0.7371,0.7103,0.7124,0.7491,0.6721,0.5646,0.4384,0.1488,-0.0922,-0.2804,-0.4472,-0.5349,-0.5237,-0.5024,-0.4822,-0.4624,-0.2842,-0.1254,0.0,0.0,0.0,0.0,0.0,0.0,0.0,0.0,0.0,0.0,0.0,0.1287,0.4225,0.0,0.0,0.0,0.3958,0.4502,0.4495,0.4492,0.0,0.0,0.0,0.0,0.0,0.0,0.0,1.0982,1.1639,1.2458,1.3693,1.3312,1.2746,1.2376,0.924,0.6979,0.7062,0.0,0.6878,0.6871,0.6878,0.6865,0.6831,0.5443,0.4818,0.6118,0.627,0.6261,0.6318,0.7342,0.7769,0.7438,0.8505,0.9856,0.9948,1.1375,1.2801,1.3464,1.3559,1.3652,1.4028,1.4082,1.4175,-0.4221,-0.4013,-0.1461,0.0,0.0,0.0,0.0,0.0,0.0,0.0,0.0,0.0,0.1604,0.4314,0.4421,0.0,0.4477,0.4477,0.447,0.4463,0.4463,0.447,0.4421,0.2905,0.291,0.4058,0.1332,0.0956,0.2707,0.4514,0.5799,0.6535,0.6552,0.7242,0.8415,0.7696,0.7402,0.7664,0.6729,0.6203,0.5977,0.2116,-0.0931,-0.2794,-0.4504,-0.5416,-0.5393,-0.5216,-0.5011,-0.4829,-0.4624,-0.3236,-0.0468,0.0,0.0,0.0,0.0,0.0,0.0,0.0,0.0,0.0,0.0,0.0,0.0,0.0,0.0,0.0,0.4562,0.0,0.4533,0.4531,0.0,0.0,0.0,0.7614,0.6643,0.8302,0.9955,1.1111,0.0,0.0,1.4213,1.483,1.4483,1.273,0.9183,0.6851,0.7088,0.7115,0.7143,0.7122,0.7136,0.7095,0.7073,0.5791,0.512,0.6126,0.6295,0.6295,0.6325,0.6437,0.682,0.7573,0.9105,1.0111,1.0315,1.2206,1.3917,1.3652,1.3694,1.3774,1.4068,1.4148,1.4242,-0.4422,-0.4362,-0.369,-0.2132,0.0,0.0,0.0,0.0,0.0,0.0,0.0,0.0,0.0995,0.2819,0.3996,0.4512,0.447,0.4463,0.4463,0.4463,0.4463,0.447,0.4421,0.2901,0.1788,0.1064,0.0348,0.0956,0.2707,0.4514,0.6173,0.7564,0.7851,0.8445,0.951,0.8745,0.8548,0.8835,0.7157,0.5479,0.383,0.1333,-0.0233,-0.0755,-0.3985,-0.561,-0.5411,-0.5212,-0.5051,-0.5018,-0.485,-0.3995,-0.2339,-0.0826,0.0,0.0,0.0,0.0,0.0,0.0,0.0,0.0,0.0,0.3232,0.2802,0.0,0.4804,0.0,0.4969,0.4644,0.4924,0.5086,0.0,0.0,0.6876,0.7902,0.7673,0.8799,1.0388,1.2269,1.2937,1.352,1.4109,1.4832,1.4814,1.375,0.98,0.7077,0.7052,0.7075,0.7143,0.7143,0.7143,0.7136,0.7102,0.6634,0.6176,0.6311,0.627,0.6384,0.6589,0.6592,0.6688,0.7051,0.8172,0.9294,1.0272,1.1725,1.299,1.3736,1.3975,1.4068,1.4362,1.4216,1.4274,-0.447,-0.447,-0.4511,-0.3539,-0.1901,-0.0589,0.0,0.0,0.0,0.0,0.0,0.0,0.0838,0.2289,0.3811,0.4484,0.4463,0.4463,0.4463,0.4463,0.4463,0.456,0.4579,0.3659,0.2072,0.0,0.0,0.0927,0.2697,0.4534,0.6367,0.8174,0.8456,0.9102,1.0053,0.9257,0.8985,0.9291,0.7342,0.5246,0.3125,0.1096,0.0,0.0,-0.2871,-0.4819,-0.554,-0.5365,-0.5237,-0.523,-0.5027,-0.465,-0.3958,-0.2728,-0.138,0.0,0.0,0.0,0.0,0.0,0.0,0.0,0.0,0.0,0.0,0.0,0.4869,0.5424,0.5005,0.4781,0.5075,0.5269,0.541,0.5424,0.6921,0.8035,0.8154,0.9522,1.1141,1.2892,1.2924,1.3259,1.4301,1.4136,1.3971,1.4036,1.0031,0.7083,0.7094,0.7095,0.7143,0.7143,0.7143,0.7027,0.6987,0.6907,0.6688,0.6552,0.6388,0.6414,0.6756,0.6894,0.6888,0.6874,0.8203,0.9639,1.0403,1.1974,1.3294,1.3828,1.4188,1.4335,1.4482,1.4522,1.4696,-0.4484,-0.4484,-0.449,-0.4504,-0.4274,-0.1302,0.0,0.0,0.0,0.0,0.0,0.0,0.0846,0.2317,0.3857,0.4545,0.4518,0.458,0.458,0.4573,0.458,0.4656,0.4793,0.4631,0.3122,0.0431,0.0127,0.1094,0.3095,0.4725,0.6412,0.8195,0.8483,0.9182,1.0191,0.9197,0.8718,0.8912,0.7196,0.5257,0.3125,0.1096,0.0,0.0,-0.1989,-0.3884,-0.5644,-0.5325,-0.516,-0.5372,-0.5248,-0.5151,-0.5071,-0.4723,-0.3342,0.0,-0.023,0.0,0.0,0.0,0.0,0.0,0.0,0.0,0.0,0.5128,0.5173,0.5121,0.5227,0.5248,0.5155,0.5298,0.5393,0.5459,0.7052,0.8195,0.8524,1.0268,1.1916,1.302,1.2625,1.2871,1.4186,1.3297,1.2879,1.3412,1.0018,0.7194,0.7115,0.7136,0.7143,0.7143,0.7143,0.7109,0.7014,0.6973,0.6912,0.677,0.6589,0.6576,0.6993,0.7097,0.7063,0.7175,0.8819,1.0299,1.0413,1.2369,1.3979,1.3907,1.4203,1.4576,1.4603,1.4757,1.511,-0.449,-0.449,-0.4504,-0.4511,-0.4225,-0.1279,0.0,0.0,0.0,0.0,0.0,0.0,0.0946,0.2658,0.4128,0.479,0.4836,0.483,0.483,0.483,0.483,0.485,0.4877,0.483,0.4102,0.2642,0.0884,0.175,0.5134,0.5488,0.6325,0.7601,0.7717,0.8481,0.9728,0.0,0.0,0.0,0.6514,0.5257,0.3125,0.1096,0.0,0.0,-0.3213,0.0,-0.5369,-0.3998,-0.3889,-0.5319,-0.5359,0.0,0.0,0.0,0.0,0.0,0.0,0.0,0.0,0.0,0.0,0.0,0.4761,0.4556,0.5053,0.6345,0.6846,0.6208,0.694,0.6854,0.5515,0.5386,0.5405,0.548,0.7371,0.8821,0.9243,1.0771,1.1952,1.2148,1.2263,1.2499,1.3113,1.3066,1.3131,1.3079,0.9714,0.7337,0.7129,0.7143,0.7143,0.7143,0.7143,0.7129,0.7109,0.7095,0.7041,0.7025,0.6987,0.7,0.7097,0.7066,0.7142,0.7095,0.9,1.0297,0.9497,1.1978,1.4169,1.3274,1.4027,1.4883,1.4883,1.4967,1.5127,-0.3137,0.0,-0.4478,-0.4512,0.0,-0.1286,0.0,0.0,0.0,0.0,0.0,0.0,0.0972,0.2768,0.4387,0.5067,0.4918,0.4918,0.4918,0.4918,0.4918,0.4952,0.5026,0.5033,0.476,0.4307,0.323,0.3703,0.5637,0.5923,0.6635,0.7662,0.7604,0.7995,0.8946,0.7752,0.6869,0.6338,0.6281,0.5257,0.3125,0.1096,0.0,0.0,-0.1728,0.0,0.0,0.0,0.0,0.0,0.0,0.0,0.0,0.0,0.0,-0.4855,-0.1872,0.0773,0.2567,0.4382,0.5396,0.5373,0.5315,0.5382,0.5732,0.7047,0.7467,0.6647,0.7269,0.7047,0.5602,0.5388,0.5473,0.5698,0.7663,0.92,0.9757,1.1016,1.1917,1.2091,1.2345,1.2639,1.2933,1.3134,1.2795,1.1951,0.9147,0.7088,0.7129,0.7143,0.7143,0.7143,0.7143,0.7143,0.7143,0.7143,0.7122,0.7149,0.7095,0.7109,0.7135,0.7088,0.7143,0.7319,0.9121,1.0602,1.0446,1.2568,1.4559,1.4116,1.4591,1.5164,1.5177,1.5087,1.5166,-0.1475,-0.3699,-0.3704,-0.3698,-0.347,-0.1039,0.0,0.0,0.0,0.0,0.0,0.0,0.0997,0.281,0.4584,0.5275,0.4999,0.4999,0.4999,0.4999,0.4992,0.506,0.5169,0.5118,0.5264,0.542,0.5405,0.556,0.5761,0.6086,0.6807,0.755,0.741,0.7501,0.7923,0.7001,0.6458,0.6342,0.6284,0.5241,0.3163,0.1106,0.0,0.0,0.0,0.0,0.0,-0.1455,-0.151,-0.0141,-0.1447,-0.2248,-0.2242,-0.3193,-0.3916,-0.4271,-0.1629,0.156,0.5097,0.5393,0.5393,0.544,0.5555,0.5909,0.6446,0.7298,0.7551,0.6822,0.722,0.6975,0.5616,0.5532,0.5617,0.5768,0.752,0.9155,1.0244,1.1106,1.1821,1.2278,1.2545,1.2943,1.316,1.3196,1.2565,1.0737,0.8661,0.7095,0.7129,0.7143,0.7143,0.7143,0.7143,0.7143,0.7143,0.7143,0.7149,0.7088,0.7094,0.7101,0.7217,0.7224,0.7224,0.7251,0.9383,1.0711,1.102,1.3093,1.4837,1.485,1.5166,1.5471,1.5471,1.5312,1.5311,0.0,-0.0645,-0.0666,-0.0614,-0.0614,-0.0185,0.0,0.0,0.0,0.0,0.0,0.0,0.1039,0.2781,0.4587,0.5384,0.5298,0.5298,0.5363,0.5298,0.5298,0.5311,0.5332,0.5332,0.5413,0.5555,0.5438,0.5577,0.5949,0.6138,0.6385,0.6513,0.6458,0.6606,0.6763,0.6675,0.6661,0.6641,0.642,0.5245,0.3151,0.1061,0.0,0.0,0.0,0.0,0.0,0.0,-0.0291,-0.0,-0.0217,-0.036,0.0,0.0,-0.0695,-0.0698,0.0,0.1603,0.5098,0.5422,0.548,0.5668,0.5759,0.6043,0.6755,0.7103,0.7144,0.7074,0.7531,0.7274,0.5922,0.5981,0.5996,0.5619,0.6221,0.8081,1.1214,1.1267,1.1267,1.2096,1.2559,1.2879,1.2962,1.3192,1.2566,1.0758,0.8607,0.7136,0.7163,0.7143,0.7143,0.7143,0.7143,0.7143,0.7156,0.7143,0.7121,0.7131,0.7151,0.7191,0.7482,0.7495,0.7588,0.7522,0.9644,1.0765,1.0306,1.2802,1.4549,1.4415,1.4991,1.5631,1.5765,1.5734,1.5744,0.0,0.0,0.0,0.0,0.0,0.0,0.0,0.0,0.0,0.0,0.0,0.0,0.0996,0.2813,0.4573,0.5386,0.5425,0.5425,0.5425,0.5425,0.5425,0.5406,0.5481,0.5413,0.5487,0.5705,0.5493,0.5596,0.5949,0.6194,0.627,0.6345,0.6414,0.6489,0.6485,0.6702,0.6824,0.6824,0.6609,0.5382,0.3183,0.1081,0.0,0.0,0.0,0.0,0.0,0.0,0.0,0.0,0.0,0.0,0.0,0.0,0.0,0.0,0.0,0.1717,0.5674,0.5871,0.5892,0.6029,0.5954,0.604,0.6395,0.6873,0.7078,0.7158,0.7538,0.7244,0.5928,0.6064,0.6152,0.5917,0.6179,0.7049,0.878,1.0293,1.0842,1.0907,1.2106,1.2634,1.1677,1.2841,1.2845,1.085,0.856,0.7197,0.7353,0.7312,0.7231,0.717,0.7272,0.7339,0.7292,0.7339,0.7315,0.7111,0.7303,0.7522,0.7785,0.7799,0.8074,0.8621,1.0259,1.1445,1.1548,1.3812,1.5016,1.5162,1.524,1.5763,1.6032,1.6188,1.6321,0.0,0.0,0.0,0.0,0.0,0.0,0.0,0.0,0.0,0.0,0.0,0.0,0.1007,0.2813,0.4573,0.5379,0.5432,0.5425,0.5446,0.5413,0.548,0.5494,0.5623,0.5491,0.5563,0.5775,0.5519,0.5663,0.6016,0.6207,0.6281,0.64,0.6617,0.6627,0.658,0.6844,0.6973,0.6973,0.6806,0.5639,0.3228,0.1103,0.0,0.0,0.0,0.0,0.0,0.0,0.0,0.0,0.0,0.0,0.0,0.0,0.0,0.0,0.0882,0.2801,0.5875,0.6302,0.628,0.628,0.6165,0.6084,0.6146,0.6559,0.6921,0.6929,0.7196,0.697,0.616,0.6103,0.6261,0.6261,0.6311,0.636,0.6583,0.8609,1.01,0.9761,1.1294,1.1828,1.0972,1.198,1.2197,0.9986,0.8302,0.7535,0.7536,0.7509,0.7414,0.7339,0.7448,0.7536,0.7448,0.7509,0.7496,0.724,0.7455,0.7678,0.7896,0.8006,0.8182,0.9037,1.0536,1.1857,1.3131,1.4596,1.5589,1.571,1.5777,1.6059,1.6321,1.6534,1.6794,0.0,0.0,0.0,0.0,0.0,0.0,0.0,0.0,0.0,0.0,0.0,0.0,0.1006,0.2809,0.4634,0.5372,0.5432,0.5425,0.544,0.5555,0.5569,0.565,0.5772,0.5708,0.5788,0.5922,0.5569,0.5727,0.6234,0.6261,0.6329,0.6458,0.6607,0.6742,0.6885,0.7034,0.7122,0.7122,0.7054,0.588,0.3636,0.1224,0.0,0.0,0.0,0.0,0.0,0.0,0.0,0.0,0.0,0.0,0.0,0.0,0.0,0.0,0.3483,0.598,0.6234,0.6311,0.6283,0.6297,0.6297,0.6227,0.6234,0.6297,0.6367,0.6437,0.6451,0.6381,0.624,0.6261,0.6274,0.6281,0.6281,0.6318,0.6472,0.743,0.8575,0.9448,1.0162,1.0345,1.0164,1.0575,1.0004,0.8253,0.7908,0.7736,0.7638,0.7692,0.7699,0.759,0.7604,0.7604,0.7584,0.7584,0.7583,0.7568,0.7594,0.7738,0.7909,0.7963,0.8188,0.9267,1.0299,1.1879,1.2876,1.398,1.575,1.5992,1.6139,1.6393,1.6658,1.6843,1.7088,0.0,0.0,0.0,0.0,0.0,0.0,0.0,0.0,0.0,0.1323,0.3252,0.1125,0.1587,0.4306,0.5106,0.5372,0.5432,0.5454,0.5528,0.5596,0.5671,0.5793,0.5922,0.5788,0.5942,0.6152,0.6013,0.6079,0.6218,0.6311,0.6384,0.662,0.6846,0.6956,0.6939,0.7068,0.7143,0.7143,0.7088,0.6008,0.3657,0.1244,0.0,0.0,0.0,0.0,0.0,0.0,0.0,0.0,0.0,0.0,0.0,0.0,0.0,0.0,0.3951,0.6325,0.6295,0.6274,0.6261,0.6261,0.6261,0.6261,0.6261,0.6261,0.6261,0.6261,0.6261,0.6261,0.6268,0.6257,0.6304,0.6317,0.6464,0.6512,0.6579,0.7435,0.8171,0.8123,0.9257,0.9667,0.8681,0.8424,0.8253,0.766,0.7865,0.7956,0.7814,0.7841,0.7828,0.7855,0.7862,0.7814,0.776,0.7807,0.7771,0.7825,0.7845,0.7885,0.8011,0.8038,0.8428,0.9903,1.1179,1.2705,1.4497,1.5008,1.6126,1.6286,1.6454,1.6759,1.6754,1.7041,1.7368,0.0,0.0,0.1222,0.1704,0.1704,0.1097,0.0557,0.0142,0.0567,0.2938,0.5795,0.3052,0.3126,0.5316,0.546,0.5413,0.5452,0.5521,0.5616,0.5657,0.58,0.5949,0.6084,0.6016,0.6069,0.6254,0.6295,0.639,0.6532,0.6552,0.6632,0.6776,0.6963,0.7039,0.6993,0.7095,0.7143,0.7143,0.7081,0.5913,0.366,0.1254,0.0,0.0,0.0,0.0,0.0,0.0,0.0,0.0,0.0,0.0,0.0,0.0,0.0,0.0,0.337,0.5736,0.6217,0.6274,0.6261,0.6261,0.6261,0.6261,0.6261,0.6261,0.6261,0.6261,0.6295,0.6322,0.625,0.6251,0.6318,0.6525,0.6723,0.6785,0.6861,0.7469,0.7545,0.7161,0.8308,0.8837,0.7539,0.7184,0.7356,0.7834,0.7991,0.7973,0.797,0.7943,0.7916,0.8018,0.8031,0.7991,0.7902,0.7943,0.8031,0.8038,0.8024,0.8223,0.8741,0.9046,0.9221,1.1091,1.1991,1.2954,1.4484,1.5477,1.6486,1.6754,1.6879,1.6935,1.7041,1.733,1.7542,0.0,0.0,0.4309,0.5783,0.579,0.3799,0.188,0.0581,0.2102,0.423,0.6113,0.5926,0.5964,0.5929,0.558,0.5433,0.5406,0.5542,0.5684,0.58,0.5949,0.6098,0.6247,0.6254,0.6254,0.6288,0.6311,0.6532,0.7026,0.7047,0.7035,0.6912,0.7025,0.7087,0.7102,0.7129,0.7143,0.7143,0.7074,0.5997,0.366,0.1341,0.0,0.0,0.0,0.0,0.0,0.0,0.0,0.0,0.0,0.0,0.0,0.0,0.0,0.0,0.2033,0.4229,0.5977,0.6288,0.6274,0.6274,0.6295,0.6274,0.6302,0.6288,0.6288,0.6352,0.6304,0.6278,0.6318,0.6351,0.6566,0.6929,0.7047,0.7069,0.7062,0.702,0.6997,0.6959,0.7316,0.7531,0.7151,0.7127,0.7439,0.7807,0.8014,0.8011,0.8018,0.8024,0.8024,0.8031,0.8045,0.8038,0.8031,0.8024,0.8031,0.8031,0.823,0.8641,1.0457,1.1766,1.1933,1.2139,1.315,1.3952,1.4604,1.5382,1.6592,1.7021,1.6896,1.7028,1.7304,1.7515,1.7582,0.1561,0.4131,0.5623,0.6301,0.623,0.5466,0.4708,0.3952,0.335,0.4288,0.6043,0.627,0.6207,0.6022,0.5974,0.5858,0.5664,0.58,0.5901,0.5962,0.6105,0.6207,0.6254,0.6261,0.6315,0.6396,0.6364,0.66,0.7013,0.7111,0.7094,0.7048,0.7068,0.7095,0.7129,0.7143,0.7143,0.7143,0.7074,0.6631,0.5547,0.2055,0.0,0.0,0.0,0.0,0.0,0.0,0.0,0.0,0.0,0.0,0.0,0.0,0.0,0.0,0.0703,0.2672,0.5689,0.641,0.6524,0.6532,0.6539,0.6532,0.6525,0.6458,0.6437,0.6512,0.6398,0.6377,0.6549,0.6679,0.6867,0.7013,0.7104,0.7146,0.708,0.7034,0.7068,0.7088,0.719,0.7312,0.7421,0.7435,0.7607,0.7925,0.8041,0.8031,0.8038,0.8038,0.8058,0.8058,0.8126,0.8187,0.8187,0.8092,0.8038,0.8024,0.8124,0.8371,0.9598,1.3513,1.4465,1.3513,1.4325,1.5081,1.5683,1.633,1.7235,1.7288,1.7264,1.7277,1.7555,1.7582,1.7582,0.3285,0.5201,0.6061,0.6302,0.6302,0.6271,0.6275,0.6139,0.4741,0.4936,0.6106,0.6274,0.6207,0.6118,0.6263,0.6207,0.5962,0.601,0.603,0.6051,0.6234,0.6329,0.6342,0.6383,0.6451,0.6546,0.643,0.6666,0.7066,0.7095,0.7136,0.7136,0.7143,0.7143,0.7143,0.7143,0.7143,0.7143,0.7156,0.7081,0.6631,0.402,0.143,0.0,0.0,0.0,0.0,0.0,0.0,0.0,0.0,0.0,0.0,0.0,0.0,0.0,0.0,0.1842,0.5606,0.6546,0.6682,0.6771,0.6702,0.6702,0.6695,0.6607,0.6607,0.6654,0.6592,0.6466,0.6701,0.6966,0.7087,0.7094,0.7082,0.7136,0.7143,0.7136,0.7163,0.7231,0.74,0.7502,0.7636,0.7644,0.7764,0.7986,0.8117,0.8106,0.8113,0.816,0.818,0.8187,0.8275,0.833,0.8336,0.8275,0.8133,0.8119,0.8167,0.8275,1.0247,1.424,1.6238,1.5279,1.5352,1.6151,1.6769,1.733,1.7542,1.7582,1.7542,1.7515,1.7582,1.7582,1.7609,0.4983,0.3812,0.5458,0.6282,0.6296,0.6256,0.6254,0.6254,0.617,0.6099,0.6274,0.6274,0.6268,0.6247,0.6352,0.6345,0.6227,0.6146,0.6091,0.6105,0.6349,0.6471,0.6485,0.6593,0.6585,0.6709,0.6675,0.6814,0.7115,0.7136,0.7143,0.7143,0.7143,0.7143,0.7143,0.7143,0.7143,0.7143,0.7143,0.7156,0.7081,0.6637,0.4567,0.0985,0.0,0.0,0.0,0.0,0.0,0.0,0.0,0.0,0.0,0.0,0.0,0.0,0.0,0.0,0.5333,0.6414,0.6895,0.7014,0.6895,0.6749,0.6756,0.6722,0.6715,0.6763,0.6739,0.6662,0.6774,0.696,0.7122,0.7136,0.7136,0.7136,0.7143,0.7143,0.7204,0.7366,0.7597,0.7691,0.7738,0.7838,0.7939,0.7985,0.8282,0.848,0.8487,0.8453,0.8445,0.8459,0.8465,0.8486,0.8486,0.8479,0.8269,0.8151,0.8294,0.8674,1.1513,1.5131,1.6764,1.6343,1.633,1.7028,1.7133,1.7555,1.7555,1.7582,1.7582,1.7635,1.7583,1.7596,1.7569,0.5937,0.5366,0.6033,0.6283,0.6276,0.6318,0.6261,0.6268,0.6261,0.6261,0.6281,0.6284,0.627,0.6329,0.6458,0.6505,0.6417,0.6451,0.6437,0.6383,0.6539,0.6627,0.6641,0.6681,0.6672,0.6695,0.6914,0.7001,0.7129,0.7143,0.7143,0.7143,0.7143,0.7143,0.7143,0.7143,0.7143,0.7143,0.7143,0.719,0.7285,0.7135,0.6311,0.4736,0.0,0.0,0.0,0.0,0.0,0.0,0.0,0.0,0.0,0.0,0.0,0.0,0.318,0.3546,0.2457,0.5119,0.6997,0.7066,0.7,0.7,0.6987,0.6912,0.6905,0.6959,0.6794,0.6781,0.6967,0.7021,0.7061,0.7143,0.7143,0.7149,0.7177,0.7244,0.7366,0.7516,0.7699,0.7738,0.7661,0.7798,0.8018,0.8097,0.8273,0.8522,0.864,0.8577,0.8479,0.8486,0.8547,0.8642,0.8642,0.8983,0.9226,0.8842,0.8758,0.9894,1.2809,1.5231,1.6782,1.7468,1.7459,1.7448,1.7555,1.7622,1.7649,1.7649,1.7675,1.7636,1.7622,1.7661,1.7661,0.6302,0.6268,0.6268,0.6268,0.6261,0.6261,0.6373,0.6335,0.6342,0.6369,0.6271,0.627,0.6425,0.6558,0.6709,0.6647,0.658,0.6715,0.6736,0.6661,0.6729,0.6783,0.6797,0.6844,0.682,0.6914,0.7007,0.7143,0.7143,0.7143,0.7143,0.7143,0.7197,0.7197,0.717,0.7258,0.7292,0.7244,0.7285,0.736,0.7315,0.7319,0.7202,0.6624,0.4156,0.0,0.0,0.0,0.0,0.0,0.0,0.0,0.0,0.0,0.0,0.0,0.3953,0.5717,0.3379,0.5583,0.7135,0.7129,0.7143,0.7136,0.7122,0.7048,0.7061,0.7014,0.6974,0.6886,0.7101,0.7135,0.7155,0.7125,0.7265,0.7258,0.7305,0.7441,0.7556,0.7699,0.7862,0.7905,0.7818,0.8044,0.8267,0.8361,0.8533,0.868,0.88,0.8735,0.8742,0.8655,0.873,0.8791,0.8798,0.9385,0.9998,0.9667,0.9319,1.1248,1.3762,1.5891,1.7593,1.7566,1.7502,1.7635,1.7742,1.7796,1.7822,1.7796,1.7862,1.7807,1.7843,1.7843,1.7965,0.6308,0.6366,0.6366,0.6308,0.6308,0.6308,0.6383,0.6471,0.6485,0.6471,0.6325,0.6357,0.6612,0.695,0.6826,0.6756,0.6742,0.6871,0.6932,0.6919,0.6939,0.6939,0.6953,0.7041,0.7014,0.7061,0.7074,0.7088,0.7217,0.7128,0.7074,0.7217,0.7416,0.7416,0.7272,0.7461,0.7502,0.7414,0.7509,0.7483,0.7402,0.7369,0.7315,0.725,0.6744,0.4858,0.0,0.0,0.0,0.0,0.0,0.0,0.0,0.0,0.0,0.0,0.4355,0.6386,0.6786,0.6819,0.7143,0.7136,0.7143,0.7143,0.7136,0.7122,0.7129,0.7177,0.7074,0.7128,0.7067,0.7197,0.7257,0.7176,0.7468,0.7547,0.759,0.7712,0.7787,0.7875,0.8085,0.8282,0.8084,0.832,0.8492,0.8779,0.8869,0.8817,0.8852,0.8907,0.8899,0.8913,0.8879,0.8879,0.8872,0.9742,1.0343,0.9843,1.007,1.249,1.4585,1.6511,1.7622,1.7595,1.7689,1.7809,1.7903,1.7969,1.8103,1.821,1.8194,1.8092,1.8131,1.8144,1.838,0.6682,0.6586,0.6586,0.6586,0.6586,0.6586,0.66,0.6641,0.6641,0.6668,0.6639,0.6564,0.681,0.7076,0.7018,0.6973,0.6926,0.7021,0.7082,0.6994,0.7088,0.7088,0.7088,0.7122,0.7108,0.7105,0.7118,0.7275,0.7475,0.7263,0.727,0.7482,0.7509,0.7616,0.7509,0.7563,0.7577,0.755,0.7577,0.7658,0.7624,0.7611,0.7604,0.7773,0.7283,0.6752,0.5413,0.2056,0.0,0.0,0.0,0.0,0.0,0.0,0.0,0.0,0.2853,0.5458,0.6782,0.7136,0.7143,0.7143,0.7156,0.7143,0.7143,0.7143,0.7197,0.7272,0.7222,0.7093,0.721,0.7449,0.7712,0.7801,0.7848,0.782,0.774,0.7787,0.7889,0.8113,0.8228,0.8267,0.8414,0.8395,0.8575,0.8886,0.8941,0.8866,0.8866,0.8879,0.894,0.894,0.8927,0.8927,0.9147,1.0014,1.0327,0.9859,1.1042,1.3619,1.5505,1.729,1.7662,1.7582,1.7876,1.8036,1.8116,1.8183,1.837,1.8584,1.8584,1.8512,1.8394,1.8433,1.8685,0.6798,0.6702,0.6702,0.6702,0.6702,0.6702,0.6736,0.679,0.6797,0.6837,0.6892,0.6887,0.6966,0.709,0.7068,0.7095,0.7041,0.717,0.7231,0.7251,0.7305,0.7265,0.7101,0.7101,0.7105,0.7086,0.7152,0.7323,0.7677,0.7597,0.7503,0.7604,0.776,0.7665,0.7597,0.7733,0.7746,0.7712,0.7746,0.7828,0.7791,0.7664,0.7733,0.7863,0.7409,0.7343,0.7227,0.2849,0.0,0.0,0.0,0.0,0.0,0.2321,0.2302,0.0642,0.3185,0.5896,0.67,0.7108,0.7177,0.7313,0.7238,0.7278,0.7326,0.7333,0.7387,0.7448,0.7369,0.7349,0.7374,0.774,0.8049,0.8174,0.8231,0.8119,0.7997,0.8018,0.8113,0.8296,0.8425,0.8499,0.8588,0.8642,0.8729,0.8906,0.8913,0.8927,0.8927,0.894,0.8954,0.8981,0.9022,0.9042,0.9083,0.9756,1.01,0.9712,1.0067,1.2998,1.6417,1.7969,1.7929,1.805,1.8116,1.8263,1.8384,1.8517,1.8718,1.8851,1.8811,1.8865,1.8884,1.8783,1.9052,0.684,0.6742,0.6742,0.6742,0.6756,0.6756,0.6844,0.6932,0.6953,0.7014,0.7007,0.7129,0.7109,0.7143,0.7122,0.7143,0.717,0.7292,0.736,0.7421,0.7475,0.7441,0.7272,0.7158,0.7132,0.7184,0.7182,0.7537,0.7882,0.797,0.7855,0.7808,0.7897,0.787,0.7753,0.7902,0.7943,0.7882,0.7936,0.7984,0.7892,0.7798,0.7855,0.7938,0.7561,0.7469,0.6804,0.3827,0.0,0.0,0.0669,0.0,0.1718,0.5656,0.5337,0.2836,0.4944,0.7145,0.7126,0.7118,0.7258,0.7464,0.7492,0.7448,0.7529,0.755,0.757,0.7617,0.7624,0.761,0.7667,0.7898,0.8126,0.8337,0.848,0.8494,0.8412,0.8303,0.835,0.8486,0.8628,0.8696,0.8655,0.8729,0.8933,0.8933,0.8967,0.9126,0.9035,0.9076,0.9076,0.9069,0.9117,0.9178,0.9225,0.9387,0.9509,0.938,0.9137,1.1483,1.6845,1.859,1.8563,1.848,1.8437,1.8571,1.8744,1.8905,1.9065,1.9132,1.9118,1.9212,1.9332,1.9252,1.9354,0.7048,0.696,0.7048,0.7048,0.7048,0.7048,0.7061,0.7088,0.7001,0.7109,0.7136,0.7143,0.7149,0.7149,0.7177,0.7204,0.7319,0.738,0.7428,0.755,0.7577,0.7577,0.7409,0.7263,0.7315,0.7488,0.774,0.7828,0.8,0.8014,0.7943,0.7936,0.7936,0.7977,0.7957,0.7977,0.8031,0.7997,0.8024,0.8038,0.8038,0.7905,0.7977,0.797,0.7845,0.7889,0.7841,0.6917,0.5268,0.4248,0.4865,0.5605,0.5736,0.5394,0.5356,0.6105,0.6555,0.747,0.7263,0.7323,0.7509,0.7629,0.7643,0.7563,0.7584,0.7617,0.7665,0.7733,0.7677,0.7798,0.7912,0.7981,0.8163,0.8522,0.8654,0.8703,0.8673,0.8506,0.8513,0.8621,0.8696,0.875,0.8866,0.8899,0.8954,0.896,0.9022,0.9209,0.9264,0.9312,0.9198,0.9191,0.9266,0.9334,0.9361,0.9408,0.9442,1.0398,1.0524,1.0677,1.6,1.8453,1.8164,1.8289,1.8691,1.8851,1.9011,1.9132,1.9252,1.9332,1.9372,1.9372,1.9372,1.9372,1.9372,0.7143,0.7143,0.7143,0.7143,0.7143,0.7143,0.7143,0.7143,0.7143,0.7094,0.7141,0.7155,0.7195,0.7353,0.736,0.7414,0.7574,0.7556,0.7665,0.778,0.7814,0.7814,0.7807,0.7601,0.7627,0.7738,0.7889,0.797,0.8024,0.8038,0.8024,0.8038,0.8038,0.8024,0.8038,0.8045,0.8038,0.8031,0.8038,0.8038,0.8038,0.8038,0.8038,0.8038,0.8038,0.8004,0.7957,0.7918,0.7147,0.662,0.7242,0.8,0.7865,0.6703,0.6748,0.7627,0.7835,0.7712,0.7597,0.7638,0.7719,0.7794,0.7699,0.7746,0.778,0.7807,0.7834,0.7916,0.7997,0.8026,0.8233,0.8418,0.8499,0.8687,0.8807,0.8876,0.8757,0.8682,0.8648,0.8771,0.8825,0.8859,0.892,0.887,0.8923,0.8957,0.9191,0.938,0.9495,0.9422,0.9327,0.9347,0.9435,0.949,0.9503,0.9544,0.9591,1.1288,1.3311,1.3498,1.5809,1.691,1.7363,1.7869,1.8402,1.9065,1.9225,1.9332,1.9372,1.9372,1.9372,1.9372,1.9372,1.9372,1.9372,0.7143,0.7143,0.7143,0.7143,0.7143,0.7143,0.7163,0.7183,0.7177,0.7182,0.7197,0.7126,0.7369,0.7563,0.767,0.7698,0.776,0.7773,0.7896,0.7977,0.7991,0.7991,0.7892,0.7885,0.7851,0.7771,0.7963,0.8031,0.8038,0.8038,0.8038,0.8045,0.8079,0.8099,0.8085,0.8079,0.8092,0.8099,0.8058,0.8038,0.8038,0.8038,0.8038,0.8038,0.8038,0.8038,0.8024,0.7952,0.7979,0.8099,0.8006,0.8019,0.8032,0.7985,0.7972,0.7952,0.7818,0.7862,0.7834,0.7863,0.7842,0.8042,0.7945,0.7923,0.8018,0.8058,0.8079,0.8153,0.8241,0.8377,0.8611,0.8687,0.8855,0.8932,0.8858,0.892,0.8879,0.8832,0.8866,0.8886,0.8906,0.8927,0.8883,0.895,0.8897,0.897,0.9211,0.9531,0.9655,0.9683,0.96,0.9517,0.9598,0.9632,0.9646,0.9646,0.9693,1.0771,1.3846,1.447,1.4697,1.431,1.4898,1.731,1.8106,1.8609,1.9074,1.9113,1.9243,1.9359,1.9372,1.9372,1.9372,1.9372,1.9372,0.7143,0.7143,0.7143,0.7143,0.7143,0.7143,0.7224,0.7326,0.7333,0.7329,0.7356,0.747,0.7577,0.7712,0.7893,0.7861,0.7794,0.7916,0.7997,0.8038,0.8038,0.8038,0.8038,0.8038,0.8018,0.8018,0.7945,0.7959,0.8052,0.8038,0.8079,0.8079,0.8174,0.8228,0.8228,0.8235,0.8228,0.8214,0.814,0.8085,0.8085,0.8085,0.8085,0.8085,0.8092,0.8079,0.8065,0.8058,0.8106,0.8221,0.8241,0.8303,0.8323,0.8187,0.7992,0.7972,0.7959,0.7932,0.8018,0.7997,0.7977,0.7997,0.8018,0.8079,0.8187,0.8241,0.8275,0.8397,0.8407,0.8528,0.8555,0.875,0.8845,0.8893,0.8886,0.8906,0.8954,0.8994,0.9015,0.9008,0.8994,0.9001,0.899,0.9077,0.9036,0.9122,0.9359,0.9551,0.9689,0.9758,0.9707,0.9741,0.9774,0.9781,0.9788,0.9774,0.9774,0.9727,1.1551,1.2671,1.2516,1.1462,1.2285,1.5126,1.6938,1.7677,1.8156,1.8765,1.9127,1.9372,1.9372,1.9372,1.9372,1.9372,1.9372,0.7258,0.7265,0.7346,0.738,0.738,0.738,0.7421,0.7482,0.7495,0.7476,0.7482,0.761,0.7657,0.7807,0.7931,0.7973,0.7936,0.7997,0.8038,0.8038,0.8038,0.8038,0.8045,0.8045,0.8099,0.8133,0.8052,0.8052,0.816,0.8268,0.8295,0.8275,0.835,0.8377,0.8377,0.8377,0.8384,0.8357,0.8303,0.8255,0.8262,0.8262,0.8262,0.8262,0.8262,0.8269,0.8269,0.8269,0.8303,0.8364,0.8377,0.8418,0.8425,0.8377,0.816,0.8057,0.8051,0.8051,0.7955,0.7955,0.8057,0.8269,0.816,0.8193,0.8357,0.8391,0.8452,0.8574,0.8535,0.8527,0.8709,0.8783,0.8927,0.894,0.894,0.8981,0.9042,0.9117,0.9144,0.915,0.9205,0.9232,0.9144,0.9225,0.9175,0.9281,0.9506,0.9673,0.9827,0.9754,0.9822,0.9822,0.9822,0.9836,0.9849,0.9856,0.9761,0.9836,0.993,1.105,1.1566,1.105,1.1614,1.3496,1.4983,1.7079,1.8169,1.9256,1.9372,1.9372,1.9372,1.9372,1.9372,1.9372,1.9372,0.7421,0.7428,0.755,0.7597,0.7597,0.7597,0.7611,0.7638,0.7645,0.7624,0.7647,0.766,0.7818,0.8004,0.8031,0.8031,0.8038,0.8038,0.8038,0.8038,0.8038,0.8045,0.8085,0.8106,0.8167,0.8303,0.8309,0.8206,0.8309,0.8522,0.8591,0.8543,0.8486,0.8526,0.8533,0.8526,0.8526,0.852,0.8492,0.8486,0.8479,0.8479,0.8591,0.8591,0.8486,0.8465,0.8445,0.8445,0.8479,0.8513,0.8533,0.8547,0.8574,0.8574,0.8461,0.8236,0.8091,0.8157,0.8151,0.8243,0.8327,0.8536,0.8465,0.8486,0.854,0.8574,0.8635,0.873,0.8655,0.8696,0.8783,0.8933,0.896,0.8988,0.9001,0.9035,0.9164,0.9259,0.934,0.9374,0.9435,0.9449,0.9332,0.9345,0.9288,0.938,0.9727,0.9741,0.9768,0.9781,0.9822,0.9822,0.9829,0.9856,0.9876,0.9917,0.9841,0.9757,0.9861,1.0369,1.1031,1.1301,1.2515,1.3945,1.5523,1.7649,1.8593,1.9426,1.9452,1.9452,1.9399,1.9372,1.9372,1.9399,1.9412,0.767,0.7577,0.7597,0.7597,0.7611,0.7617,0.7678,0.778,0.7787,0.7875,0.7892,0.7905,0.7918,0.8052,0.8052,0.8045,0.8058,0.8079,0.8092,0.8099,0.8092,0.8153,0.8228,0.8241,0.8323,0.8438,0.8675,0.8668,0.8584,0.8689,0.8689,0.8639,0.8635,0.8682,0.8682,0.8682,0.8682,0.8662,0.856,0.8499,0.8506,0.8513,0.8625,0.8723,0.8625,0.8526,0.854,0.8547,0.8574,0.8676,0.8682,0.875,0.8852,0.8886,0.8886,0.8696,0.8662,0.8591,0.873,0.8751,0.8751,0.8765,0.8632,0.8673,0.8662,0.8777,0.8845,0.8899,0.8796,0.8809,0.8954,0.8954,0.9008,0.9195,0.925,0.9325,0.9442,0.9395,0.9476,0.9564,0.9612,0.9612,0.9605,0.9499,0.952,0.9613,0.9687,0.9815,0.9836,0.9849,0.9869,0.9876,0.9944,0.9971,0.9998,1.0019,1.0059,0.989,0.989,1.0022,1.084,1.1886,1.4048,1.5441,1.692,1.7925,1.8684,1.9298,1.9522,1.9599,1.9613,1.9506,1.9372,1.9426,1.9546,0.7801,0.7726,0.7814,0.7848,0.7848,0.7848,0.7882,0.7929,0.7943,0.7977,0.8031,0.8038,0.8085,0.8254,0.8174,0.8221,0.8275,0.8275,0.8289,0.8275,0.8282,0.8323,0.8377,0.8397,0.8465,0.8581,0.8621,0.8682,0.8682,0.8769,0.8862,0.8737,0.8798,0.8838,0.8825,0.8838,0.8838,0.8825,0.8777,0.8743,0.8743,0.8737,0.8737,0.8852,0.8737,0.873,0.8723,0.8743,0.8764,0.8838,0.8838,0.8859,0.892,0.8933,0.8933,0.892,0.8825,0.8757,0.8858,0.896,0.8946,0.896,0.8845,0.8784,0.8845,0.8899,0.8947,0.8933,0.8903,0.8937,0.897,0.8911,0.9091,0.9259,0.9516,0.9497,0.9586,0.953,0.9612,0.97,0.9774,0.9754,0.9741,0.9627,0.962,0.964,0.9815,0.9822,0.9869,0.9924,0.9944,0.9971,1.0053,1.0134,1.0161,1.0181,1.0188,1.0116,1.0116,1.0397,1.1268,1.2594,1.4779,1.6245,1.7278,1.8143,1.8815,1.9382,1.9854,1.992,1.9867,1.9786,1.972,1.9456,1.9707,0.797,0.7882,0.7991,0.8038,0.8038,0.8038,0.8031,0.8038,0.8031,0.8058,0.8006,0.8039,0.8221,0.8508,0.8433,0.8474,0.8465,0.8479,0.8479,0.8479,0.8486,0.8492,0.8526,0.8554,0.8621,0.8764,0.8655,0.8702,0.8852,0.8955,0.8934,0.894,0.8906,0.8927,0.8933,0.8927,0.892,0.8913,0.8913,0.8906,0.8913,0.892,0.892,0.8927,0.8933,0.894,0.894,0.8927,0.8927,0.8927,0.892,0.8927,0.894,0.894,0.894,0.8933,0.8893,0.8927,0.8933,0.8933,0.894,0.8947,0.8994,0.8994,0.9055,0.9049,0.9049,0.9083,0.8917,0.9084,0.9111,0.9191,0.9245,0.9401,0.9559,0.9655,0.9625,0.9686,0.9713,0.9747,0.9815,0.9856,0.9849,0.9747,0.9741,0.9822,0.9829,0.9842,0.9924,1.0012,1.0066,1.0107,1.0154,1.0256,1.0317,1.0337,1.0344,1.0358,1.0358,1.1441,1.2605,1.394,1.5623,1.6883,1.7859,1.9042,2.0047,2.0235,2.0307,2.016,2.0067,2.0134,2.004,1.9863,1.928,0.8031,0.8024,0.8031,0.8038,0.8038,0.8038,0.8045,0.8058,0.8058,0.814,0.8262,0.8157,0.8209,0.8465,0.8689,0.8703,0.8499,0.8486,0.852,0.852,0.8492,0.8594,0.8655,0.8716,0.8764,0.8879,0.8776,0.8789,0.8933,0.8913,0.8913,0.894,0.894,0.894,0.894,0.894,0.894,0.894,0.894,0.894,0.894,0.894,0.894,0.894,0.894,0.894,0.894,0.894,0.894,0.894,0.894,0.8967,0.8974,0.8981,0.8988,0.8897,0.8897,0.8943,0.8871,0.8923,0.896,0.8981,0.9062,0.9184,0.9259,0.932,0.934,0.9306,0.9096,0.9122,0.9367,0.9518,0.9537,0.9605,0.9686,0.9761,0.9829,0.9842,0.9863,0.9829,0.9876,0.9958,0.9998,1.0025,0.9881,0.9848,0.9964,0.9978,1.0066,1.0154,1.0222,1.0263,1.0276,1.0351,1.046,1.0487,1.05,1.0527,1.0541,1.2572,1.466,1.5984,1.7356,1.758,1.864,2.0043,2.079,2.0289,1.9944,2.009,2.0281,2.0428,2.0508,2.0425,1.9026,0.8038,0.8038,0.8038,0.8038,0.8045,0.814,0.818,0.8194,0.8275,0.8336,0.8404,0.8249,0.8428,0.8707,0.8628,0.879,0.875,0.8764,0.875,0.8764,0.8777,0.8798,0.8845,0.8852,0.8886,0.8927,0.894,0.894,0.8933,0.894,0.894,0.894,0.8954,0.894,0.894,0.8947,0.8954,0.8954,0.8947,0.894,0.894,0.894,0.894,0.894,0.894,0.894,0.894,0.894,0.894,0.8947,0.8954,0.9001,0.9069,0.9096,0.9017,0.8944,0.8944,0.8983,0.901,0.9057,0.9229,0.9205,0.9266,0.9327,0.9408,0.9395,0.9381,0.9395,0.9365,0.9294,0.9412,0.968,0.9727,0.9767,0.9814,0.9998,1.0025,1.0032,1.0039,1.0025,1.0073,1.0154,1.0175,1.0188,1.0029,0.9876,0.9988,1.0127,1.0209,1.0304,1.0371,1.0426,1.0446,1.048,1.0582,1.0622,1.0656,1.067,1.069,1.2972,1.5269,1.8559,1.967,1.9621,1.8896,1.9407,1.9763,1.9713,1.9827,2.0296,2.0571,2.0815,2.0855,2.0828,1.9387,0.8113,0.8113,0.8153,0.8147,0.8126,0.8228,0.8296,0.835,0.8431,0.8513,0.8441,0.8488,0.8669,0.8757,0.8784,0.8709,0.8893,0.8913,0.8927,0.892,0.8913,0.894,0.894,0.8933,0.892,0.894,0.894,0.894,0.894,0.894,0.8863,0.8883,0.9001,0.8994,0.8947,0.8988,0.9022,0.9062,0.9069,0.9069,0.8963,0.897,0.8923,0.8917,0.8903,0.9015,0.9022,0.9028,0.9055,0.9083,0.911,0.9137,0.9198,0.9259,0.9198,0.9116,0.9026,0.9039,0.9162,0.9334,0.953,0.9408,0.9435,0.9469,0.9496,0.951,0.9557,0.9557,0.9533,0.9613,0.9627,0.9685,0.9804,0.9837,1.0252,1.0314,1.0314,1.0321,1.0215,1.0222,1.0263,1.027,1.0365,1.0371,1.0324,1.0169,1.029,1.0297,1.0344,1.0439,1.0534,1.0582,1.0616,1.0663,1.0711,1.0704,1.0697,1.069,1.1108,1.27,1.524,1.8289,1.9463,1.8033,1.7731,1.8372,1.8628,1.8465,1.9522,2.0803,2.0916,2.075,2.1015,2.085,1.9853,0.8269,0.8282,0.8404,0.8384,0.8282,0.8269,0.8357,0.8479,0.8513,0.8481,0.8602,0.8716,0.8893,0.8913,0.8893,0.8913,0.8927,0.894,0.8947,0.8967,0.8981,0.896,0.8981,0.9001,0.9035,0.896,0.8883,0.8903,0.887,0.9015,0.895,0.9004,0.9144,0.9103,0.8974,0.9083,0.9218,0.934,0.9334,0.932,0.9198,0.9069,0.9003,0.8944,0.903,0.9037,0.915,0.915,0.9198,0.9266,0.9286,0.932,0.9367,0.9381,0.9408,0.9429,0.9422,0.9483,0.9696,0.9813,0.9738,0.9591,0.9625,0.968,0.9768,0.9808,0.9815,0.9829,0.993,0.9881,0.983,0.9903,0.9849,1.0022,1.0452,1.0628,1.0507,1.0513,1.0405,1.0419,1.0358,1.0344,1.048,1.0555,1.0623,1.0596,1.0718,1.0603,1.05,1.0548,1.0643,1.0663,1.069,1.0744,1.0765,1.0751,1.0738,1.0731,1.115,1.2398,1.3601,1.5327,1.5934,1.5834,1.6285,1.665,1.7087,1.7367,1.8383,1.9395,2.0374,2.069,2.0843,2.0781,1.9811,0.8307,0.8418,0.8465,0.8513,0.8554,0.856,0.8587,0.8642,0.8737,0.8811,0.8749,0.8927,0.894,0.894,0.894,0.894,0.8947,0.894,0.896,0.9083,0.9083,0.9157,0.9191,0.9198,0.9211,0.9111,0.9111,0.8977,0.8889,0.9084,0.9003,0.9063,0.9313,0.9401,0.9259,0.9293,0.934,0.9367,0.9374,0.9374,0.9265,0.9265,0.9245,0.9191,0.9185,0.93,0.9422,0.9306,0.9347,0.9408,0.9422,0.9449,0.951,0.953,0.9571,0.9632,0.9666,0.9686,0.9895,0.9882,0.9923,0.9815,0.9842,0.991,0.9971,1.008,1.0107,1.0114,1.0022,1.0069,1.0096,1.0337,1.0412,1.0446,1.0623,1.0706,1.0602,1.0602,1.0609,1.0616,1.0582,1.0555,1.0629,1.0643,1.0733,1.074,1.074,1.0754,1.0649,1.0649,1.0697,1.0697,1.0724,1.0785,1.0826,1.0853,1.0772,1.0806,1.0806,1.1219,1.2285,1.3327,1.4281,1.5063,1.4852,1.4888,1.5747,1.6501,1.6992,1.7796,1.8534,1.9665,2.0165,2.0228,1.9993,0.8454,0.8567,0.8621,0.8696,0.8771,0.8737,0.8737,0.8798,0.8893,0.894,0.8933,0.8933,0.894,0.894,0.894,0.8988,0.9001,0.9015,0.9096,0.9218,0.9232,0.9286,0.934,0.9388,0.934,0.9381,0.9265,0.9129,0.9109,0.9367,0.9285,0.9332,0.951,0.9655,0.9523,0.9503,0.9496,0.9537,0.9571,0.9564,0.9439,0.9544,0.9523,0.96,0.958,0.958,0.958,0.9469,0.9483,0.951,0.9544,0.9571,0.9652,0.97,0.9734,0.9802,1.0005,1.0012,0.993,1.0163,1.017,1.0143,1.0093,1.012,1.0141,1.0202,1.0236,1.0263,1.0062,1.0088,1.0243,1.0623,1.0692,1.0726,1.0747,1.069,1.0697,1.069,1.069,1.0711,1.0717,1.0717,1.0717,1.0717,1.0683,1.0724,1.0758,1.0778,1.0799,1.0799,1.0812,1.0833,1.086,1.0934,1.0989,1.1009,1.0933,1.0862,1.0856,1.0973,1.1351,1.2406,1.3262,1.3968,1.3415,1.3407,1.4783,1.5605,1.5605,1.5817,1.6092,1.7453,1.9061,1.9205,1.8916,0.8608,0.8743,0.8879,0.8927,0.8906,0.8784,0.8804,0.8927,0.894,0.894,0.894,0.894,0.8954,0.8954,0.8954,0.9035,0.9144,0.9157,0.9259,0.9347,0.9388,0.9415,0.9435,0.9442,0.9476,0.9442,0.9442,0.9372,0.9415,0.9469,0.953,0.9605,0.97,0.9727,0.9713,0.968,0.9673,0.9713,0.9734,0.9727,0.972,0.9754,0.9693,0.9765,0.9737,0.9731,0.9612,0.9612,0.968,0.9734,0.9788,0.9808,0.9822,0.9829,0.9829,0.9883,1.0383,1.0294,1.008,1.0335,1.0397,1.0503,1.0424,1.0297,1.0304,1.0337,1.0385,1.0412,1.0323,1.0344,1.0384,1.0602,1.0683,1.0697,1.0697,1.0717,1.0717,1.0711,1.0711,1.0717,1.0717,1.0717,1.0717,1.0717,1.0765,1.0806,1.086,1.1097,1.1111,1.0962,1.0982,1.105,1.1077,1.1124,1.1158,1.1172,1.124,1.1168,1.1147,1.126,1.1497,1.149,1.2234,1.2527,1.1767,1.2044,1.3351,1.3888,1.383,1.4053,1.4199,1.4556,1.5865,1.6787,1.6766,0.8872,0.8879,0.892,0.894,0.8933,0.8886,0.8899,0.894,0.894,0.894,0.894,0.894,0.9001,0.9089,0.9096,0.9184,0.9266,0.934,0.9422,0.949,0.9544,0.9612,0.9652,0.9666,0.968,0.968,0.968,0.9659,0.9686,0.968,0.968,0.9774,0.9815,0.9829,0.9822,0.9781,0.9815,0.9829,0.9856,0.9842,0.9842,0.9849,0.9808,0.9795,0.9788,0.9788,0.9781,0.9781,0.9822,0.9829,0.9829,0.9856,0.9985,0.9992,0.9881,0.9876,1.0321,1.0608,1.0503,1.0486,1.0697,1.0725,1.0644,1.0507,1.05,1.0507,1.0555,1.0568,1.0575,1.0464,1.0478,1.067,1.0717,1.0717,1.0717,1.0717,1.0717,1.0717,1.0724,1.0765,1.0758,1.0778,1.0772,1.0778,1.0692,1.0739,1.0955,1.1214,1.1276,1.1124,1.1158,1.1226,1.1246,1.128,1.1307,1.1328,1.1402,1.1463,1.143,1.143,1.1585,1.1592,1.1477,1.1457,1.1402,1.1571,1.2059,1.2299,1.278,1.2299,1.2448,1.2507,1.2711,1.3938,1.5183,0.894,0.894,0.894,0.894,0.894,0.894,0.894,0.894,0.894,0.896,0.9022,0.8917,0.9103,0.9346,0.9367,0.9442,0.9462,0.9476,0.9551,0.9659,0.968,0.9734,0.9795,0.9822,0.9802,0.9822,0.9822,0.9781,0.9829,0.9822,0.9815,0.9822,0.9863,0.991,0.993,0.9978,1.0012,0.9992,0.9841,0.9801,0.9801,0.9834,0.9868,0.9985,0.9861,0.9861,0.9992,0.9985,0.9992,0.9998,1.0005,1.0039,1.0141,1.0148,1.0154,1.0136,1.0458,1.0614,1.0649,1.0637,1.0692,1.0733,1.0663,1.0649,1.0643,1.0643,1.067,1.069,1.0704,1.0711,1.0717,1.0717,1.0717,1.0717,1.0717,1.0717,1.0717,1.0717,1.0758,1.0806,1.0839,1.0732,1.0739,1.0739,1.0779,1.0873,1.1111,1.1358,1.1413,1.1413,1.1328,1.1402,1.1409,1.1416,1.1443,1.1463,1.1504,1.1545,1.1552,1.1558,1.1619,1.1606,1.1558,1.1572,1.1592,1.1743,1.1722,1.1736,1.1851,1.1619,1.1619,1.1817,1.2037,1.2462,1.3593,0.894,0.894,0.894,0.8954,0.8954,0.8967,0.8974,0.8974,0.9001,0.9042,0.9137,0.9044,0.9138,0.9497,0.9641,0.9607,0.9585,0.9625,0.9673,0.9815,0.9788,0.9808,0.9808,0.9822,0.9822,0.9822,0.9829,0.9842,0.9849,0.9869,0.9767,0.9863,1.0122,1.0198,1.0086,1.0161,1.0188,1.0049,1.0015,1.0107,0.9982,0.9923,1.0015,1.0122,1.0116,0.9989,1.0256,1.0263,1.0149,1.0276,1.027,1.0249,1.029,1.0337,1.0344,1.0371,1.0596,1.063,1.0671,1.0754,1.067,1.0697,1.0717,1.0711,1.0704,1.0697,1.0717,1.0717,1.0717,1.0717,1.0717,1.0717,1.0717,1.0744,1.0765,1.0785,1.0939,1.0833,1.0907,1.0948,1.0968,1.0859,1.0886,1.0893,1.1063,1.1027,1.1107,1.1489,1.155,1.1416,1.1457,1.1538,1.1525,1.1511,1.1538,1.1558,1.1579,1.1613,1.1619,1.1619,1.1619,1.1619,1.1619,1.1619,1.1619,1.1619,1.1613,1.1619,1.1619,1.1619,1.1619,1.1619,1.1749,1.1872,1.2123,0.894,0.894,0.894,0.8994,0.9096,0.9103,0.9171,0.9273,0.9273,0.9225,0.9184,0.9164,0.9292,0.9537,0.9557,0.9632,0.9727,0.9741,0.9788,0.9808,0.9822,0.9822,0.9822,0.9822,0.9822,0.9822,0.9836,0.989,0.9958,0.9992,0.9928,1.0148,1.0349,1.0222,1.0229,1.0304,1.0324,1.0203,1.023,1.031,1.0404,1.0249,1.0276,1.0424,1.0304,1.0317,1.0445,1.0431,1.0417,1.0404,1.0276,1.0331,1.0432,1.0541,1.0602,1.0622,1.0622,1.0636,1.0656,1.069,1.0711,1.0717,1.0717,1.0717,1.0717,1.0717,1.0724,1.0724,1.0731,1.0731,1.0744,1.0744,1.0751,1.0792,1.0967,1.1001,1.1035,1.1104,1.105,1.1084,1.1104,1.1138,1.1034,1.1067,1.1233,1.128,1.1475,1.1557,1.1653,1.1545,1.1531,1.1586,1.1592,1.1592,1.1619,1.1619,1.1619,1.1619,1.1619,1.1619,1.1619,1.1619,1.1619,1.1619,1.1619,1.1619,1.1619,1.1619,1.1619,1.1619,1.1619,1.1619,1.1619,1.1749,1.1701,0.894,0.8947,0.9008,0.9076,0.9157,0.9225,0.9306,0.9388,0.9456,0.9435,0.9367,0.9332,0.9446,0.9686,0.97,0.96,0.9815,0.9815,0.9815,0.9815,0.9822,0.9822,0.9822,0.9829,0.9822,0.9822,0.9781,0.9854,1.0198,1.0266,1.0342,1.0297,1.0331,1.0378,1.0385,1.0426,1.046,1.0357,1.0555,1.0664,1.0725,1.0596,1.0473,1.061,1.0603,1.0596,1.061,1.061,1.061,1.048,1.0493,1.0514,1.0595,1.0656,1.0697,1.0704,1.0704,1.0717,1.0717,1.0724,1.0731,1.0731,1.0731,1.0731,1.0839,1.0846,1.0846,1.0846,1.0712,1.0712,1.067,1.069,1.069,1.0717,1.1009,1.1173,1.1186,1.1077,1.1172,1.1253,1.128,1.1321,1.1369,1.1423,1.145,1.145,1.164,1.1626,1.1572,1.1619,1.1619,1.1619,1.1619,1.1619,1.1619,1.1619,1.1619,1.1619,1.1619,1.1619,1.1619,1.1619,1.1619,1.1619,1.1619,1.1619,1.1619,1.1619,1.1619,1.1619,1.1619,1.1619,1.1619,1.1619,1.1579,0.894,0.896,0.9089,0.9164,0.9205,0.9347,0.9429,0.9469,0.9578,0.9632,0.9618,0.9506,0.9593,0.9781,0.9822,0.9822,0.9822,0.9822,0.9822,0.9822,0.9822,0.9822,0.9836,0.9849,0.9767,0.9828,0.9777,1.0093,1.0419,1.051,1.0458,1.0486,1.0561,1.0658,1.0561,1.0622,1.0677,1.0663,1.0683,1.0704,1.0711,1.0717,1.069,1.0697,1.0717,1.0717,1.0717,1.0717,1.0717,1.0704,1.067,1.0677,1.0677,1.0704,1.0711,1.0717,1.0717,1.0717,1.0724,1.0758,1.0765,1.0765,1.0758,1.0826,1.0948,1.0975,1.0975,1.1002,1.0866,1.0736,1.0822,1.0869,1.0862,1.0875,1.1165,1.1212,1.1219,1.1226,1.1314,1.1409,1.1443,1.1491,1.1531,1.1592,1.1606,1.1613,1.1619,1.1619,1.1619,1.1619,1.1619,1.1619,1.1619,1.1619,1.1619,1.1619,1.1619,1.1619,1.1619,1.1619,1.1619,1.1619,1.1619,1.1619,1.1619,1.1633,1.1619,1.1619,1.1619,1.1626,1.1619,1.1619,1.1619,1.1613,1.1606,0.894,0.8954,0.9089,0.9225,0.9347,0.9496,0.9632,0.9727,0.9754,0.9781,0.9768,0.9774,0.9802,0.9822,0.9822,0.9822,0.9822,0.9822,0.9822,0.9822,0.9849,0.9836,0.9876,0.9978,0.9948,0.989,0.9949,1.0163,1.0452,1.067,1.0651,1.0609,1.0622,1.067,1.0677,1.0717,1.0717,1.0717,1.0717,1.0717,1.0717,1.0717,1.0717,1.0717,1.0717,1.0717,1.0717,1.0717,1.0717,1.0717,1.0717,1.0717,1.0717,1.0717,1.0717,1.0717,1.0717,1.0738,1.0758,1.0826,1.0853,1.0914,1.0941,1.1036,1.1111,1.1124,1.1158,1.1253,1.124,1.1165,1.1074,1.1351,1.1358,1.1386,1.1413,1.153,1.1457,1.147,1.1518,1.1545,1.1552,1.1572,1.1579,1.1613,1.1613,1.1619,1.1619,1.1619,1.1619,1.1619,1.1619,1.1619,1.1619,1.1619,1.1619,1.1619,1.1619,1.1619,1.164,1.1681,1.1681,1.1619,1.1626,1.1708,1.1681,1.1667,1.1653,1.1694,1.1647,1.166,1.1626,1.1619,1.1619,1.1619,1.1619]}]]